[[{"header":{"parameterUnit":"m.s-1","parameterCategory":1,"la1":31.0,"la2":29.5877,"lo1":-88.7671,"lo2":-86.6584,"dy":0.0162,"dx":0.0185,"nx":115,"ny":88,"refTime":"2026-04-08T00:00:00:Z","depth":0,"parameterNumber":2,"parameterNumberName":"U-component_of_WINDS"},"data":[0.0,0.0,0.0,0.0,0.0,0.0,0.0,0.0,0.0,0.0,0.0,0.0,0.0,0.0,0.0,0.0,0.0,0.0,0.0,0.0,0.0,0.0,0.0,0.0,0.0,0.0,0.0,0.0,0.0,0.0,0.0,0.0,0.0,0.0,0.0,0.0,0.0,0.0,0.0,0.0,0.0,0.0,0.0,0.0,0.0,0.0,0.0,0.0,0.0,0.0,0.0,0.0,0.0,0.0,0.0,0.0,0.0,0.0,0.0,0.0,0.0,0.0,0.0,0.0,0.0,0.0,0.0,0.0,0.0,0.0,0.0,0.0,0.0,0.0,0.0,0.0,0.0,0.0,0.0,0.0,0.0,0.0,0.0,0.0,0.0,0.0,0.0,0.0,0.0,0.0,0.0,0.0,0.0,0.0,0.0,0.0,0.0,0.0,0.0,0.0,0.0,0.0,0.0,0.0,0.0,0.0,0.0,0.0,0.0,0.0,0.0,0.0,0.0,0.0,0.0,0.0,0.0,0.0,0.0,0.0,0.0,0.0,0.0,0.0,0.0,0.0,0.0,0.0,0.0,0.0,0.0,0.0,0.0,0.0,0.0,0.0,0.0,0.0,0.0,0.0,0.0,0.0,0.0,0.0,0.0,0.0,0.0,0.0,0.0,0.0,0.0,0.0,0.0,0.0,0.0,0.0,0.0,0.0,0.0,0.0,0.0,0.0,0.0,0.0,0.0,0.0,0.0,0.0,0.0,0.0,0.0,0.0,0.0,0.0,0.0,0.0,0.0,0.0,0.0,0.0,0.0,0.0,0.0,0.0,0.0,0.0,0.0,0.0,0.0,0.0,0.0,0.0,0.0,0.0,0.0,0.0,0.0,0.0,0.0,0.0,0.0,0.0,0.0,0.0,0.0,0.0,0.0,0.0,0.0,0.0,0.0,0.0,0.0,0.0,0.0,0.0,0.0,0.0,0.0,0.0,0.0,0.0,0.0,0.0,0.0,0.0,0.0,0.0,0.0,0.0,0.0,0.0,0.0,0.0,0.0,0.0,0.0,0.0,0.0,0.0,0.0,0.0,0.0,0.0,0.0,0.0,0.0,0.0,0.0,0.0,0.0,0.0,0.0,0.0,0.0,0.0,0.0,0.0,0.0,0.0,0.0,0.0,0.0,0.0,0.0,0.0,0.0,0.0,0.0,0.0,0.0,0.0,0.0,0.0,0.0,0.0,0.0,0.0,0.0,0.0,0.0,0.0,0.0,0.0,0.0,0.0,0.0,0.0,0.0,0.0,0.0,0.0,0.0,0.0,0.0,0.0,0.0,0.0,0.0,0.0,0.0,0.0,0.0,0.0,0.0,0.0,0.0,0.0,0.0,0.0,0.0,0.0,0.0,0.0,0.0,0.0,0.0,0.0,0.0,0.0,0.0,0.0,0.0,0.0,0.0,0.0,0.0,0.0,0.0,0.0,0.0,0.0,0.0,0.0,0.0,0.0,0.0,0.0,0.0,0.0,0.0,0.0,0.0,0.0,0.0,0.0,0.0,0.0,0.0,0.0,0.0,0.0,0.0,0.0,0.0,0.0,0.0,0.0,0.0,0.0,0.0,0.0,0.0,0.0,0.0,0.0,0.0,0.0,0.0,0.0,0.0,0.0,0.0,0.0,0.0,0.0,0.0,0.0,0.0,0.0,0.0,0.0,0.0,0.0,0.0,0.0,0.0,0.0,0.0,0.0,0.0,0.0,0.0,0.0,0.0,0.0,0.0,0.0,0.0,0.0,0.0,0.0,0.0,0.0,0.0,0.0,0.0,0.0,0.0,0.0,0.0,0.0,0.0,0.0,0.0,0.0,0.0,0.0,0.0,0.0,0.0,0.0,0.0,0.0,0.0,0.0,0.0,0.0,0.0,0.0,0.0,0.0,0.0,0.0,0.0,0.0,0.0,0.0,0.0,0.0,0.0,0.0,0.0,0.0,0.0,0.0,0.0,0.0,0.0,0.0,0.0,0.0,0.0,0.0,0.0,0.0,0.0,0.0,0.0,0.0,0.0,0.0,0.0,0.0,0.0,0.0,0.0,0.0,0.0,0.0,0.0,0.0,0.0,0.0,0.0,0.0,0.0,0.0,0.0,0.0,0.0,0.0,0.0,0.0,0.0,0.0,0.0,0.0,0.0,0.0,0.0,0.0,0.0,0.0,0.0,0.0,0.0,0.0,0.0,0.0,0.0,0.0,0.0,0.0,0.0,0.0,0.0,0.0,0.0,0.0,0.0,0.0,0.0,0.0,0.0,0.0,0.0,0.0,0.0,0.0,0.0,0.0,0.0,0.0,0.0,0.0,0.0,0.0,0.0,0.0,0.0,0.0,0.0,0.0,0.0,0.0,0.0,0.0,0.0,0.0,0.0,0.0,0.0,0.0,0.0,0.0,0.0,0.0,0.0,0.0,0.0,0.0,0.0,0.0,0.0,0.0,0.0,0.0,0.0,0.0,0.0,0.0,0.0,0.0,0.0,0.0,0.0,0.0,0.0,0.0,0.0,0.0,0.0,0.0,0.0,0.0,0.0,0.0,0.0,0.0,0.0,0.0,0.0,0.0,0.0,0.0,0.0,0.0,0.0,0.0,0.0,0.0,0.0,0.0,0.0,0.0,0.0,0.0,0.0,0.0,0.0,0.0,0.0,0.0,0.0,0.0,0.0,0.0,0.0,0.0,0.0,0.0,0.0,0.0,0.0,0.0,0.0,0.0,0.0,0.0,0.0,0.0,0.0,0.0,0.0,0.0,0.0,0.0,0.0,0.0,0.0,0.0,0.0,0.0,0.0,0.0,0.0,0.0,0.0,0.0,0.0,0.0,0.0,0.0,0.0,0.0,0.0,0.0,0.0,0.0,0.0,0.0,0.0,0.0,0.0,0.0,0.0,0.0,0.0,0.0,0.0,0.0,0.0,0.0,0.0,0.0,0.0,0.0,0.0,0.0,0.0,0.0,0.0,0.0,0.0,0.0,0.0,0.0,0.0,0.0,0.0,0.0,0.0,0.0,0.0,0.0,0.0,0.0,0.0,0.0,0.0,0.0,0.0,0.0,0.0,0.0,0.0,0.0,0.0,0.0,0.0,0.0,0.0,0.0,0.0,0.0,0.0,0.0,0.0,0.0,0.0,0.0,0.0,0.0,0.0,0.0,0.0,0.0,0.0,0.0,0.0,0.0,0.0,0.0,0.0,0.0,0.0,0.0,0.0,0.0,0.0,0.0,0.0,0.0,0.0,0.0,0.0,0.0,0.0,0.0,0.0,0.0,0.0,0.0,0.0,0.0,0.0,0.0,0.0,0.0,0.0,0.0,0.0,0.0,0.0,0.0,0.0,0.0,0.0,0.0,0.0,0.0,0.0,0.0,0.0,0.0,0.0,0.0,0.0,0.0,0.0,0.0,0.0,0.0,0.0,0.0,0.0,0.0,0.0,0.0,0.0,0.0,0.0,0.0,0.0,0.0,0.0,0.0,0.0,0.0,0.0,0.0,0.0,0.0,0.0,0.0,0.0,0.0,0.0,0.0,0.0,0.0,0.0,0.0,0.0,0.0,0.0,0.0,0.0,0.0,0.0,0.0,0.0,0.0,0.0,0.0,0.0,0.0,0.0,0.0,0.0,0.0,0.0,0.0,0.0,0.0,0.0,0.0,0.0,0.0,0.0,0.0,0.0,0.0,0.0,0.0,0.0,0.0,0.0,0.0,0.0,0.0,0.0,0.0,0.0,0.0,0.0,0.0,0.0,0.0,0.0,0.0,0.0,0.0,0.0,0.0,0.0,0.0,0.0,0.0,0.0,0.0,0.0,0.0,0.0,0.0,0.0,0.0,0.0,0.0,0.0,0.0,0.0,0.0,0.0,0.0,0.0,0.0,0.0,0.0,0.0,0.0,0.0,0.0,0.0,0.0,0.0,0.0,0.0,0.0,0.0,0.0,0.0,0.0,0.0,0.0,0.0,0.0,0.0,0.0,0.0,0.0,0.0,0.0,0.0,0.0,0.0,0.0,0.0,0.0,0.0,0.0,0.0,0.0,0.0,0.0,0.0,0.0,0.0,0.0,0.0,0.0,0.0,0.0,0.0,0.0,0.0,0.0,0.0,0.0,0.0,0.0,0.0,0.0,0.0,0.0,0.0,0.0,0.0,0.0,0.0,0.0,0.0,0.0,0.0,0.0,0.0,0.0,0.0,0.0,0.0,0.0,0.0,0.0,0.0,0.0,0.0,0.0,0.0,0.0,0.0,0.0,0.0,0.0,0.0,0.0,-3.0816,0.0,0.0,0.0,0.0,0.0,0.0,0.0,0.0,0.0,0.0,0.0,0.0,0.0,0.0,0.0,0.0,0.0,0.0,0.0,0.0,0.0,0.0,0.0,0.0,0.0,0.0,0.0,0.0,0.0,0.0,0.0,0.0,0.0,0.0,0.0,0.0,0.0,0.0,0.0,0.0,0.0,0.0,0.0,0.0,0.0,0.0,0.0,0.0,0.0,0.0,0.0,0.0,0.0,0.0,0.0,0.0,0.0,0.0,0.0,0.0,0.0,0.0,0.0,0.0,0.0,0.0,0.0,0.0,0.0,0.0,0.0,0.0,0.0,0.0,0.0,0.0,0.0,0.0,0.0,0.0,0.0,0.0,0.0,0.0,0.0,0.0,0.0,0.0,0.0,0.0,0.0,0.0,0.0,0.0,0.0,0.0,0.0,0.0,0.0,0.0,0.0,0.0,0.0,0.0,0.0,0.0,0.0,0.0,0.0,0.0,-3.1624,-3.0803,-3.1637,-3.1683,-3.086,0.0,0.0,0.0,0.0,0.0,0.0,0.0,0.0,0.0,0.0,0.0,0.0,0.0,0.0,0.0,0.0,0.0,0.0,0.0,0.0,0.0,0.0,0.0,0.0,0.0,0.0,0.0,0.0,0.0,0.0,0.0,0.0,0.0,0.0,0.0,0.0,0.0,0.0,0.0,0.0,0.0,0.0,0.0,0.0,0.0,0.0,0.0,0.0,0.0,0.0,0.0,0.0,0.0,0.0,0.0,0.0,0.0,0.0,0.0,0.0,0.0,0.0,0.0,0.0,0.0,0.0,0.0,0.0,0.0,0.0,0.0,0.0,0.0,0.0,0.0,0.0,0.0,0.0,0.0,0.0,0.0,0.0,0.0,0.0,0.0,0.0,0.0,0.0,0.0,0.0,0.0,0.0,0.0,0.0,0.0,0.0,0.0,0.0,0.0,0.0,0.0,0.0,0.0,0.0,0.0,0.0,0.0,0.0,0.0,0.0,0.0,0.0,-3.2233,-3.2274,-3.141,0.0,0.0,0.0,0.0,0.0,0.0,0.0,0.0,0.0,0.0,0.0,0.0,0.0,0.0,0.0,0.0,0.0,0.0,0.0,0.0,0.0,0.0,0.0,0.0,0.0,0.0,0.0,0.0,0.0,0.0,0.0,0.0,0.0,0.0,0.0,0.0,0.0,0.0,0.0,0.0,0.0,0.0,0.0,0.0,0.0,0.0,0.0,0.0,0.0,0.0,0.0,0.0,0.0,0.0,0.0,0.0,0.0,0.0,0.0,0.0,0.0,0.0,0.0,0.0,0.0,0.0,0.0,0.0,0.0,0.0,0.0,0.0,0.0,0.0,0.0,0.0,0.0,0.0,0.0,0.0,0.0,0.0,0.0,0.0,0.0,0.0,0.0,0.0,0.0,0.0,0.0,0.0,0.0,0.0,0.0,0.0,0.0,0.0,0.0,0.0,0.0,0.0,0.0,0.0,0.0,0.0,0.0,0.0,0.0,0.0,-3.2435,-3.3137,-3.3969,0.0,-3.3182,0.0,0.0,0.0,0.0,0.0,0.0,0.0,0.0,0.0,0.0,0.0,0.0,0.0,0.0,0.0,0.0,0.0,0.0,0.0,0.0,0.0,0.0,0.0,0.0,0.0,0.0,0.0,0.0,0.0,0.0,0.0,0.0,0.0,0.0,0.0,0.0,0.0,0.0,0.0,0.0,0.0,0.0,0.0,0.0,0.0,0.0,0.0,0.0,0.0,0.0,0.0,0.0,0.0,0.0,0.0,0.0,0.0,0.0,0.0,0.0,0.0,0.0,0.0,0.0,0.0,0.0,0.0,0.0,0.0,0.0,0.0,0.0,0.0,0.0,0.0,0.0,0.0,0.0,0.0,0.0,0.0,0.0,0.0,0.0,0.0,0.0,0.0,0.0,0.0,0.0,0.0,0.0,0.0,0.0,0.0,0.0,0.0,0.0,0.0,0.0,0.0,0.0,0.0,0.0,0.0,0.0,0.0,0.0,0.0,0.0,-3.3572,-3.3386,-3.3743,-3.3782,0.0,0.0,0.0,0.0,0.0,0.0,0.0,0.0,0.0,0.0,0.0,0.0,0.0,0.0,0.0,0.0,0.0,0.0,0.0,0.0,0.0,0.0,0.0,0.0,0.0,0.0,0.0,0.0,0.0,0.0,0.0,0.0,0.0,0.0,0.0,0.0,0.0,0.0,0.0,0.0,0.0,0.0,0.0,0.0,0.0,0.0,0.0,0.0,0.0,0.0,0.0,0.0,0.0,0.0,0.0,0.0,0.0,0.0,0.0,0.0,0.0,0.0,0.0,0.0,0.0,0.0,0.0,0.0,0.0,0.0,0.0,0.0,0.0,0.0,0.0,0.0,0.0,0.0,0.0,0.0,0.0,0.0,0.0,0.0,0.0,0.0,0.0,0.0,0.0,0.0,0.0,0.0,0.0,0.0,0.0,0.0,0.0,0.0,0.0,0.0,0.0,0.0,0.0,0.0,0.0,0.0,0.0,0.0,0.0,0.0,-3.3616,-3.4289,-3.4103,-3.4103,-3.3908,-3.3399,0.0,0.0,0.0,0.0,0.0,0.0,0.0,0.0,0.0,0.0,0.0,0.0,0.0,0.0,0.0,0.0,0.0,0.0,0.0,0.0,0.0,0.0,0.0,0.0,0.0,0.0,0.0,0.0,0.0,0.0,0.0,0.0,0.0,0.0,0.0,0.0,0.0,0.0,0.0,0.0,0.0,0.0,0.0,0.0,0.0,0.0,0.0,0.0,0.0,0.0,0.0,0.0,0.0,0.0,0.0,0.0,0.0,0.0,0.0,0.0,0.0,0.0,0.0,0.0,0.0,0.0,0.0,0.0,0.0,0.0,0.0,0.0,0.0,0.0,0.0,0.0,0.0,0.0,0.0,0.0,0.0,0.0,0.0,0.0,0.0,0.0,0.0,0.0,0.0,0.0,0.0,0.0,0.0,0.0,0.0,0.0,0.0,0.0,0.0,0.0,0.0,0.0,0.0,0.0,0.0,0.0,0.0,0.0,-3.5364,-3.4216,-3.4267,-3.5835,-3.5875,-3.5092,0.0,0.0,0.0,0.0,0.0,0.0,0.0,0.0,0.0,0.0,0.0,0.0,0.0,0.0,0.0,0.0,0.0,0.0,0.0,0.0,0.0,0.0,0.0,0.0,0.0,0.0,0.0,0.0,0.0,0.0,0.0,0.0,0.0,0.0,0.0,0.0,0.0,0.0,0.0,0.0,0.0,0.0,0.0,0.0,0.0,0.0,0.0,0.0,0.0,0.0,0.0,0.0,0.0,0.0,0.0,0.0,0.0,0.0,0.0,0.0,0.0,0.0,0.0,0.0,0.0,0.0,0.0,0.0,0.0,0.0,0.0,0.0,0.0,0.0,0.0,0.0,0.0,0.0,0.0,0.0,0.0,0.0,0.0,0.0,0.0,0.0,0.0,0.0,0.0,0.0,0.0,0.0,0.0,0.0,0.0,0.0,0.0,0.0,0.0,0.0,0.0,0.0,0.0,0.0,0.0,0.0,0.0,0.0,0.0,-3.2576,-3.3134,-3.4781,-3.7438,-3.5525,-3.4314,0.0,0.0,0.0,0.0,0.0,0.0,0.0,0.0,0.0,0.0,0.0,0.0,0.0,0.0,0.0,0.0,0.0,0.0,0.0,0.0,0.0,0.0,0.0,0.0,0.0,0.0,0.0,0.0,0.0,0.0,0.0,0.0,0.0,0.0,0.0,0.0,0.0,0.0,0.0,0.0,0.0,0.0,0.0,0.0,0.0,0.0,0.0,0.0,0.0,0.0,0.0,0.0,0.0,0.0,0.0,0.0,0.0,0.0,0.0,0.0,0.0,0.0,0.0,0.0,0.0,0.0,0.0,0.0,0.0,0.0,0.0,0.0,0.0,0.0,0.0,0.0,0.0,0.0,0.0,0.0,0.0,0.0,0.0,0.0,0.0,0.0,0.0,0.0,0.0,0.0,0.0,0.0,0.0,0.0,0.0,0.0,0.0,0.0,0.0,0.0,0.0,0.0,0.0,0.0,0.0,0.0,0.0,0.0,0.0,-3.2903,0.0,-3.6345,-3.7947,-3.5642,-3.4001,0.0,0.0,0.0,0.0,0.0,0.0,0.0,0.0,0.0,0.0,0.0,0.0,0.0,0.0,0.0,0.0,0.0,0.0,0.0,0.0,0.0,0.0,0.0,0.0,0.0,0.0,0.0,0.0,0.0,0.0,0.0,0.0,0.0,0.0,0.0,0.0,0.0,0.0,0.0,0.0,0.0,0.0,0.0,0.0,0.0,0.0,0.0,0.0,0.0,0.0,0.0,0.0,0.0,0.0,0.0,0.0,0.0,0.0,0.0,0.0,0.0,0.0,0.0,0.0,0.0,0.0,0.0,0.0,0.0,0.0,0.0,0.0,0.0,0.0,0.0,0.0,0.0,0.0,0.0,0.0,0.0,0.0,0.0,0.0,0.0,0.0,0.0,0.0,0.0,0.0,0.0,0.0,0.0,0.0,0.0,0.0,0.0,0.0,0.0,0.0,0.0,0.0,0.0,0.0,0.0,0.0,0.0,0.0,-3.2973,-3.7009,-3.8687,-3.8765,-3.7399,-3.6383,-3.4353,0.0,0.0,0.0,0.0,0.0,0.0,0.0,0.0,0.0,0.0,0.0,0.0,0.0,0.0,0.0,0.0,0.0,0.0,0.0,0.0,0.0,0.0,0.0,0.0,0.0,0.0,0.0,0.0,0.0,0.0,0.0,0.0,0.0,0.0,0.0,0.0,0.0,0.0,0.0,0.0,0.0,0.0,0.0,0.0,0.0,0.0,0.0,0.0,0.0,0.0,0.0,0.0,0.0,0.0,0.0,0.0,0.0,0.0,0.0,0.0,0.0,0.0,0.0,0.0,0.0,0.0,0.0,0.0,0.0,0.0,0.0,0.0,0.0,0.0,0.0,0.0,0.0,0.0,0.0,0.0,0.0,0.0,0.0,0.0,0.0,0.0,0.0,0.0,0.0,0.0,0.0,0.0,0.0,0.0,0.0,0.0,0.0,0.0,0.0,0.0,0.0,0.0,0.0,0.0,0.0,0.0,0.0,0.0,0.0,-3.5525,-3.6578,-3.8063,-3.9702,-3.6189,-3.4275,0.0,0.0,0.0,0.0,0.0,0.0,0.0,0.0,0.0,0.0,0.0,0.0,0.0,0.0,0.0,0.0,0.0,0.0,0.0,0.0,0.0,0.0,0.0,0.0,0.0,0.0,0.0,0.0,0.0,0.0,0.0,0.0,0.0,0.0,0.0,0.0,0.0,0.0,0.0,0.0,0.0,0.0,0.0,0.0,0.0,0.0,0.0,0.0,0.0,0.0,0.0,0.0,0.0,0.0,0.0,0.0,0.0,0.0,0.0,0.0,0.0,0.0,0.0,0.0,0.0,0.0,0.0,0.0,0.0,0.0,0.0,0.0,0.0,0.0,0.0,0.0,0.0,0.0,0.0,0.0,0.0,0.0,0.0,0.0,0.0,0.0,0.0,0.0,0.0,0.0,0.0,0.0,0.0,0.0,0.0,0.0,0.0,0.0,0.0,0.0,0.0,0.0,0.0,0.0,0.0,0.0,0.0,0.0,0.0,-3.8075,-3.9497,-4.0872,-4.2046,-3.7985,-3.5524,-3.4977,0.0,0.0,0.0,0.0,0.0,0.0,0.0,0.0,0.0,0.0,0.0,0.0,0.0,0.0,0.0,0.0,0.0,0.0,0.0,0.0,0.0,0.0,0.0,0.0,0.0,0.0,0.0,0.0,0.0,0.0,0.0,0.0,0.0,0.0,0.0,0.0,0.0,0.0,0.0,0.0,0.0,0.0,0.0,0.0,0.0,0.0,0.0,0.0,0.0,0.0,0.0,0.0,0.0,0.0,0.0,0.0,0.0,0.0,0.0,0.0,0.0,0.0,0.0,0.0,0.0,0.0,0.0,0.0,0.0,0.0,0.0,0.0,0.0,0.0,0.0,0.0,0.0,0.0,0.0,0.0,0.0,0.0,0.0,0.0,0.0,0.0,0.0,0.0,0.0,0.0,0.0,0.0,0.0,0.0,0.0,0.0,0.0,0.0,0.0,0.0,0.0,0.0,0.0,0.0,0.0,0.0,0.0,0.0,-4.3665,-4.6465,-4.6687,-4.4153,-4.1342,-3.7946,0.0,0.0,0.0,0.0,0.0,0.0,0.0,0.0,0.0,0.0,0.0,0.0,0.0,0.0,0.0,0.0,0.0,0.0,0.0,0.0,0.0,0.0,0.0,0.0,0.0,0.0,0.0,0.0,0.0,0.0,0.0,0.0,0.0,0.0,0.0,0.0,0.0,0.0,0.0,0.0,0.0,0.0,0.0,0.0,0.0,0.0,0.0,0.0,0.0,0.0,0.0,0.0,0.0,0.0,0.0,0.0,0.0,0.0,0.0,0.0,0.0,0.0,0.0,0.0,0.0,0.0,0.0,0.0,0.0,0.0,0.0,0.0,0.0,0.0,0.0,0.0,0.0,0.0,0.0,0.0,0.0,0.0,0.0,0.0,0.0,0.0,0.0,0.0,0.0,0.0,0.0,0.0,0.0,0.0,0.0,0.0,0.0,0.0,0.0,0.0,0.0,0.0,0.0,0.0,0.0,0.0,0.0,0.0,0.0,-4.6339,-5.0169,-5.0982,-4.8406,-4.345,-3.9937,0.0,0.0,0.0,0.0,0.0,0.0,0.0,0.0,0.0,0.0,0.0,0.0,0.0,0.0,0.0,0.0,0.0,0.0,0.0,0.0,0.0,0.0,0.0,0.0,0.0,0.0,0.0,0.0,0.0,0.0,0.0,0.0,0.0,0.0,0.0,0.0,0.0,0.0,0.0,0.0,0.0,0.0,0.0,0.0,0.0,0.0,0.0,0.0,0.0,0.0,0.0,0.0,0.0,0.0,0.0,0.0,0.0,0.0,0.0,0.0,0.0,0.0,0.0,0.0,0.0,0.0,0.0,0.0,0.0,0.0,0.0,0.0,0.0,0.0,0.0,0.0,0.0,0.0,0.0,0.0,0.0,0.0,0.0,0.0,0.0,0.0,0.0,0.0,0.0,0.0,0.0,0.0,0.0,0.0,0.0,0.0,0.0,0.0,0.0,0.0,0.0,0.0,0.0,0.0,0.0,0.0,0.0,0.0,-4.436,-4.8222,-5.2863,-5.4315,-5.2146,-4.6683,-4.2494,0.0,0.0,0.0,0.0,0.0,0.0,0.0,0.0,0.0,0.0,0.0,0.0,0.0,0.0,0.0,0.0,0.0,0.0,0.0,0.0,0.0,0.0,0.0,0.0,0.0,0.0,0.0,0.0,0.0,0.0,0.0,0.0,0.0,0.0,0.0,0.0,0.0,0.0,0.0,0.0,0.0,0.0,0.0,0.0,0.0,0.0,0.0,0.0,0.0,0.0,0.0,0.0,0.0,0.0,0.0,0.0,0.0,0.0,0.0,0.0,0.0,0.0,0.0,0.0,0.0,0.0,0.0,0.0,0.0,0.0,0.0,0.0,0.0,0.0,0.0,0.0,0.0,0.0,0.0,0.0,0.0,0.0,0.0,0.0,0.0,0.0,0.0,0.0,0.0,0.0,0.0,0.0,0.0,0.0,0.0,0.0,0.0,0.0,0.0,0.0,0.0,0.0,0.0,0.0,0.0,0.0,0.0,0.0,-4.639,-4.9867,-5.4706,-5.6576,-5.5068,-5.0199,-4.518,0.0,0.0,0.0,0.0,0.0,0.0,0.0,0.0,0.0,0.0,0.0,0.0,0.0,0.0,0.0,0.0,0.0,0.0,0.0,0.0,0.0,0.0,0.0,0.0,0.0,0.0,0.0,0.0,0.0,0.0,0.0,0.0,0.0,0.0,0.0,0.0,0.0,0.0,0.0,0.0,0.0,0.0,0.0,0.0,0.0,0.0,0.0,0.0,0.0,0.0,0.0,0.0,0.0,0.0,0.0,0.0,0.0,0.0,0.0,0.0,0.0,0.0,0.0,0.0,0.0,0.0,0.0,0.0,0.0,0.0,0.0,0.0,0.0,0.0,0.0,0.0,0.0,0.0,0.0,0.0,0.0,0.0,0.0,0.0,0.0,0.0,0.0,0.0,0.0,0.0,0.0,0.0,0.0,0.0,0.0,0.0,0.0,0.0,0.0,0.0,0.0,0.0,0.0,0.0,0.0,0.0,0.0,0.0,-4.7712,-5.2357,-5.4946,-5.642,-5.6742,-5.1274,-4.6207,0.0,0.0,0.0,0.0,0.0,0.0,0.0,0.0,0.0,0.0,0.0,0.0,0.0,0.0,0.0,0.0,0.0,0.0,0.0,0.0,0.0,0.0,0.0,0.0,0.0,0.0,0.0,0.0,0.0,0.0,0.0,0.0,0.0,0.0,0.0,0.0,0.0,0.0,0.0,0.0,0.0,0.0,0.0,0.0,0.0,0.0,0.0,0.0,-3.0893,0.0,0.0,0.0,0.0,0.0,0.0,0.0,0.0,0.0,0.0,0.0,0.0,0.0,0.0,0.0,0.0,0.0,0.0,0.0,0.0,0.0,0.0,0.0,0.0,0.0,0.0,0.0,0.0,0.0,0.0,0.0,0.0,0.0,0.0,0.0,0.0,0.0,0.0,0.0,0.0,0.0,0.0,0.0,0.0,0.0,0.0,0.0,0.0,0.0,0.0,0.0,0.0,0.0,0.0,0.0,0.0,0.0,0.0,0.0,-4.8854,-5.3032,-5.5297,-5.6445,-5.6337,-5.2326,-4.7932,0.0,0.0,0.0,0.0,0.0,0.0,0.0,0.0,0.0,0.0,0.0,0.0,0.0,0.0,0.0,0.0,0.0,0.0,0.0,0.0,0.0,0.0,0.0,0.0,0.0,0.0,0.0,0.0,0.0,0.0,0.0,0.0,0.0,0.0,0.0,0.0,0.0,0.0,0.0,0.0,0.0,0.0,0.0,0.0,0.0,0.0,0.0,0.0,0.0,0.0,0.0,0.0,0.0,0.0,0.0,0.0,0.0,0.0,0.0,0.0,0.0,0.0,0.0,0.0,0.0,0.0,0.0,0.0,0.0,0.0,0.0,0.0,0.0,0.0,0.0,0.0,0.0,0.0,0.0,0.0,0.0,0.0,0.0,0.0,0.0,0.0,0.0,0.0,0.0,0.0,0.0,0.0,0.0,0.0,0.0,0.0,0.0,0.0,0.0,0.0,0.0,0.0,0.0,0.0,0.0,0.0,0.0,-4.5506,-4.9621,-5.3453,-5.5665,-5.6428,-5.5746,-5.3174,-4.9528,-4.4787,0.0,0.0,0.0,0.0,0.0,0.0,0.0,0.0,0.0,0.0,0.0,0.0,0.0,0.0,0.0,0.0,0.0,0.0,0.0,0.0,0.0,0.0,0.0,0.0,0.0,0.0,0.0,0.0,0.0,0.0,0.0,0.0,0.0,0.0,0.0,0.0,0.0,0.0,-2.9451,-3.0798,0.0,0.0,0.0,0.0,0.0,0.0,0.0,0.0,-3.2011,0.0,0.0,0.0,0.0,0.0,0.0,0.0,0.0,0.0,0.0,0.0,0.0,0.0,0.0,0.0,0.0,0.0,0.0,0.0,0.0,0.0,0.0,0.0,0.0,0.0,0.0,0.0,0.0,0.0,0.0,0.0,0.0,0.0,0.0,0.0,0.0,0.0,0.0,0.0,0.0,0.0,0.0,0.0,0.0,0.0,0.0,0.0,0.0,0.0,0.0,0.0,0.0,0.0,0.0,0.0,0.0,-4.5343,-4.5714,-4.9154,-5.5873,-5.5856,-5.5983,-5.6383,-5.3395,-4.9652,-4.5294,0.0,0.0,0.0,0.0,0.0,0.0,0.0,0.0,0.0,0.0,0.0,0.0,0.0,0.0,0.0,0.0,0.0,0.0,0.0,0.0,0.0,0.0,0.0,0.0,0.0,0.0,0.0,0.0,0.0,0.0,0.0,0.0,0.0,0.0,0.0,0.0,0.0,0.0,0.0,-3.2776,-3.2852,0.0,0.0,0.0,0.0,0.0,0.0,0.0,0.0,-3.2513,0.0,0.0,0.0,0.0,0.0,0.0,0.0,0.0,0.0,0.0,0.0,0.0,0.0,0.0,0.0,0.0,0.0,0.0,0.0,0.0,0.0,0.0,0.0,0.0,0.0,0.0,0.0,0.0,0.0,0.0,0.0,0.0,0.0,0.0,0.0,0.0,0.0,0.0,0.0,0.0,0.0,0.0,0.0,0.0,0.0,0.0,0.0,0.0,0.0,0.0,0.0,0.0,0.0,0.0,0.0,-4.4399,-4.7253,-5.1074,-5.581,-5.5679,-5.5449,-5.5324,-5.1725,-4.7903,0.0,0.0,0.0,0.0,0.0,0.0,0.0,0.0,0.0,0.0,0.0,0.0,0.0,0.0,0.0,0.0,0.0,0.0,0.0,0.0,0.0,0.0,0.0,0.0,0.0,0.0,0.0,0.0,0.0,0.0,0.0,0.0,0.0,0.0,0.0,0.0,0.0,0.0,0.0,0.0,-3.4647,-3.5144,-3.6413,0.0,0.0,0.0,0.0,0.0,0.0,-3.4282,-3.34,0.0,0.0,0.0,0.0,0.0,0.0,0.0,0.0,0.0,0.0,0.0,0.0,0.0,0.0,0.0,0.0,0.0,0.0,0.0,0.0,0.0,0.0,0.0,0.0,0.0,0.0,0.0,0.0,0.0,0.0,0.0,0.0,0.0,0.0,0.0,0.0,0.0,0.0,0.0,0.0,0.0,0.0,0.0,0.0,0.0,0.0,0.0,0.0,0.0,0.0,0.0,0.0,0.0,0.0,0.0,-4.2832,-4.8067,-5.2294,-5.5211,-5.5451,-5.508,-5.4152,-5.0248,-4.6477,0.0,0.0,0.0,0.0,0.0,0.0,0.0,0.0,0.0,0.0,0.0,0.0,0.0,0.0,0.0,0.0,0.0,0.0,0.0,0.0,0.0,0.0,0.0,0.0,0.0,0.0,0.0,0.0,0.0,0.0,0.0,0.0,0.0,0.0,0.0,0.0,0.0,0.0,0.0,0.0,0.0,-3.7474,-3.8782,-3.7181,0.0,0.0,0.0,0.0,-3.5561,-3.5832,0.0,0.0,0.0,0.0,0.0,0.0,0.0,0.0,0.0,0.0,0.0,0.0,0.0,0.0,0.0,0.0,0.0,0.0,0.0,0.0,0.0,0.0,0.0,0.0,0.0,0.0,0.0,0.0,0.0,0.0,0.0,0.0,0.0,0.0,0.0,0.0,0.0,0.0,0.0,0.0,0.0,0.0,0.0,0.0,0.0,0.0,0.0,0.0,0.0,0.0,0.0,0.0,0.0,0.0,0.0,0.0,-4.2698,-4.6083,-5.0253,-5.5084,-5.5416,-5.4995,-5.4078,-5.0753,-4.7008,0.0,0.0,0.0,0.0,0.0,0.0,0.0,0.0,0.0,0.0,0.0,0.0,0.0,0.0,0.0,0.0,0.0,0.0,0.0,0.0,0.0,0.0,0.0,0.0,0.0,0.0,0.0,0.0,0.0,0.0,0.0,0.0,0.0,0.0,0.0,0.0,0.0,0.0,0.0,0.0,0.0,-3.8782,-3.8973,-3.8202,-3.7247,0.0,0.0,-3.9073,-4.0589,-4.1409,0.0,0.0,0.0,0.0,0.0,0.0,0.0,0.0,0.0,0.0,0.0,0.0,0.0,0.0,0.0,0.0,0.0,0.0,0.0,0.0,0.0,0.0,0.0,0.0,0.0,0.0,0.0,0.0,0.0,0.0,0.0,0.0,0.0,0.0,0.0,0.0,0.0,0.0,0.0,0.0,0.0,0.0,0.0,0.0,0.0,0.0,0.0,0.0,0.0,0.0,0.0,0.0,0.0,0.0,0.0,-3.8742,-4.2812,-4.7174,-5.1368,-5.5237,-5.539,-5.4753,-5.3378,-4.9032,-4.5044,0.0,0.0,0.0,0.0,0.0,0.0,0.0,0.0,0.0,0.0,0.0,0.0,0.0,0.0,0.0,0.0,0.0,0.0,0.0,0.0,0.0,0.0,0.0,0.0,0.0,0.0,0.0,0.0,0.0,0.0,0.0,0.0,0.0,0.0,0.0,0.0,0.0,0.0,0.0,0.0,0.0,0.0,-4.0253,-3.9633,0.0,0.0,0.0,-4.0488,-4.0321,0.0,0.0,0.0,0.0,0.0,0.0,0.0,0.0,0.0,0.0,0.0,0.0,0.0,0.0,0.0,0.0,0.0,0.0,0.0,0.0,0.0,0.0,0.0,0.0,0.0,0.0,0.0,0.0,0.0,0.0,0.0,0.0,0.0,0.0,0.0,0.0,0.0,0.0,0.0,0.0,0.0,0.0,0.0,0.0,0.0,0.0,0.0,0.0,0.0,0.0,0.0,0.0,0.0,0.0,0.0,0.0,0.0,-4.2292,-4.7891,-5.2067,-5.4638,-5.4728,-5.403,-5.2433,-4.7819,0.0,0.0,0.0,0.0,0.0,0.0,0.0,0.0,0.0,0.0,0.0,0.0,0.0,0.0,0.0,0.0,0.0,0.0,0.0,0.0,0.0,0.0,0.0,0.0,0.0,0.0,0.0,-2.0428,0.0,0.0,0.0,0.0,0.0,0.0,0.0,0.0,0.0,0.0,0.0,0.0,0.0,0.0,-3.9467,-4.1085,-4.0826,-4.0961,0.0,0.0,-4.1724,-4.0888,-4.2932,-4.3026,0.0,0.0,0.0,0.0,0.0,0.0,0.0,0.0,0.0,0.0,0.0,0.0,0.0,0.0,0.0,0.0,0.0,0.0,0.0,0.0,0.0,0.0,0.0,0.0,0.0,0.0,0.0,0.0,0.0,0.0,0.0,0.0,0.0,0.0,0.0,0.0,0.0,0.0,0.0,0.0,0.0,0.0,0.0,0.0,0.0,0.0,0.0,0.0,0.0,0.0,0.0,0.0,0.0,0.0,-3.7856,-4.0827,-4.6785,-5.0839,-5.2813,-5.2868,-5.2456,-5.1578,-4.8268,-4.4242,0.0,0.0,0.0,0.0,0.0,0.0,0.0,0.0,0.0,0.0,0.0,0.0,0.0,0.0,0.0,0.0,0.0,0.0,0.0,0.0,0.0,0.0,0.0,0.0,0.0,0.0,0.0,0.0,0.0,0.0,0.0,0.0,0.0,0.0,0.0,0.0,0.0,0.0,0.0,0.0,0.0,-3.9989,-4.0641,-4.1588,-4.2762,0.0,-4.3562,-4.333,-4.4815,-4.7175,-4.6944,-4.1162,0.0,0.0,0.0,0.0,0.0,0.0,0.0,0.0,0.0,0.0,0.0,0.0,0.0,0.0,0.0,0.0,0.0,0.0,0.0,0.0,0.0,0.0,0.0,0.0,0.0,0.0,0.0,0.0,0.0,0.0,0.0,0.0,0.0,0.0,0.0,0.0,0.0,0.0,0.0,0.0,0.0,0.0,0.0,0.0,0.0,0.0,0.0,0.0,0.0,0.0,0.0,0.0,0.0,-3.7082,-4.0534,-4.5683,-4.9486,-5.1847,-5.1939,-5.1602,-5.0783,-4.7893,-4.4101,0.0,0.0,0.0,0.0,0.0,0.0,0.0,0.0,0.0,0.0,0.0,0.0,0.0,0.0,0.0,0.0,0.0,0.0,0.0,0.0,0.0,0.0,0.0,0.0,0.0,0.0,0.0,0.0,-2.524,-2.5586,-2.5405,0.0,0.0,0.0,0.0,0.0,0.0,0.0,0.0,0.0,0.0,-3.9013,-4.2401,-4.2302,0.0,0.0,-4.4015,-4.3663,-4.4509,-4.4614,-4.3316,-3.95,-3.6647,0.0,0.0,0.0,0.0,0.0,0.0,0.0,0.0,0.0,0.0,0.0,0.0,0.0,0.0,0.0,0.0,0.0,0.0,0.0,0.0,0.0,0.0,0.0,0.0,0.0,0.0,0.0,0.0,0.0,0.0,0.0,0.0,0.0,0.0,0.0,0.0,0.0,0.0,0.0,0.0,0.0,0.0,0.0,0.0,0.0,0.0,0.0,0.0,0.0,0.0,0.0,0.0,-3.6186,-3.9828,-4.4643,-4.8311,-5.0657,-5.0731,-5.0453,-4.9842,-4.7333,-4.3942,0.0,0.0,0.0,0.0,0.0,0.0,0.0,0.0,0.0,0.0,0.0,0.0,0.0,0.0,0.0,0.0,0.0,0.0,0.0,0.0,0.0,0.0,0.0,0.0,0.0,0.0,0.0,0.0,-2.6512,-2.6355,-2.557,0.0,0.0,0.0,0.0,0.0,0.0,0.0,0.0,0.0,0.0,-3.8748,-4.2999,-4.2485,-4.2282,-4.4058,-4.3415,-4.2945,-4.3647,-4.2811,-4.1204,-3.8708,0.0,0.0,0.0,0.0,0.0,0.0,0.0,0.0,0.0,0.0,0.0,0.0,0.0,0.0,0.0,0.0,0.0,0.0,0.0,0.0,0.0,0.0,0.0,0.0,0.0,0.0,0.0,-2.6285,0.0,0.0,-2.6236,0.0,0.0,0.0,0.0,0.0,0.0,0.0,0.0,0.0,0.0,0.0,0.0,0.0,0.0,0.0,0.0,0.0,0.0,0.0,0.0,0.0,0.0,-3.5105,-3.838,-4.3756,-4.7306,-4.8901,-4.8952,-4.8959,-4.8865,-4.6561,-4.3809,-4.056,0.0,0.0,0.0,0.0,0.0,0.0,0.0,0.0,0.0,0.0,0.0,0.0,0.0,0.0,0.0,0.0,0.0,0.0,0.0,0.0,0.0,0.0,0.0,0.0,0.0,0.0,-2.6186,-2.5497,-2.4773,0.0,0.0,0.0,0.0,0.0,0.0,0.0,0.0,0.0,-3.3582,-3.6643,-3.9562,-4.1799,-4.1987,-4.2163,-4.3042,-4.1629,-4.1079,-4.2698,-4.2867,-4.2104,0.0,0.0,0.0,0.0,0.0,0.0,0.0,0.0,0.0,0.0,0.0,0.0,0.0,0.0,0.0,0.0,0.0,0.0,0.0,0.0,0.0,0.0,0.0,0.0,0.0,0.0,0.0,-2.8866,-2.8265,0.0,0.0,0.0,0.0,0.0,0.0,0.0,0.0,0.0,0.0,0.0,-3.3515,-3.4508,0.0,0.0,0.0,0.0,0.0,0.0,0.0,0.0,0.0,0.0,0.0,0.0,-3.5546,-3.8316,-4.3191,-4.6468,-4.8061,-4.8076,-4.7844,-4.7301,-4.5997,-4.3082,-3.8333,0.0,0.0,0.0,0.0,0.0,0.0,0.0,0.0,0.0,0.0,0.0,0.0,0.0,0.0,0.0,0.0,0.0,0.0,0.0,0.0,0.0,0.0,0.0,0.0,0.0,-2.6186,0.0,0.0,0.0,0.0,0.0,0.0,0.0,0.0,0.0,0.0,0.0,-3.2135,-3.5608,-3.7021,-3.8428,-4.0301,-4.102,-4.1504,0.0,0.0,0.0,0.0,0.0,0.0,0.0,0.0,0.0,0.0,0.0,0.0,0.0,0.0,-3.4634,-3.1354,-3.0763,-3.0804,-3.0816,0.0,0.0,0.0,0.0,0.0,0.0,0.0,0.0,0.0,0.0,0.0,0.0,0.0,0.0,-3.0685,-3.0253,-3.0253,0.0,0.0,0.0,0.0,0.0,0.0,0.0,0.0,-3.4523,-3.6065,-3.6071,-3.7081,-3.7158,0.0,-3.6209,-3.4172,0.0,0.0,0.0,0.0,0.0,0.0,0.0,0.0,-3.5812,-3.8418,-4.2934,-4.6069,-4.7591,-4.7409,-4.699,-4.6442,-4.51,-4.239,-3.8253,-3.5127,-3.2675,0.0,0.0,0.0,0.0,0.0,0.0,0.0,0.0,0.0,0.0,0.0,0.0,0.0,0.0,0.0,0.0,0.0,0.0,0.0,0.0,0.0,0.0,0.0,-2.7074,0.0,0.0,0.0,0.0,0.0,0.0,0.0,0.0,0.0,-3.0186,-3.1429,-3.3582,-3.7103,-3.7838,-3.8339,-3.9191,0.0,0.0,0.0,0.0,0.0,0.0,0.0,-3.8018,-3.7764,-3.7232,-3.7005,-3.7639,-3.8613,-3.9042,-3.8359,0.0,0.0,-3.4503,-3.3978,-3.4204,-3.4217,-3.4475,-3.4486,-3.3984,-3.4339,-3.4499,0.0,0.0,0.0,0.0,0.0,0.0,0.0,0.0,-3.2458,-3.2428,0.0,-3.2338,0.0,0.0,0.0,0.0,-2.999,-3.3907,0.0,0.0,-3.9686,-4.1352,-3.946,-3.9481,-3.9448,-3.9381,-3.8718,-3.7419,-3.5554,-3.316,0.0,0.0,0.0,0.0,0.0,0.0,-3.5938,-3.8662,-4.2972,-4.6008,-4.747,-4.6819,-4.6344,-4.6059,-4.3832,-4.1796,-4.0161,-3.7483,-3.4977,-3.268,-3.0313,0.0,0.0,0.0,0.0,0.0,0.0,0.0,0.0,0.0,0.0,0.0,0.0,0.0,0.0,0.0,0.0,0.0,0.0,0.0,0.0,-2.8511,0.0,0.0,0.0,0.0,0.0,0.0,0.0,0.0,0.0,0.0,-3.122,-3.3176,-3.5457,-3.7756,0.0,0.0,0.0,0.0,-3.9686,-3.8201,-3.7555,-3.7295,-3.737,-3.8549,-3.9263,-3.8536,0.0,0.0,-4.023,-3.9965,-3.984,-3.927,-4.0577,-4.0863,-3.8385,-3.7285,-3.6826,-3.6788,-3.6272,-3.5703,-3.5685,-3.5923,-3.5685,-3.7503,0.0,0.0,0.0,0.0,-3.4963,-3.5644,-3.7218,-3.6703,-3.5917,-3.5045,-3.5076,0.0,0.0,0.0,0.0,0.0,0.0,-3.5109,-3.59,-3.9704,-4.1709,-4.2098,-4.2832,-4.2866,-4.2369,-4.164,-4.047,-3.9002,-3.8262,-3.49,-2.9134,0.0,0.0,0.0,0.0,-3.6529,-3.9433,-4.2422,-4.4459,-4.547,-4.5235,-4.46,-4.3449,-4.2185,-4.1051,-4.0024,-3.8146,-3.6297,-3.446,-3.1742,0.0,0.0,0.0,0.0,0.0,0.0,0.0,0.0,0.0,0.0,0.0,0.0,0.0,0.0,0.0,0.0,0.0,0.0,0.0,-2.69,-2.7972,-2.7732,0.0,0.0,0.0,0.0,0.0,0.0,0.0,0.0,0.0,-3.4971,-3.4842,-3.4857,0.0,0.0,-3.6474,-3.5214,-3.7338,-3.8949,-3.8516,-3.9305,0.0,-4.0732,-4.0354,-4.0109,-4.0496,-4.1781,-4.2605,-4.2246,-4.2686,-4.2926,-4.2367,-4.2677,-4.2656,-4.1638,-4.0746,-4.004,-3.9591,-3.9637,-3.9692,-3.9231,-3.95,-3.9838,-4.0978,-3.9433,-3.7375,-3.7119,-3.8074,-3.7443,-3.8118,-3.9587,-3.9129,-3.8502,-3.7758,-3.7758,-3.642,-3.4122,-3.3629,0.0,0.0,0.0,-3.706,-3.8218,-4.0631,-4.2424,-4.3553,-4.4172,-4.4289,-4.3908,-4.3476,-4.2547,-4.121,-4.0674,-3.7878,-3.31,0.0,0.0,-3.156,-3.4881,-3.7724,-3.9996,-4.2528,-4.4098,-4.4565,-4.3959,-4.303,-4.1789,-4.1233,-4.0735,-4.0262,-3.8905,-3.7416,-3.586,-3.323,-3.0893,0.0,0.0,0.0,0.0,0.0,0.0,0.0,0.0,0.0,0.0,0.0,-2.1789,-1.9905,0.0,0.0,0.0,-2.5132,-2.7068,-2.7714,-2.8286,0.0,0.0,0.0,0.0,0.0,0.0,0.0,-3.111,-3.3008,-3.4917,-3.6892,-3.6519,-3.627,-3.6919,-3.7455,-3.7264,-3.5739,0.0,-3.9374,-3.9124,-3.991,-4.0732,-4.1258,-4.1183,-4.1292,-4.2158,-4.2811,-4.329,-4.3445,-4.3899,-4.4163,-4.4007,-4.4007,-4.3888,-4.3238,-4.2822,-4.2364,-4.1604,-4.1562,-4.1626,-4.1476,-4.1676,-4.1868,-4.366,-4.2744,-3.8911,-3.8168,-3.9437,-3.9002,-3.9372,-4.0234,-4.0263,-4.0205,-4.0176,-4.0176,-3.9115,-3.7278,-3.6118,0.0,-3.7777,-3.9096,-4.0109,-4.0891,-4.2227,-4.3286,-4.4045,-4.4084,-4.4169,-4.4386,-4.432,-4.3687,-4.2543,-4.1248,-3.9857,-3.8368,-3.7367,-3.615,-3.4935,-3.7352,-3.9238,-4.0508,-4.2959,-4.4237,-4.4218,-4.2698,-4.1518,-4.0711,-4.0627,-4.058,-4.0453,-3.9326,-3.8034,-3.6671,-3.4484,-3.2259,-3.0003,0.0,0.0,0.0,0.0,0.0,0.0,0.0,0.0,0.0,0.0,0.0,0.0,0.0,0.0,0.0,-2.7776,0.0,-2.953,-2.9307,0.0,0.0,0.0,-2.8919,-2.961,-3.1182,-3.2762,-3.4191,0.0,0.0,-3.7574,-3.8079,-3.89,-4.0474,-4.0563,-3.9979,-3.8489,-3.9647,-4.0569,-3.9886,-3.9939,-4.0081,-4.0618,-4.1532,-4.2577,-4.3238,-4.3497,-4.3577,-4.3839,-4.3902,-4.4042,-4.4261,-4.4585,-4.4549,-4.3841,-4.3907,-4.3874,-4.313,-4.245,-4.215,-4.2693,-4.2441,-4.2305,-4.4298,-4.3631,-4.2146,-4.1511,-4.1445,-4.1284,-4.1378,-4.1628,-4.1628,-4.1337,-4.0873,-4.0844,-4.0313,-3.9361,-3.9044,-3.914,-3.9534,-4.0332,-4.0842,-4.1116,-4.2617,-4.3465,-4.3662,-4.3842,-4.4028,-4.4135,-4.3588,-4.3232,-4.2942,-4.2613,-4.149,-3.9693,-3.9373,-3.8612,-3.7386,-3.853,-4.006,-4.1988,-4.2088,-4.1902,-4.1386,-4.0426,-3.9595,-3.8866,-3.884,-3.8547,-3.8003,-3.7144,-3.627,-3.5338,-3.3739,-3.2107,-3.0414,-2.7514,0.0,0.0,0.0,0.0,0.0,0.0,0.0,0.0,0.0,-2.3917,-2.1373,0.0,-2.5931,0.0,-2.8229,-3.0289,-3.0749,-3.1151,0.0,0.0,-3.1321,-3.1648,-3.1301,-3.342,-3.4905,-3.4761,-3.6105,-3.763,-3.9067,-3.9347,-4.0144,-4.2012,-4.0292,-3.8693,-3.8445,-3.9703,-4.0683,-4.0746,-4.1657,-4.2514,-4.2563,-4.2927,-4.324,-4.3461,-4.3497,-4.3549,-4.358,-4.3634,-4.3714,-4.4011,-4.4322,-4.4471,-4.4474,-4.4771,-4.4885,-4.4687,-4.4077,-4.336,-4.3023,-4.3298,-4.3709,-4.4656,-4.405,-4.3675,-4.3055,-4.2302,-4.2167,-4.2092,-4.2092,-4.2092,-4.1889,-4.1541,-4.1541,-4.1337,-4.0989,-4.0989,-4.0989,-4.1018,-4.1366,-4.1541,-4.1581,-4.2441,-4.3071,-4.3437,-4.3556,-4.371,-4.3913,-4.322,-4.2766,-4.2558,-4.2588,-4.203,-4.0954,-4.1282,-4.1095,-4.0358,-3.934,-3.9421,-4.058,-4.0514,-4.058,-4.0812,-3.9846,-3.8758,-3.7739,-3.7731,-3.7201,-3.6141,-3.5413,-3.4684,-3.3922,-3.2497,-3.1205,-3.0059,-2.7576,-2.5854,0.0,0.0,0.0,0.0,0.0,0.0,0.0,0.0,0.0,0.0,0.0,-2.7281,-2.705,-2.9728,-3.1577,-3.185,-3.2521,-3.2868,-3.2823,-3.3676,-3.4105,-3.3694,-3.5629,-3.6871,-3.6512,-3.7832,-3.911,-4.0044,-4.039,-4.0958,-4.2134,-4.0951,-4.0113,-4.0399,-4.1179,-4.1723,-4.1921,-4.2685,-4.3323,-4.3428,-4.3445,-4.3463,-4.3497,-4.3497,-4.3497,-4.3497,-4.3497,-4.3546,-4.3783,-4.3996,-4.4265,-4.4411,-4.4801,-4.5076,-4.5022,-4.4853,-4.4373,-4.3618,-4.3541,-4.3731,-4.4795,-4.431,-4.4224,-4.3627,-4.2783,-4.2331,-4.2138,-4.2092,-4.2092,-4.2092,-4.2092,-4.2092,-4.2092,-4.2092,-4.2092,-4.2092,-4.2092,-4.2092,-4.2092,-4.2092,-4.2092,-4.2474,-4.314,-4.314,-4.3232,-4.334,-4.2798,-4.2195,-4.1731,-4.1778,-4.1724,-4.1565,-4.2231,-4.2476,-4.2304,-3.9555,-3.8335,-3.8679,-3.9063,-3.9791,-4.0889,-3.9487,-3.8089,-3.6771,-3.6671,-3.6009,-3.4551,-3.3955,-3.3282,-3.2431,-3.1283,-3.029,-2.9582,-2.7675,-2.6318,0.0,-2.4332,0.0,0.0,0.0,0.0,0.0,0.0,0.0,0.0,-2.8044,-2.9185,-2.9761,-3.1835,-3.3116,-3.3116,-3.3789,-3.4485,-3.5114,-3.5843,-3.6274,-3.634,-3.7627,-3.8561,-3.8561,-3.9697,-4.048,-4.0614,-4.1094,-4.1375,-4.1552,-4.1845,-4.2092,-4.2621,-4.2718,-4.283,-4.3086,-4.3104,-4.3215,-4.3304,-4.3376,-4.3412,-4.3463,-4.348,-4.3497,-4.3497,-4.3497,-4.3515,-4.3549,-4.3779,-4.4002,-4.4023,-4.4435,-4.4726,-4.4751,-4.4943,-4.4902,-4.421,-4.3714,-4.3436,-4.5052,-4.4881,-4.4395,-4.4097,-4.3783,-4.2711,-4.2221,-4.2092,-4.2092,-4.2092,-4.2092,-4.2092,-4.2092,-4.2092,-4.2092,-4.2092,-4.2092,-4.2092,-4.2092,-4.2092,-4.2092,-4.2175,-4.231,-4.231,-4.2079,-4.1693,-4.155,-4.1225,-4.067,-4.0718,-4.02,-3.9209,-3.9308,-3.9156,-3.8745,0.0,0.0,0.0,-3.9803,-3.8902,-3.8506,-3.6721,-3.5313,-3.4452,-3.4419,0.0,-3.2343,-3.2663,-3.2299,-3.104,-3.1217,0.0,0.0,0.0,0.0,0.0,0.0,0.0,0.0,0.0,0.0,0.0,-2.9865,-2.9152,-2.8867,-3.0675,-3.1956,-3.2122,-3.4087,-3.5379,-3.5379,-3.6042,-3.6539,-3.6679,-3.7367,-3.7772,-3.7831,-3.869,-3.9301,-3.9301,-3.9662,-4.0079,-4.0549,-4.072,-4.0955,-4.1423,-4.1888,-4.2216,-4.2297,-4.2635,-4.2956,-4.3086,-4.3141,-4.3178,-4.3233,-4.3233,-4.3286,-4.3358,-4.3393,-4.3428,-4.348,-4.3497,-4.3497,-4.3515,-4.3763,-4.4008,-4.4008,-4.4265,-4.4465,-4.4479,-4.4688,-4.4741,-4.4177,-4.4488,-4.4757,-4.4769,-4.4741,-4.4429,-4.4209,0.0,-4.2991,-4.2424,-4.2192,-4.1875,-4.1814,-4.1897,-4.1897,-4.198,-4.2092,-4.2092,-4.2092,-4.2092,-4.2092,-4.2092,-4.2092,-4.2092,-4.2092,-4.2092,-4.2092,-4.1919,-4.1617,-4.0939,-4.052,-4.021,-3.9979,-3.9525,-3.8892,-3.9232,-3.9491,-3.9595,-3.9934,-4.0582,-4.1511,-4.0127,-3.9429,-3.9391,-3.8064,-3.6642,-3.5251,-3.4856,0.0,0.0,0.0,0.0,0.0,0.0,0.0,0.0,0.0,0.0,-2.9741,-2.9371,-2.9645,-3.0695,-3.0433,-3.1166,-3.3266,-3.3501,-3.3133,-3.2177,-3.3491,-3.4485,-3.4883,-3.6241,-3.7077,-3.7135,-3.7731,-3.8221,-3.8195,-3.8526,-3.8758,-3.8818,-3.9136,-3.9528,-3.9854,-3.9727,-3.9964,-4.1017,-4.0875,-4.0848,-4.1209,-4.165,-4.1853,-4.1657,-4.2338,-4.2937,-4.2994,-4.2995,-4.3087,-4.3123,-4.3178,-4.3178,-4.3287,-4.3286,-4.3359,-4.3428,-4.3428,-4.3445,-4.3497,-4.3667,-4.373,-4.38,-4.398,-4.4192,-4.4236,-4.4397,-4.4222,-4.3449,-4.3965,-4.4335,-4.4425,-4.4425,-4.4425,-4.4208,-4.3856,-4.3234,-4.2688,-4.2152,0.0,0.0,0.0,-4.166,-4.1744,-4.1968,-4.1968,-4.2009,-4.2051,-4.2051,-4.2051,-4.2092,-4.2092,-4.2092,-4.2092,-4.2092,-4.2034,-4.186,-4.0815,-4.0176,-3.9925,-3.9483,-3.9222,-3.9175,-3.9748,-4.0382,-4.1095,-4.1819,-4.1786,-4.0901,-4.0225,-4.014,-4.0692,-3.9678,-3.8264,-3.6437,-3.5774,-3.4767,-3.3434,-3.2387,-3.171,-3.1579,-3.1122,-3.0893,-3.0893,-3.086,-3.0925,-3.1056,-3.1034,-3.1622,-3.2943,-3.305,-3.3868,-3.5822,-3.6574,-3.6448,-3.5283,-3.5869,-3.6588,-3.7184,-3.7911,-3.8368,-3.8394,-3.8891,-3.9315,-3.9315,-3.9315,-3.9348,-3.9481,-3.9481,-3.9812,-4.0376,-4.0159,-4.0274,-4.1433,-4.1136,-4.0883,-4.1163,-4.1486,-4.1587,-4.1336,-4.2079,-4.2749,-4.2749,-4.2825,-4.2939,-4.3012,-4.3067,-4.3087,-4.316,-4.3178,-4.3214,-4.3341,-4.3376,-4.3412,-4.3463,-4.348,-4.3497,-4.3532,-4.3714,-4.3855,-4.3722,-4.3908,-4.3694,-4.2636,-4.3077,-4.3378,-4.4425,-4.4425,-4.4425,-4.4369,-4.4275,-4.3684,-4.2756,-4.1674,-4.1483,-4.1396,-4.1438,-4.1438,-4.148,-4.148,-4.148,-4.1606,-4.1744,-4.1744,-4.1897,-4.2092,-4.2092,-4.2092,-4.2092,-4.2092,-4.1802,-4.125,-4.1018,-4.0379,-3.9421,-3.9246,-3.8906,-3.8448,-3.8435,-3.8884,-3.9576,-4.0347,-4.0631,-4.0482,-3.9962,-3.9707,-3.974,-3.7377,-3.5985,-3.5658,-3.5037,-3.4252,-3.3434,-3.3794,-3.3728,-3.3139,-3.3597,-3.3892,-3.3892,-3.3859,-3.4153,-3.4775,-3.4708,-3.5067,-3.5887,-3.5883,-3.6307,-3.732,-3.7965,-3.7769,-3.6521,-3.7039,-3.7584,-3.7854,-3.8506,-3.8956,-3.9123,-3.9282,-3.9348,-3.9348,-3.9348,-3.9547,-4.0177,-4.0243,-4.0509,-4.1177,-4.121,-4.1227,-4.1643,-4.1166,-4.1015,-4.154,-4.1602,-4.1626,-4.1916,-4.2228,-4.2292,-4.2358,-4.2635,-4.2863,-4.2882,-4.2901,-4.2975,-4.3104,-4.3123,-4.3123,-4.3214,-4.3233,-4.3269,-4.3412,-4.3429,-4.341,-4.3407,-4.3532,-4.3269,-4.2807,-4.286,-4.2642,-4.1894,-4.2592,-4.2911,-4.3539,-4.3586,-4.4162,-4.4425,-4.434,-4.3413,-4.2486,-4.1587,-4.1184,-4.1071,-4.1198,-4.1198,-4.1283,-4.1396,-4.1396,-4.1438,-4.1535,-4.1564,-4.1606,-4.1718,-4.1731,-4.1773,-4.1897,-4.1897,-4.1794,-4.1628,-4.125,-4.0786,-4.0205,-3.9538,-3.9044,-3.8763,-3.8759,-3.8957,-3.932,-4.0034,-4.0416,-4.0416,-4.0156,-3.9882,-3.9472,-3.7923,-3.6909,-3.6532,-3.5851,-3.531,-3.4958,-3.5331,-3.5324,-3.4998,-3.5291,-3.5454,-3.5454,-3.5136,-3.508,-3.5401,-3.5022,-3.5114,-3.5859,-3.6529,-3.711,-3.7516,-3.8125,-3.8261,-3.766,-3.8019,-3.8324,-3.8438,-3.8794,-3.9204,-3.9682,-3.9857,-4.0044,-4.0382,-4.0448,-4.058,-4.0845,-4.0945,-4.1243,-4.1811,-4.1645,-4.174,-4.2622,-4.209,-4.1782,-4.2183,-4.1708,-4.1307,-4.1485,-4.1416,-4.1477,-4.176,-4.2015,-4.2257,-4.2458,-4.2518,-4.2671,-4.2937,-4.2994,-4.3031,-4.3105,-4.316,-4.3215,-4.3251,-4.3286,-4.3122,-4.2845,-4.277,-4.2568,-4.2382,-4.1965,-4.181,-4.2069,-4.2384,-4.2284,-4.2452,-4.2501,-4.33,-4.3804,-4.3929,-4.2757,-4.2038,-4.1783,-4.1025,-4.0773,-4.0916,-4.0916,-4.1029,-4.1227,-4.1227,-4.1269,-4.1283,-4.1311,-4.1325,-4.1396,-4.1396,-4.148,-4.1619,-4.1619,-4.1731,-4.1868,-4.1406,-4.1088,-4.0828,-3.9931,-3.9295,-3.9083,-3.9017,-3.8994,-3.8994,-3.9606,-3.9894,-3.9894,-3.9894,-3.9791,-3.961,-3.8967,-3.8323,-3.7615,-3.6938,-3.6487,-3.6328,-3.6317,-3.6346,-3.6313,-3.6346,-3.6313,-3.6286,-3.5834,-3.5545,-3.5517,-3.5081,-3.5,-3.5522,-3.6564,-3.7241,-3.7398,-3.7846,-3.8235,-3.8363,-3.8438,-3.8655,-3.8939,-3.9111,-3.9489,-4.017,-4.0418,-4.0762,-4.1291,-4.1324,-4.1385,-4.1612,-4.1674,-4.1939,-4.2535,-4.2208,-4.2373,-4.3135,-4.2969,-4.2431,-4.2147,-4.1582,-4.103,-4.0809,-4.0578,-4.0645,-4.1001,-4.1286,-4.1652,-4.1973,-4.2035,-4.2257,-4.2691,-4.2749,-4.2806,-4.2956,-4.3067,-4.3104,-4.316,-4.3178,-4.3014,-4.2412,-4.221,-4.2116,-4.184,-4.1432,-4.1385,-4.229,-4.2575,-4.2401,-4.1369,-4.1369,-4.1518,-4.2061,-4.2801,-4.1684,-4.1627,-4.2228,-4.1221,-4.0716,-4.073,-4.073,-4.073,-4.0773,-4.0801,-4.0901,-4.1043,-4.1043,-4.1156,-4.1354,-4.1396,-4.1396,-4.1438,-4.1438,-4.1438,-4.1451,-4.1365,-4.0993,-4.0506,-4.0335,-3.9693,-3.8635,-3.8208,-3.8081,-3.8052,-3.8315,-3.8397,-3.8397,-3.8427,-3.9037,-4.019,-3.9674,-3.8998,-3.8323,-3.7647,-3.7001,-3.6415,-3.6384,-3.6383,-3.6383,-3.6383,-3.6383,-3.6383,-3.6322,-3.6261,-3.6261,-3.6199,-3.623,-3.6292,-3.6415,-3.6785,-3.734,-3.7497,-3.7776,-3.8206,-3.7869,-3.815,-3.9201,-3.9581,-3.9928,-4.0791,-4.0918,-4.107,-4.135,-4.1346,-4.1535,-4.2212,-4.2373,-4.2671,-4.34,-4.33,-4.3466,-4.3466,-4.3002,-4.2336,-4.1834,-4.1615,-4.13,-4.0794,-4.018,-3.9918,-4.0129,-4.072,-4.141,-4.1543,-4.1565,-4.176,-4.2139,-4.2277,-4.2438,-4.271,-4.2863,-4.2975,-4.305,-4.3104,-4.3032,-4.2723,-4.2539,-4.17,-4.1117,-4.0951,-4.1131,-4.2072,-4.2881,-4.3238,-4.0262,-4.0313,-4.0969,-4.1468,-4.1683,-4.0914,-4.0952,-4.1526,-4.0701,-4.0431,-4.0673,-4.0716,-4.0716,-4.0716,-4.0716,-4.073,-4.0816,-4.0816,-4.0859,-4.1015,-4.1015,-4.1029,-4.1156,-4.1128,-4.107,-4.0881,-4.0853,-4.071,-4.0424,-4.0053,-3.9396,-3.8528,-3.7977,-3.7739,-3.7739,-3.7815,-3.7853,-3.7825,-3.7825,-3.8136,-3.8605,-3.8364,-3.8026,-3.7739,-3.7124,-3.6693,-3.6425,-3.6411,-3.6415,-3.6415,-3.6415,-3.6415,-3.6384,-3.604,-3.5787,-3.5817,-3.5432,-3.5383,-3.577,-3.6195,-3.6663,-3.7328,-3.7722,-3.8071,-3.8253,-3.8071,-3.8396,-3.9251,-3.927,-3.9718,-4.1206,-4.155,-4.1799,-4.219,-4.2318,-4.2509,-4.295,-4.3016,-4.3211,-4.3535,-4.3598,-4.3598,-4.3565,-4.3333,-4.2837,-4.2142,-4.183,-4.136,-4.1028,-4.0234,-3.9847,-4.0127,-4.0409,-4.0563,-4.0885,-4.0943,-4.1196,-4.1609,-4.1782,-4.1952,-4.2358,-4.2478,-4.2593,-4.2918,-4.2975,-4.2558,-4.156,-4.1504,-4.0994,-4.0484,-4.0608,-4.0934,-4.1316,-4.2196,-4.2816,-3.9156,-3.9287,-4.0007,-4.0516,-4.0716,-4.0124,-4.014,-4.0462,-3.9892,-3.9735,-3.9908,-3.9924,-3.9881,-3.9996,-4.043,-4.0716,-4.0716,-4.0716,-4.0716,-4.0716,-4.0716,-4.0773,-4.0916,-4.0916,-4.0802,-4.0531,-4.0402,-4.0231,-4.0073,-3.9577,-3.9008,-3.8371,-3.7926,-3.7652,-3.751,-3.7586,-3.7625,-3.7625,-3.7625,-3.7625,-3.7606,-3.746,-3.7292,-3.7105,-3.6799,-3.6467,-3.6077,-3.6072,-3.6032,-3.5881,-3.585,-3.585,-3.5819,-3.54,-3.5195,-3.534,-3.4936,-3.4951,-3.5625,-3.6075,-3.6645,-3.7243,-3.7781,-3.8111,-3.8201,-3.8141,-3.8459,-3.9219,-3.8925,-3.944,-4.1054,-4.1685,-4.2127,-4.2676,-4.2898,-4.3113,-4.3295,-4.3328,-4.3355,-4.3509,-4.3539,-4.3469,-4.33,-4.3035,-4.2539,-4.1872,-4.1574,-4.1143,-4.0878,-4.0192,-3.9914,-4.018,-3.9854,-3.9866,-4.0245,-4.0368,-4.0625,-4.1047,-4.1276,-4.1432,-4.1909,-4.2056,-4.2236,-4.2613,-4.2768,-4.2701,-4.205,-4.1488,-4.0852,-4.0434,-4.045,-4.0992,-4.1667,-4.2137,-4.2664,-3.808,-3.808,-3.8133,-3.8792,-3.9623,-3.9044,-3.9089,-3.9594,-3.8945,-3.8391,-3.8103,-3.8024,-3.8004,-3.816,-3.9793,-4.0645,-4.0673,-4.0602,-4.0645,-4.0716,-4.0716,-4.0716,-4.0716,-4.0716,-4.0702,-4.0548,-4.0139,-3.9591,-3.9056,-3.8971,-3.8564,-3.7974,-3.8088,-3.7855,-3.7469,-3.7528,-3.7586,-3.7548,-3.7548,-3.7586,-3.7586,-3.7567,-3.732,-3.6871,-3.7069,-3.6606,-3.5478,-3.5357,-3.5205,-3.453,-3.4622,-3.4593,-3.453,-3.4496,-3.4816,-3.531,-3.5363,-3.559,-3.617,-3.6293,-3.6655,-3.7201,-3.7463,-3.7623,-3.8121,-3.7799,-3.806,-3.9134,-3.8747,-3.9005,-4.0173,-4.1039,-4.1595,-4.1981,-4.2523,-4.2867,-4.3113,-4.3113,-4.3204,-4.3355,-4.3419,-4.3281,-4.2704,-4.191,-4.1508,-4.1044,-4.1077,-4.0983,-4.015,-4.0078,-4.0105,-3.9839,-3.9634,-3.9481,-3.9703,-3.9825,-4.0104,-4.0441,-4.0696,-4.0838,-4.1375,-4.1846,-4.2035,-4.2297,-4.2557,-4.2659,-4.2591,-4.223,-4.1597,-4.1071,-4.0689,-4.1069,-4.1869,-4.2705,-4.3123,-3.7572,-3.7732,-3.7732,-3.8104,-3.8505,-3.8334,-3.851,-3.8965,-3.8405,-3.8203,-3.8251,-3.7932,-3.7821,-3.7841,-3.8522,-3.9193,-3.9722,-3.9766,-4.0071,-4.0645,-4.0716,-4.0716,-4.0716,-4.0716,-4.0463,-4.0126,-3.9901,-3.9521,-3.8986,-3.893,-3.879,-3.8536,-3.8183,-3.7884,-3.7715,-3.7766,-3.7636,-3.7268,-3.7211,-3.7211,-3.725,-3.7327,-3.7242,-3.6939,-3.6882,-3.6667,-3.6135,-3.5769,-3.5289,-3.4686,-3.4995,-3.5059,-3.4743,-3.4995,-3.5346,-3.5547,-3.5605,-3.5935,-3.662,-3.6743,-3.7069,-3.7796,-3.7883,-3.7941,-3.8115,-3.7999,-3.8082,-3.8429,-3.8444,-3.8561,-3.905,-4.0069,-4.1227,-4.2077,-4.211,-4.2269,-4.2774,-4.2959,-4.3021,-4.3174,-4.3295,-4.3287,-4.295,-4.2481,-4.1872,-4.1177,-4.0878,-4.0713,-4.068,-4.0547,-4.0542,-4.1077,-4.0945,-4.0509,-4.012,-3.9787,-3.9677,-3.985,-4.0104,-4.0368,-4.0814,-4.1071,-4.1253,-4.1717,-4.2098,-4.2239,-4.2027,-4.1722,-4.1288,-4.1216,-4.0871,-4.1234,-4.1977,-4.2577,-4.285,-3.7251,-3.7435,-3.7435,-3.7518,-3.7732,-3.7708,-3.7722,-3.7659,-3.7317,-3.7146,-3.7076,-3.6767,-3.6637,-3.6684,-3.6684,-3.7263,-3.8243,-3.8585,-3.9149,-3.9749,-4.0055,-4.0229,-4.0272,-4.0559,-4.0491,-4.0097,-3.9845,-3.9521,-3.8986,-3.893,-3.879,-3.8564,-3.8271,-3.8102,-3.7934,-3.7906,-3.7681,-3.7316,-3.7091,-3.6978,-3.7017,-3.7134,-3.7134,-3.7,-3.6854,-3.6731,-3.6636,-3.6245,-3.5731,-3.5246,-3.5503,-3.5532,-3.5189,-3.5474,-3.5817,-3.5988,-3.6017,-3.6376,-3.7069,-3.7184,-3.7431,-3.7919,-3.8052,-3.8089,-3.8118,-3.8165,-3.8202,-3.8202,-3.8202,-3.824,-3.862,-3.9284,-4.0209,-4.1294,-4.1294,-4.1393,-4.2013,-4.2077,-4.2269,-4.2584,-4.279,-4.2906,-4.2867,-4.2334,-4.1667,-4.1064,-4.0729,-4.0823,-4.0647,-4.0647,-4.0674,-4.1574,-4.121,-4.0746,-4.0437,-4.0086,-3.9668,-3.9752,-3.9729,-3.9952,-4.0136,-4.0334,-4.0556,-4.1047,-4.1358,-4.1492,-4.1395,-4.1082,-4.1016,-4.1089,-4.118,-4.1488,-4.1959,-4.225,-4.2613,-3.7066,-3.7089,-3.7089,-3.712,-3.7197,-3.7173,-3.6555,-3.6057,-3.5821,-3.5453,-3.4938,-3.4357,-3.458,-3.4531,-3.4775,-3.5235,-3.6355,-3.7196,-3.775,-3.8115,-3.8854,-3.9166,-3.9254,-4.0012,-4.0473,-4.0447,-4.0027,-3.9507,-3.9015,-3.9015,-3.8733,-3.8243,-3.8649,-3.8552,-3.7962,-3.799,-3.7878,-3.7709,-3.7288,-3.6978,-3.6978,-3.7017,-3.7017,-3.6978,-3.6961,-3.6824,-3.6467,-3.6598,-3.6322,-3.578,-3.5752,-3.5723,-3.5744,-3.5801,-3.6045,-3.6522,-3.6645,-3.6958,-3.7444,-3.7501,-3.751,-3.7701,-3.7777,-3.7891,-3.7929,-3.8014,-3.8127,-3.8127,-3.8202,-3.8397,-3.8848,-3.8694,-3.8774,-3.932,-4.0139,-4.0451,-4.0554,-4.0485,-4.0758,-4.1561,-4.1913,-4.1978,-4.1874,-4.1583,-4.0991,-4.0733,-4.0692,-4.0682,-4.01,-4.0194,-4.0382,-4.058,-4.0884,-4.1016,-4.068,-4.0343,-3.9993,-3.9708,-3.9594,-3.9625,-3.9757,-3.9927,-3.9865,-4.0233,-4.0574,-4.0739,-4.1541,-4.1339,-4.171,-4.1825,-4.1829,-4.1812,-4.2249,-4.2594,-4.2684,-3.6657,-3.682,-3.6796,-3.6928,-3.7066,-3.712,-3.6855,-3.6526,-3.5921,-3.5404,-3.5027,-3.4369,-3.4113,-3.4162,-3.4211,-3.4384,-3.4823,-3.5187,-3.6143,-3.7566,-3.8069,-3.8251,-3.8296,-3.8567,-3.906,-3.9563,-3.9486,-3.9446,-3.9508,-3.9507,-3.9408,-3.9226,-3.8986,-3.9071,-3.9086,-3.8383,-3.7906,-3.7821,-3.7288,-3.6978,-3.6978,-3.6978,-3.6978,-3.6978,-3.6978,-3.6905,-3.6841,-3.6852,-3.6608,-3.6015,-3.6382,-3.6608,-3.658,-3.657,-3.6692,-3.6862,-3.6929,-3.7024,-3.7337,-3.7404,-3.7471,-3.7586,-3.7663,-3.7701,-3.7701,-3.7777,-3.7787,-3.7787,-3.7929,-3.8127,-3.824,-3.8277,-3.8694,-3.9894,-3.9824,-3.9859,-4.0209,-4.0347,-4.0519,-4.0758,-4.1007,-4.1275,-4.1629,-4.1305,-4.0972,-4.1096,-4.0758,-4.0193,-4.0381,-4.0053,-4.0306,-4.0668,-4.1016,-4.1135,-4.0706,-4.0563,-4.0448,-3.9939,-3.9661,-3.9422,-3.9506,-3.9502,-3.9387,-3.9402,-3.9699,-4.0251,-4.1051,-4.1556,-4.1803,-4.2187,-4.2083,-4.2327,-4.2753,-4.2806,-4.2635,-3.6386,-3.6526,-3.6549,-3.6657,-3.682,-3.682,-3.668,-3.6424,-3.5655,-3.5165,-3.4839,-3.414,-3.3889,-3.3915,-3.3939,-3.4014,-3.4064,-3.4064,-3.492,-3.6355,-3.6964,-3.7103,-3.7196,-3.7612,-3.8024,-3.8541,-3.8675,-3.9003,-3.9544,-3.9338,-3.9424,-3.9634,-3.9395,-3.9408,-3.9704,-3.9058,-3.8608,-3.8496,-3.7765,-3.7316,-3.7288,-3.7119,-3.6978,-3.6978,-3.6978,-3.6978,-3.6978,-3.6978,-3.681,-3.6567,-3.6782,-3.6978,-3.6978,-3.695,-3.6978,-3.6978,-3.6978,-3.7056,-3.7173,-3.7201,-3.7211,-3.7366,-3.7471,-3.751,-3.751,-3.7548,-3.7625,-3.7625,-3.7739,-3.7815,-3.7815,-3.7891,-3.8472,-3.932,-3.9103,-3.9103,-3.957,-3.9824,-3.9964,-4.0069,-4.0351,-4.0792,-4.1037,-4.1045,-4.0768,-4.0925,-4.0376,-3.97,-4.0047,-3.9742,-4.0024,-4.0492,-4.102,-4.0943,-4.0635,-4.0687,-4.0866,-4.0326,-3.9752,-3.9508,-3.9382,-3.9275,-3.9146,-3.895,-3.9073,-3.9471,-4.0216,-4.0736,-4.1068,-4.154,-4.1949,-4.2,-4.2056,-4.2118,-4.2098,-3.6332,-3.6254,-3.6277,-3.6309,-3.6332,-3.6332,-3.6102,-3.5642,-3.5136,-3.4653,-3.4147,-3.3807,-3.3584,-3.3665,-3.3761,-3.386,-3.4038,-3.3965,-3.4014,-3.4531,-3.5235,-3.5786,-3.5928,-3.673,-3.7243,-3.7566,-3.7612,-3.8107,-3.8853,-3.8448,-3.8742,-3.9465,-3.9381,-3.9662,-3.9606,-3.9704,-3.948,-3.934,-3.8483,-3.7962,-3.7934,-3.7484,-3.7119,-3.7119,-3.7091,-3.7063,-3.6978,-3.6978,-3.6978,-3.6978,-3.695,-3.6978,-3.6978,-3.6978,-3.6978,-3.6978,-3.6978,-3.6978,-3.6978,-3.7017,-3.7017,-3.7056,-3.7173,-3.7289,-3.7289,-3.7518,-3.7642,-3.7652,-3.7776,-3.7786,-3.7758,-3.7853,-3.8045,-3.8035,-3.8356,-3.8352,-3.8315,-3.8848,-3.9175,-3.9356,-3.9824,-4.0313,-4.0313,-4.032,-4.018,-4.0013,-3.9802,-3.9495,-3.9186,-3.9187,-3.921,-3.974,-4.0403,-4.0367,-3.9985,-4.0331,-4.0483,-4.0315,-3.987,-3.9764,-3.9361,-3.9176,-3.8844,-3.8628,-3.8572,-3.8913,-3.9354,-3.9939,-4.0318,-4.065,-4.0882,-4.1046,-4.1238,-4.1332,-4.1568,-3.6254,-3.6254,-3.6254,-3.6254,-3.6254,-3.6254,-3.6185,-3.6002,-3.552,-3.5014,-3.4624,-3.4463,-3.4009,-3.3484,-3.3761,-3.3788,-3.3658,-3.3565,-3.3492,-3.3592,-3.3991,-3.4384,-3.4531,-3.492,-3.5523,-3.6071,-3.6213,-3.6633,-3.7508,-3.7443,-3.7798,-3.8497,-3.8209,-3.8482,-3.9191,-3.8848,-3.8866,-3.92,-3.8934,-3.8608,-3.8539,-3.844,-3.8131,-3.7681,-3.7613,-3.7428,-3.7063,-3.6978,-3.6978,-3.6978,-3.6978,-3.6978,-3.6978,-3.6978,-3.6978,-3.6978,-3.6978,-3.7007,-3.7007,-3.7007,-3.7007,-3.6978,-3.7197,-3.7056,-3.7084,-3.7546,-3.7755,-3.7935,-3.8326,-3.8558,-3.8274,-3.8592,-3.8899,-3.8989,-3.8601,-3.8281,-3.826,-3.8352,-3.8472,-3.8509,-3.873,-3.9066,-3.9433,-3.9611,-3.9728,-3.9872,-3.9668,-3.933,-3.8962,-3.8666,-3.8712,-3.8867,-3.9278,-3.9343,-3.9439,-3.9818,-4.0071,-4.0089,-4.0033,-4.0062,-3.9649,-3.9216,-3.8725,-3.8273,-3.8351,-3.8598,-3.8984,-3.9469,-3.9666,-3.9771,-3.9996,-4.0205,-4.0445,-4.0647,-4.0949,-3.6254,-3.6254,-3.6254,-3.6254,-3.6254,-3.6254,-3.6254,-3.6162,-3.5749,-3.5382,-3.5106,-3.4854,-3.4486,-3.3981,-3.4211,-3.4188,-3.3912,-3.3683,-3.3591,-3.3595,-3.3584,-3.379,-3.4014,-3.4113,-3.4408,-3.4848,-3.4896,-3.5499,-3.621,-3.6373,-3.6866,-3.7482,-3.7313,-3.7591,-3.8164,-3.8263,-3.8255,-3.863,-3.8651,-3.8713,-3.8713,-3.8394,-3.809,-3.7758,-3.7702,-3.7466,-3.7111,-3.7001,-3.6978,-3.6978,-3.6978,-3.6978,-3.6978,-3.6978,-3.6978,-3.6978,-3.6978,-3.7091,-3.7316,-3.7372,-3.7552,-3.7749,-3.7793,-3.7793,-3.7889,-3.8131,-3.8299,-3.8396,-3.8815,-3.8799,-3.8698,-3.9029,-3.9321,-3.9275,-3.9011,-3.863,-3.84,-3.8111,-3.8005,-3.8014,-3.8089,-3.824,-3.8804,-3.8811,-3.903,-3.923,-3.902,-3.8906,-3.8762,-3.8465,-3.8307,-3.8527,-3.8825,-3.9095,-3.9228,-3.9546,-3.9989,-4.0038,-3.9943,-4.0087,-3.9838,-3.9303,-3.8745,-3.8348,-3.8242,-3.8347,-3.8735,-3.8964,-3.8807,-3.894,-3.9146,-3.9187,-3.9339,-3.9846,-4.0158,-3.6254,-3.6254,-3.6254,-3.6254,-3.6254,-3.6254,-3.6254,-3.6185,-3.5841,-3.5588,-3.5428,-3.5106,-3.4923,-3.4808,-3.4785,-3.4831,-3.4716,-3.4142,-3.3912,-3.3729,-3.3526,-3.3568,-3.3866,-3.3915,-3.3965,-3.4113,-3.4014,-3.4482,-3.5017,-3.521,-3.5784,-3.6348,-3.6557,-3.6769,-3.7027,-3.7456,-3.7854,-3.7859,-3.8078,-3.826,-3.8266,-3.8011,-3.7756,-3.7736,-3.7476,-3.7426,-3.7222,-3.7131,-3.7091,-3.7046,-3.7052,-3.6978,-3.6978,-3.7007,-3.7119,-3.7203,-3.7316,-3.7569,-3.7878,-3.8018,-3.8215,-3.8649,-3.879,-3.893,-3.879,-3.8833,-3.9015,-3.9015,-3.903,-3.9211,-3.9196,-3.9235,-3.9316,-3.9442,-3.9479,-3.9105,-3.8717,-3.81,-3.7749,-3.7815,-3.7853,-3.7967,-3.8052,-3.8127,-3.8165,-3.8509,-3.8362,-3.8444,-3.8399,-3.8322,-3.8264,-3.8335,-3.8687,-3.9143,-3.9181,-3.928,-3.9757,-4.0059,-3.9868,-3.985,-3.9919,-3.9479,-3.8903,-3.8513,-3.8447,-3.8461,-3.8612,-3.8572,-3.8373,-3.8351,-3.8673,-3.8238,-3.7878,-3.8715,-3.9235,-3.6254,-3.6254,-3.6254,-3.6254,-3.6254,-3.6254,-3.6254,-3.6254,-3.614,-3.5864,-3.5657,-3.5795,-3.5497,-3.4854,-3.5198,-3.5175,-3.4854,-3.4326,-3.3821,-3.343,-3.3361,-3.3342,-3.3492,-3.3542,-3.3492,-3.3469,-3.3469,-3.3618,-3.3793,-3.404,-3.4164,-3.4896,-3.5138,-3.5282,-3.5904,-3.6351,-3.668,-3.6748,-3.7083,-3.7579,-3.7941,-3.7899,-3.7785,-3.793,-3.7558,-3.7346,-3.738,-3.7343,-3.7303,-3.7277,-3.709,-3.6923,-3.7057,-3.7405,-3.7601,-3.7674,-3.8118,-3.8468,-3.8608,-3.8624,-3.8761,-3.8986,-3.9071,-3.893,-3.8958,-3.9367,-3.9564,-3.9676,-4.0013,-4.0154,-4.014,-3.9408,-3.9534,-3.9914,-3.9645,-3.9291,-3.9319,-3.8785,-3.8186,-3.7853,-3.772,-3.7701,-3.7768,-3.7777,-3.7777,-3.7777,-3.7853,-3.7967,-3.8003,-3.8074,-3.8135,-3.8201,-3.8391,-3.8728,-3.8764,-3.8841,-3.9168,-3.9561,-3.9482,-3.9266,-3.9344,-3.9457,-3.8774,-3.8598,-3.8657,-3.8635,-3.8632,-3.8533,-3.8361,-3.8268,-3.8169,-3.7956,-3.7908,-3.8273,-3.8358,-3.4558,-3.4614,-3.519,-3.5433,-3.5543,-3.6036,-3.6254,-3.6254,-3.6254,-3.6117,-3.5956,-3.6185,-3.5956,-3.552,-3.5749,-3.5726,-3.5428,-3.4946,-3.4463,-3.405,-3.3798,-3.3637,-3.3545,-3.3384,-3.3292,-3.3292,-3.3292,-3.3292,-3.3292,-3.3342,-3.3568,-3.3843,-3.3941,-3.4139,-3.4556,-3.5114,-3.5378,-3.5522,-3.6046,-3.6564,-3.6892,-3.6913,-3.6954,-3.7027,-3.6642,-3.6392,-3.6348,-3.6323,-3.6332,-3.6363,-3.6557,-3.6852,-3.7165,-3.7482,-3.7648,-3.7758,-3.7924,-3.8533,-3.8797,-3.902,-3.9215,-3.9676,-3.9704,-3.9732,-3.976,-4.0069,-4.0182,-4.0266,-4.0491,-4.0688,-4.0659,-4.0266,-4.021,-4.035,-4.0126,-3.9788,-3.9662,-3.9122,-3.8632,-3.8314,-3.8154,-3.8051,-3.7976,-3.7776,-3.7586,-3.7663,-3.7663,-3.7777,-3.7815,-3.789,-3.7994,-3.8049,-3.8153,-3.8264,-3.8264,-3.8347,-3.8502,-3.8715,-3.8786,-3.8484,-3.8331,-3.8499,-3.8559,-3.8488,-3.8495,-3.8623,-3.8592,-3.8459,-3.8335,-3.8164,-3.8031,-3.7978,-3.7897,-3.7831,-3.779,-3.2602,-3.2659,-3.3776,-3.419,-3.4357,-3.5245,-3.5763,-3.5982,-3.6036,-3.6036,-3.6254,-3.6254,-3.6208,-3.6231,-3.6208,-3.6231,-3.5979,-3.568,-3.5083,-3.4624,-3.428,-3.405,-3.3912,-3.3637,-3.3384,-3.3315,-3.3292,-3.3292,-3.3292,-3.3292,-3.3319,-3.3342,-3.3342,-3.3469,-3.3568,-3.3892,-3.4311,-3.4385,-3.4896,-3.5307,-3.5499,-3.5547,-3.557,-3.5779,-3.5715,-3.5579,-3.5571,-3.5502,-3.5288,-3.5212,-3.5863,-3.6463,-3.6987,-3.7311,-3.7353,-3.7396,-3.7558,-3.8055,-3.8683,-3.9078,-3.9529,-4.0516,-4.0531,-4.0589,-4.0589,-4.0361,-4.0232,-4.0303,-4.0343,-4.0473,-4.0673,-4.0575,-4.0603,-4.0688,-4.0688,-4.0463,-3.9985,-3.9423,-3.9294,-3.8936,-3.858,-3.8365,-3.8161,-3.7905,-3.7699,-3.751,-3.7548,-3.7586,-3.7625,-3.7701,-3.7815,-3.7853,-3.7901,-3.7938,-3.7938,-3.8089,-3.8202,-3.8248,-3.8302,-3.8105,-3.7762,-3.7836,-3.8102,-3.8215,-3.8266,-3.836,-3.8383,-3.8358,-3.8204,-3.8062,-3.8124,-3.8276,-3.7932,-3.7423,-3.7522,-3.2602,-3.2602,-3.2851,-3.2907,-3.2964,-3.3191,-3.3888,-3.4714,-3.4803,-3.5378,-3.6145,-3.6254,-3.62,-3.6254,-3.6254,-3.6048,-3.5795,-3.5611,-3.5336,-3.4969,-3.4716,-3.4509,-3.4165,-3.3889,-3.366,-3.3361,-3.3292,-3.3292,-3.3292,-3.3292,-3.3292,-3.3292,-3.3292,-3.3292,-3.3342,-3.3419,-3.3618,-3.3595,-3.3866,-3.4139,-3.4507,-3.4629,-3.4848,-3.5283,-3.5256,-3.5302,-3.5422,-3.5468,-3.5513,-3.5538,-3.5655,-3.5771,-3.6063,-3.6644,-3.7024,-3.721,-3.7429,-3.7756,-3.8184,-3.8809,-3.942,-3.9996,-3.9996,-4.0213,-4.0229,-3.9897,-3.9431,-3.9387,-3.9475,-3.9722,-4.0602,-4.0386,-4.0559,-4.0602,-4.0473,-4.0417,-4.032,-4.0053,-3.962,-3.8936,-3.8697,-3.8702,-3.85,-3.8145,-3.7749,-3.7505,-3.7374,-3.7384,-3.7366,-3.751,-3.7625,-3.7663,-3.7663,-3.7663,-3.7663,-3.7853,-3.7967,-3.8014,-3.806,-3.8211,-3.7862,-3.7579,-3.7612,-3.7974,-3.7928,-3.7779,-3.7862,-3.8025,-3.7764,-3.738,-3.7898,-3.8526,-3.8003,-3.7481,-3.8122,-3.0742,-3.0801,-3.1381,-3.1669,-3.1765,-3.2338,-3.2907,-3.3494,-3.3551,-3.4224,-3.508,-3.5378,-3.5763,-3.6145,-3.6254,-3.6117,-3.5956,-3.5887,-3.5749,-3.5543,-3.529,-3.5083,-3.4647,-3.4303,-3.3912,-3.3637,-3.343,-3.3292,-3.3292,-3.3292,-3.3292,-3.3292,-3.3292,-3.3292,-3.3292,-3.3342,-3.3292,-3.3292,-3.3342,-3.3469,-3.3793,-3.3843,-3.4139,-3.4286,-3.4433,-3.4433,-3.4433,-3.4433,-3.436,-3.4458,-3.4775,-3.4921,-3.5113,-3.5421,-3.5949,-3.6324,-3.6692,-3.6959,-3.7145,-3.7586,-3.788,-3.8334,-3.8469,-3.8514,-3.8649,-3.8307,-3.8081,-3.8081,-3.8081,-3.8217,-3.8649,-3.8988,-3.8988,-3.9033,-3.9149,-3.9237,-3.9237,-3.9264,-3.8901,-3.8601,-3.8892,-3.8978,-3.9015,-3.8536,-3.7878,-3.7524,-3.7282,-3.7208,-3.718,-3.725,-3.7433,-3.7471,-3.7471,-3.751,-3.751,-3.7625,-3.7739,-3.7777,-3.7891,-3.8005,-3.8032,-3.775,-3.7783,-3.8037,-3.7798,-3.7412,-3.7373,-3.7527,-3.7124,-3.6814,-3.7322,-3.7703,-3.7645,-3.7732,-3.8169,-2.8975,-2.9094,-3.002,-3.0412,-3.0587,-3.1439,-3.1994,-3.2223,-3.2223,-3.2964,-3.4022,-3.419,-3.4636,-3.5356,-3.5817,-3.5982,-3.62,-3.6286,-3.6208,-3.6117,-3.5841,-3.5634,-3.5267,-3.4785,-3.4234,-3.3889,-3.3683,-3.3384,-3.3292,-3.3292,-3.3292,-3.3292,-3.3292,-3.3292,-3.3292,-3.3292,-3.3292,-3.3292,-3.3292,-3.3292,-3.3292,-3.3292,-3.3292,-3.3292,-3.3292,-3.3369,-3.3469,-3.3519,-3.3469,-3.3618,-3.3892,-3.4164,-3.4213,-3.4213,-3.4507,-3.5042,-3.5283,-3.5595,-3.5808,-3.6235,-3.6586,-3.7073,-3.6934,-3.698,-3.7027,-3.7119,-3.6748,-3.6701,-3.6701,-3.6934,-3.7304,-3.7304,-3.7396,-3.7514,-3.7678,-3.7704,-3.7815,-3.7906,-3.8043,-3.822,-3.894,-3.8855,-3.837,-3.8251,-3.7439,-3.7412,-3.7149,-3.727,-3.7265,-3.718,-3.724,-3.725,-3.7289,-3.7366,-3.7404,-3.7471,-3.7548,-3.7548,-3.7701,-3.7815,-3.7929,-3.7919,-3.7982,-3.7957,-3.7504,-3.7127,-3.7091,-3.7021,-3.677,-3.6683,-3.6785,-3.6816,-3.6753,-3.6995,-3.7413,-2.8975,-2.9035,-2.9153,-2.9213,-2.9272,-2.9431,-3.0079,-3.0937,-3.0917,-3.1669,-3.2737,-3.2773,-3.2907,-3.336,-3.428,-3.5245,-3.5817,-3.585,-3.574,-3.5663,-3.5736,-3.5563,-3.5482,-3.5474,-3.471,-3.4251,-3.4027,-3.366,-3.3476,-3.3384,-3.3292,-3.3292,-3.3292,-3.3292,-3.3292,-3.3292,-3.3292,-3.3292,-3.3292,-3.3292,-3.3292,-3.3292,-3.3292,-3.3292,-3.3292,-3.3292,-3.3292,-3.3292,-3.3292,-3.3342,-3.3369,-3.3469,-3.3419,-3.3419,-3.3419,-3.3744,-3.4115,-3.4581,-3.4775,-3.5162,-3.5642,-3.5974,-3.6163,-3.6586,-3.6326,-3.5926,-3.5618,-3.5665,-3.5665,-3.5879,-3.6373,-3.6841,-3.698,-3.6841,-3.6726,-3.6866,-3.6887,-3.6564,-3.6705,-3.6938,-3.7326,-3.7273,-3.703,-3.7024,-3.6981,-3.7053,-3.7097,-3.7194,-3.7133,-3.6856,-3.6547,-3.6441,-3.6716,-3.6861,-3.7056,-3.7134,-3.7278,-3.7317,-3.7471,-3.7625,-3.7701,-3.7815,-3.7891,-3.7763,-3.7296,-3.7113,-3.7199,-3.7025,-3.662,-3.6503,-3.6627,-3.6302,-3.5879,-3.6258,-3.6817,-2.8439,-2.8439,-2.8439,-2.8439,-2.8439,-2.8439,-2.8719,-2.9135,-2.9253,-2.9865,-3.0839,-3.0994,-3.1399,-3.2089,-3.2773,-3.317,-3.362,-3.3789,-3.3733,-3.4035,-3.4314,-3.456,-3.4691,-3.4881,-3.4729,-3.4614,-3.4578,-3.4418,-3.4027,-3.3495,-3.3292,-3.3338,-3.3292,-3.3292,-3.3315,-3.3292,-3.3292,-3.3292,-3.3292,-3.3292,-3.3292,-3.3292,-3.3292,-3.3292,-3.3292,-3.3292,-3.3292,-3.3292,-3.3292,-3.3292,-3.3292,-3.3292,-3.3292,-3.3342,-3.3342,-3.3319,-3.3568,-3.3793,-3.3843,-3.4139,-3.4458,-3.4556,-3.4629,-3.4629,-3.4751,-3.4629,-3.4311,-3.4262,-3.4262,-3.4532,-3.4896,-3.5041,-3.509,-3.5186,-3.5522,-3.5522,-3.5522,-3.5426,-3.5355,-3.5499,-3.569,-3.5727,-3.5923,-3.6319,-3.6502,-3.6726,-3.6601,-3.6444,-3.6305,-3.5969,-3.5665,-3.5291,-3.5736,-3.6203,-3.6441,-3.6665,-3.6957,-3.7035,-3.719,-3.7345,-3.7471,-3.7586,-3.7519,-3.7663,-3.748,-3.7411,-3.7411,-3.7063,-3.6605,-3.6481,-3.6438,-3.6221,-3.603,-3.6208,-3.6703,-2.784,-2.7779,-2.796,-2.802,-2.802,-2.802,-2.802,-2.802,-2.808,-2.854,-2.9176,-2.9394,-3.0081,-3.0994,-3.1283,-3.1572,-3.1859,-3.1744,-3.1744,-3.1974,-3.2374,-3.3,-3.3324,-3.3701,-3.3912,-3.44,-3.3517,-3.3307,-3.321,-3.3168,-3.3016,-3.3586,-3.3614,-3.3522,-3.3453,-3.3361,-3.3292,-3.3292,-3.3292,-3.3292,-3.3292,-3.3292,-3.3292,-3.3292,-3.3292,-3.3292,-3.3292,-3.3292,-3.3292,-3.3292,-3.3292,-3.3292,-3.3292,-3.3292,-3.3292,-3.3292,-3.3419,-3.3369,-3.3369,-3.3469,-3.3292,-3.3292,-3.3292,-3.3618,-3.3519,-3.3292,-3.3342,-3.3469,-3.3469,-3.3419,-3.3369,-3.3618,-3.3793,-3.3941,-3.3991,-3.3915,-3.3965,-3.4286,-3.4482,-3.458,-3.4677,-3.458,-3.4896,-3.5506,-3.5936,-3.6339,-3.6232,-3.5863,-3.5616,-3.5349,-3.5322,-3.5089,-3.5451,-3.5936,-3.6074,-3.6293,-3.6616,-3.673,-3.6849,-3.667,-3.6552,-3.6772,-3.695,-3.7134,-3.7317,-3.7539,-3.7519,-3.7074,-3.6678,-3.6707,-3.6697,-3.6545,-3.6428,-3.6545,-3.6576,-2.7358,-2.7194,-2.7779,-2.796,-2.796,-2.802,-2.796,-2.79,-2.796,-2.802,-2.8199,-2.8259,-2.8879,-2.963,-2.9905,-3.0412,-3.1494,-3.1687,-3.1283,-3.1341,-3.1782,-3.1744,-3.1913,-3.1946,-3.1917,-3.1743,-3.1899,-3.154,-3.1052,-3.2069,-3.2971,-3.4311,-3.3724,-3.3874,-3.3673,-3.3174,-3.3042,-3.3019,-3.3019,-3.3069,-3.3142,-3.3142,-3.3119,-3.317,-3.3242,-3.3292,-3.3292,-3.3119,-3.3069,-3.3069,-3.3019,-3.3069,-3.2969,-3.3119,-3.3119,-3.3119,-3.3292,-3.3292,-3.3292,-3.3292,-3.3292,-3.3292,-3.3292,-3.3292,-3.3292,-3.3292,-3.3292,-3.3292,-3.3292,-3.3292,-3.3269,-3.3319,-3.3392,-3.3442,-3.3492,-3.3542,-3.3641,-3.3717,-3.3866,-3.3817,-3.384,-3.3866,-3.3965,-3.4631,-3.5158,-3.5509,-3.5522,-3.5169,-3.5269,-3.5143,-3.5333,-3.5373,-3.5548,-3.5792,-3.5818,-3.6006,-3.6198,-3.6094,-3.6124,-3.5621,-3.5148,-3.552,-3.6276,-3.6432,-3.6647,-3.7113,-3.7558,-3.7205,-3.6974,-3.7008,-3.7003,-3.6961,-3.6889,-3.6939,-3.6765,-2.7177,-2.7133,-2.7375,-2.7435,-2.7418,-2.7435,-2.7435,-2.7435,-2.7435,-2.7435,-2.7496,-2.7496,-2.7719,-2.8062,-2.8122,-2.8343,-2.8861,-2.8861,-2.8979,-2.9157,-2.9335,-2.9905,-3.0237,-3.08,-3.1242,-3.1217,-3.1291,-3.1328,-3.1337,-3.1252,-3.184,-3.273,-3.3083,-3.3107,-3.2879,-3.2597,-3.2352,-3.2313,-3.2313,-3.2291,-3.224,-3.224,-3.224,-3.224,-3.2263,-3.2263,-3.224,-3.224,-3.224,-3.2291,-3.2291,-3.2342,-3.2443,-3.2594,-3.2745,-3.2796,-3.3019,-3.317,-3.3242,-3.3242,-3.3292,-3.3292,-3.3292,-3.3292,-3.3292,-3.3292,-3.3292,-3.3292,-3.3292,-3.3292,-3.3292,-3.3292,-3.3342,-3.3292,-3.3292,-3.3292,-3.3342,-3.3492,-3.3492,-3.3592,-3.3542,-3.3542,-3.3618,-3.3793,-3.4262,-3.4629,-3.4631,-3.4629,-3.4711,-3.4739,-3.4849,-3.5002,-3.5113,-3.5238,-3.5238,-3.5487,-3.5729,-3.5556,-3.5383,-3.5011,-3.4641,-3.4972,-3.5577,-3.5707,-3.5913,-3.6343,-3.6765,-3.719,-3.73,-3.7234,-3.7394,-3.761,-3.7511,-3.7324,-3.7121,-2.7295,-2.7381,-2.7278,-2.7176,-2.709,-2.7073,-2.7073,-2.7073,-2.7133,-2.7073,-2.7073,-2.7073,-2.7073,-2.7073,-2.7133,-2.7194,-2.7375,-2.7375,-2.7254,-2.7478,-2.7942,-2.8343,-2.8801,-2.9216,-2.9611,-3.0296,-3.0354,-3.0082,-2.9927,-3.0509,-3.0626,-3.0968,-3.1574,-3.1767,-3.1934,-3.1729,-3.1512,-3.1434,-3.1723,-3.1665,-3.1673,-3.1629,-3.168,-3.168,-3.1732,-3.1732,-3.1732,-3.1783,-3.1732,-3.1732,-3.168,-3.1629,-3.1732,-3.1913,-3.2117,-3.2291,-3.2493,-3.2768,-3.2869,-3.317,-3.3242,-3.3292,-3.3292,-3.3292,-3.3292,-3.3292,-3.3292,-3.3292,-3.3292,-3.3292,-3.3292,-3.3292,-3.3292,-3.3292,-3.3292,-3.3292,-3.3292,-3.3392,-3.3342,-3.3342,-3.3342,-3.3392,-3.3442,-3.3542,-3.3866,-3.4211,-3.4313,-3.4268,-3.427,-3.4246,-3.4126,-3.4244,-3.4358,-3.4495,-3.4558,-3.4956,-3.5236,-3.4865,-3.474,-3.4771,-3.4653,-3.4868,-3.495,-3.5159,-3.5378,-3.558,-3.5858,-3.6212,-3.6781,-3.7366,-3.7501,-3.7605,-3.7757,-3.7535,-3.761,-2.7809,-2.81,-2.7758,-2.7415,-2.7158,-2.7073,-2.7073,-2.7073,-2.7073,-2.7073,-2.7073,-2.7073,-2.7073,-2.7073,-2.7073,-2.7073,-2.7073,-2.7073,-2.7073,-2.7194,-2.7254,-2.7315,-2.7375,-2.7659,-2.8002,-2.7375,-2.7779,-2.8002,-2.7642,-2.8522,-2.876,-2.8938,-2.9617,-3.0314,-3.085,-3.1333,-3.13,-3.103,-3.1624,-3.1515,-3.1248,-3.1089,-3.0995,-3.0995,-3.1064,-3.0991,-3.0991,-3.1197,-3.1219,-3.127,-3.1322,-3.127,-3.1146,-3.13,-3.1424,-3.1592,-3.16,-3.168,-3.1753,-3.274,-3.3115,-3.3142,-3.3119,-3.317,-3.3292,-3.3292,-3.3292,-3.3292,-3.3292,-3.3292,-3.3292,-3.3292,-3.3292,-3.3292,-3.3292,-3.3292,-3.3292,-3.3292,-3.3292,-3.3292,-3.3292,-3.3292,-3.3292,-3.3392,-3.3641,-3.3866,-3.4014,-3.4017,-3.3897,-3.3899,-3.3781,-3.3906,-3.4054,-3.4198,-3.439,-3.4607,-3.4679,-3.4293,-3.4241,-3.4472,-3.4438,-3.4462,-3.4565,-3.4675,-3.4977,-3.5245,-3.5243,-3.5224,-3.5923,-3.6626,-3.719,-3.7376,-3.7596,-3.7749,-3.7738,-2.8066,-2.8186,-2.8049,-2.7929,-2.7758,-2.7339,-2.709,-2.7073,-2.7073,-2.709,-2.7073,-2.7073,-2.7073,-2.7073,-2.7073,-2.7073,-2.7073,-2.7073,-2.7073,-2.7073,-2.7073,-2.7133,-2.7073,-2.7073,-2.7073,-2.7073,-2.7073,-2.7073,-2.7254,-2.7556,-2.7599,-2.7719,-2.8104,-2.8641,-2.9393,-2.9746,-2.9394,-2.9372,-2.9553,-2.9639,-2.9535,-2.9405,-2.9373,-2.9427,-2.9684,-2.9805,-2.9889,-3.0224,-3.0485,-3.0443,-3.0443,-3.0287,-3.0005,-2.9984,-3.0339,-3.0548,-3.0706,-3.1193,-3.1772,-3.2502,-3.2603,-3.265,-3.2695,-3.2869,-3.317,-3.3292,-3.3292,-3.3292,-3.322,-3.322,-3.3292,-3.3292,-3.3292,-3.3292,-3.3292,-3.3292,-3.3292,-3.3292,-3.3292,-3.3292,-3.3292,-3.3069,-3.3019,-3.317,-3.3369,-3.3419,-3.3519,-3.3618,-3.3522,-3.3671,-3.3723,-3.3822,-3.3946,-3.4091,-3.4261,-3.4408,-3.4506,-3.4317,-3.4342,-3.4462,-3.4389,-3.424,-3.4236,-3.435,-3.4674,-3.4958,-3.487,-3.4817,-3.5191,-3.5785,-3.628,-3.6923,-3.7289,-3.751,-3.7634,-2.7997,-2.8563,-2.8443,-2.8391,-2.8306,-2.7723,-2.745,-2.7432,-2.733,-2.7261,-2.7244,-2.7158,-2.7073,-2.7073,-2.7073,-2.7073,-2.7073,-2.7073,-2.7073,-2.7073,-2.7073,-2.7073,-2.7073,-2.7073,-2.7073,-2.7073,-2.7073,-2.7073,-2.7073,-2.7073,-2.7133,-2.7194,-2.7133,-2.7716,-2.8301,-2.8431,-2.8555,-2.8576,-2.8767,-2.8955,-2.8708,-2.848,-2.8347,-2.8437,-2.8559,-2.8672,-2.8662,-2.8906,-2.9273,-2.9212,-2.9079,-2.8867,-2.8528,-2.8568,-2.8993,-2.9313,-2.9554,-2.9974,-3.0405,-3.0594,-3.062,-3.0957,-3.1614,-3.2291,-3.2617,-3.2566,-3.2768,-3.2869,-3.2919,-3.3069,-3.3069,-3.3069,-3.3069,-3.3019,-3.3069,-3.3069,-3.3069,-3.3069,-3.2818,-3.2869,-3.269,-3.2639,-3.251,-3.2969,-3.317,-3.3119,-3.2996,-3.3069,-3.3192,-3.3442,-3.3592,-3.3691,-3.379,-3.3866,-3.4014,-3.4113,-3.4211,-3.431,-3.4359,-3.4384,-3.4313,-3.415,-3.4102,-3.4102,-3.4457,-3.4635,-3.4449,-3.449,-3.4654,-3.4907,-3.5296,-3.5992,-3.6777,-3.7063,-3.7186,-2.7556,-2.9034,-2.8793,-2.8527,-2.8524,-2.8056,-2.8077,-2.8134,-2.7775,-2.7621,-2.7604,-2.7313,-2.7244,-2.7176,-2.7158,-2.721,-2.7244,-2.7227,-2.7193,-2.7158,-2.7193,-2.7141,-2.709,-2.7073,-2.7073,-2.7073,-2.7073,-2.7073,-2.7073,-2.7073,-2.7073,-2.7073,-2.7073,-2.7323,-2.7614,-2.7884,-2.8002,-2.8016,-2.8235,-2.8339,-2.8155,-2.8162,-2.7974,-2.8032,-2.8146,-2.8107,-2.8142,-2.8267,-2.8093,-2.7902,-2.7676,-2.753,-2.7403,-2.7384,-2.7614,-2.7876,-2.8007,-2.8624,-2.8619,-2.8823,-2.8991,-2.9693,-3.0537,-3.1215,-3.1576,-3.1633,-3.1736,-3.1855,-3.1914,-3.2336,-3.2645,-3.2594,-3.2594,-3.2594,-3.2645,-3.2695,-3.2745,-3.2594,-3.2218,-3.1986,-3.1746,-3.1533,-3.13,-3.1641,-3.239,-3.2119,-3.2017,-3.2272,-3.2453,-3.3192,-3.3342,-3.3442,-3.3519,-3.3618,-3.3717,-3.384,-3.3915,-3.4014,-3.4064,-3.4113,-3.4089,-3.4139,-3.4144,-3.4194,-3.4289,-3.4341,-3.4339,-3.4139,-3.3912,-3.4218,-3.4609,-3.5236,-3.6099,-3.6321,-3.6496,-2.5792,-2.6203,-2.6111,-2.608,-2.6264,-2.7096,-2.7781,-2.814,-2.8066,-2.8032,-2.8015,-2.7929,-2.7792,-2.7878,-2.7878,-2.7843,-2.7843,-2.7826,-2.7655,-2.7569,-2.745,-2.7295,-2.7176,-2.7107,-2.709,-2.7073,-2.7073,-2.7073,-2.7073,-2.7073,-2.709,-2.7073,-2.709,-2.709,-2.7194,-2.7358,-2.7391,-2.7502,-2.773,-2.776,-2.76,-2.7422,-2.7351,-2.732,-2.7604,-2.7537,-2.7523,-2.7958,-2.7902,-2.7768,-2.7748,-2.7544,-2.6463,-2.6463,-2.661,-2.6885,-2.7977,-2.9222,-2.8597,-2.8672,-2.8786,-2.8729,-2.9336,-2.9839,-3.0269,-3.0512,-3.0496,-3.0736,-3.079,-3.1063,-3.1196,-3.1184,-3.1288,-3.1361,-3.1413,-3.1465,-3.1486,-3.1486,-3.1102,-3.0884,-3.0632,-3.063,-3.036,-3.0831,-3.1422,-3.1063,-3.0999,-3.1334,-3.1796,-3.2527,-3.3055,-3.3083,-3.3434,-3.3608,-3.3465,-3.3515,-3.3641,-3.3717,-3.3767,-3.3866,-3.3965,-3.4014,-3.4113,-3.4162,-3.4211,-3.4262,-3.4315,-3.4126,-3.3861,-3.3763,-3.4081,-3.4735,-3.5287,-3.5555,-3.5891,-2.4467,-2.494,-2.5008,-2.5008,-2.5143,-2.595,-2.6635,-2.7068,-2.7966,-2.8426,-2.8408,-2.8237,-2.8186,-2.8169,-2.8152,-2.8152,-2.8152,-2.81,-2.8015,-2.7912,-2.7764,-2.7604,-2.7415,-2.7261,-2.7193,-2.7141,-2.709,-2.7073,-2.7107,-2.7107,-2.7107,-2.7295,-2.7193,-2.709,-2.7133,-2.7133,-2.7133,-2.7116,-2.7177,-2.7073,-2.697,-2.6833,-2.6765,-2.6781,-2.707,-2.7082,-2.7022,-2.764,-2.7537,-2.7227,-2.7173,-2.6839,-2.6081,-2.6151,-2.6257,-2.6601,-2.7315,-2.7907,-2.7673,-2.7803,-2.8064,-2.8159,-2.8086,-2.8357,-2.8785,-2.9199,-2.943,-2.9689,-2.963,-2.957,-2.9533,-2.9554,-2.9682,-2.9863,-2.9916,-2.997,-3.0044,-3.0097,-2.9903,-2.9749,-2.9673,-2.9749,-2.9899,-3.0364,-3.0573,-3.037,-3.0566,-3.1028,-3.1359,-3.1891,-3.2398,-3.2619,-3.3186,-3.3641,-3.3398,-3.3151,-3.3353,-3.348,-3.3519,-3.3618,-3.379,-3.3817,-3.3767,-3.3866,-3.4087,-3.4139,-3.419,-3.412,-3.3909,-3.3887,-3.3935,-3.4499,-3.494,-3.5079,-3.5447,-2.3379,-2.4535,-2.467,-2.4399,-2.467,-2.4738,-2.4844,-2.5113,-2.7278,-2.8432,-2.8219,-2.7997,-2.7721,-2.7468,-2.7468,-2.7516,-2.7421,-2.7421,-2.7291,-2.7921,-2.7777,-2.7512,-2.7306,-2.7576,-2.7552,-2.7313,-2.7227,-2.7398,-2.7305,-2.7313,-2.7484,-2.7621,-2.7398,-2.733,-2.7364,-2.7227,-2.7227,-2.721,-2.7141,-2.7073,-2.7073,-2.7056,-2.7073,-2.7056,-2.7091,-2.7005,-2.6687,-2.6533,-2.6354,-2.6114,-2.6035,-2.6076,-2.6059,-2.6248,-2.6403,-2.6565,-2.6863,-2.6939,-2.6964,-2.7016,-2.6932,-2.6994,-2.691,-2.7287,-2.7848,-2.8141,-2.846,-2.8483,-2.8408,-2.8333,-2.8331,-2.8366,-2.8477,-2.8588,-2.868,-2.8754,-2.8865,-2.8939,-2.8851,-2.8705,-2.8746,-2.8786,-2.8861,-2.9239,-2.9402,-2.9495,-2.9581,-3.0093,-3.0649,-3.1042,-3.156,-3.193,-3.2433,-3.2827,-3.279,-3.2694,-3.3067,-3.3232,-3.3151,-3.3342,-3.3492,-3.3492,-3.3419,-3.3568,-3.379,-3.3915,-3.3991,-3.3946,-3.3948,-3.412,-3.4219,-3.4387,-3.4583,-3.4708,-3.4956,-2.1415,-2.176,-2.176,-2.176,-2.1885,-2.2901,-2.3297,-2.3502,-2.5137,-2.5895,-2.588,-2.5871,-2.5876,-2.6028,-2.6079,-2.6013,-2.5978,-2.6215,-2.5657,-2.6043,-2.6501,-2.6777,-2.6693,-2.7134,-2.7587,-2.7963,-2.7929,-2.7515,-2.7407,-2.7628,-2.7849,-2.7969,-2.786,-2.7809,-2.7792,-2.7638,-2.7484,-2.7467,-2.7244,-2.7158,-2.7141,-2.7107,-2.7073,-2.7073,-2.7039,-2.7039,-2.6902,-2.6902,-2.6679,-2.6439,-2.6371,-2.6217,-2.5977,-2.6319,-2.6319,-2.6234,-2.6628,-2.6696,-2.6679,-2.6747,-2.685,-2.6902,-2.7021,-2.7056,-2.7228,-2.733,-2.7393,-2.734,-2.7262,-2.7311,-2.7262,-2.7323,-2.7344,-2.7441,-2.7612,-2.7726,-2.784,-2.7799,-2.7815,-2.7867,-2.7839,-2.7907,-2.8011,-2.8093,-2.822,-2.8134,-2.7952,-2.8295,-2.9088,-2.9646,-3.0409,-3.0867,-3.1383,-3.1698,-3.187,-3.2168,-3.2494,-3.2529,-3.2479,-3.275,-3.3133,-3.3247,-3.3237,-3.3311,-3.3442,-3.3711,-3.3834,-3.3767,-3.3866,-3.4064,-3.4162,-3.4261,-3.4261,-3.4342,-3.4607,-2.0665,-2.0665,-2.0665,-2.0665,-2.0873,-2.154,-2.1885,-2.2009,-2.2777,-2.3119,-2.3379,-2.4331,-2.494,-2.494,-2.5008,-2.4873,-2.4873,-2.5061,-2.5145,-2.516,-2.5188,-2.5434,-2.5885,-2.6278,-2.5975,-2.6296,-2.6328,-2.6184,-2.6745,-2.7062,-2.714,-2.7513,-2.7751,-2.8094,-2.8123,-2.7918,-2.7798,-2.786,-2.7439,-2.7347,-2.7278,-2.7193,-2.709,-2.7073,-2.7073,-2.7073,-2.7073,-2.7073,-2.6953,-2.6799,-2.6765,-2.6696,-2.6559,-2.6679,-2.6662,-2.6645,-2.6816,-2.703,-2.6884,-2.6919,-2.7073,-2.7073,-2.7073,-2.7073,-2.7073,-2.7254,-2.7237,-2.7165,-2.7148,-2.7162,-2.7145,-2.7169,-2.7151,-2.727,-2.727,-2.7329,-2.7388,-2.7405,-2.75,-2.7653,-2.7683,-2.7778,-2.7884,-2.8045,-2.8097,-2.8079,-2.771,-2.762,-2.8213,-2.8544,-2.926,-2.9885,-3.0406,-3.0942,-3.1371,-3.1596,-3.1852,-3.1803,-3.171,-3.224,-3.2685,-3.3005,-3.3167,-3.326,-3.3452,-3.3738,-3.3815,-3.3646,-3.3688,-3.3889,-3.3939,-3.3965,-3.3988,-3.4061,-3.4239,-2.0665,-2.0665,-2.0665,-2.0665,-2.0665,-2.0735,-2.0735,-2.0735,-2.0735,-2.0804,-2.1207,-2.3311,-2.4331,-2.4467,-2.4467,-2.4467,-2.4263,-2.372,-2.4032,-2.4167,-2.4491,-2.4439,-2.4457,-2.4554,-2.4833,-2.4794,-2.4734,-2.4803,-2.5032,-2.5605,-2.6226,-2.6581,-2.7117,-2.7768,-2.7798,-2.7938,-2.7794,-2.771,-2.7616,-2.7661,-2.7518,-2.7295,-2.7141,-2.7073,-2.7073,-2.7073,-2.7073,-2.7073,-2.7073,-2.7056,-2.7004,-2.697,-2.6953,-2.6953,-2.697,-2.697,-2.697,-2.7056,-2.7039,-2.7039,-2.7073,-2.7073,-2.7073,-2.709,-2.709,-2.709,-2.7073,-2.7056,-2.7056,-2.7039,-2.7021,-2.7021,-2.7004,-2.7065,-2.7065,-2.7082,-2.7082,-2.7082,-2.7263,-2.7444,-2.7504,-2.7642,-2.7719,-2.784,-2.79,-2.7917,-2.796,-2.796,-2.8026,-2.8181,-2.8568,-2.9079,-2.9584,-3.0152,-3.0625,-3.0777,-3.083,-3.107,-3.1066,-3.1755,-3.2212,-3.2265,-3.2625,-3.3315,-3.3518,-3.3317,-3.3418,-3.3401,-3.348,-3.3723,-3.385,-3.397,-3.3927,-3.3953,-3.3962,-2.0665,-2.0665,-2.0665,-2.0665,-2.0665,-2.0665,-2.0665,-2.0665,-2.0665,-2.0665,-2.0873,-2.1012,-2.1553,-2.1553,-2.1484,-2.1691,-2.2229,-2.2022,-2.1691,-2.1553,-2.2832,-2.312,-2.327,-2.366,-2.4578,-2.4439,-2.4166,-2.4631,-2.4079,-2.464,-2.5219,-2.5316,-2.5398,-2.5774,-2.5876,-2.623,-2.6907,-2.6939,-2.74,-2.7563,-2.7549,-2.7322,-2.7158,-2.7073,-2.7073,-2.7073,-2.7073,-2.7073,-2.7073,-2.7073,-2.7073,-2.7073,-2.7073,-2.7073,-2.7073,-2.7073,-2.7073,-2.7073,-2.7073,-2.7073,-2.7073,-2.709,-2.7107,-2.7141,-2.7141,-2.7141,-2.7124,-2.7124,-2.7168,-2.7073,-2.7056,-2.7056,-2.7056,-2.7056,-2.7116,-2.7116,-2.7116,-2.7116,-2.7177,-2.7254,-2.7289,-2.7349,-2.7367,-2.7505,-2.7583,-2.7626,-2.7634,-2.7694,-2.7867,-2.7953,-2.7995,-2.8385,-2.8788,-2.8943,-2.9266,-2.9505,-2.9601,-2.9986,-3.0396,-3.0918,-3.1201,-3.1332,-3.1801,-3.276,-3.2599,-3.2201,-3.2393,-3.2919,-3.3496,-3.3673,-3.3879,-3.3991,-3.395,-3.3981,-3.4086]},{"header":{"parameterUnit":"m.s-1","parameterCategory":1,"la1":31.0,"la2":29.5877,"lo1":-88.7671,"lo2":-86.6584,"dy":0.0162,"dx":0.0185,"nx":115,"ny":88,"refTime":"2026-04-08T00:00:00:Z","depth":0,"parameterNumber":3,"parameterNumberName":"V-component_of_WINDS"},"data":[0.0,0.0,0.0,0.0,0.0,0.0,0.0,0.0,0.0,0.0,0.0,0.0,0.0,0.0,0.0,0.0,0.0,0.0,0.0,0.0,0.0,0.0,0.0,0.0,0.0,0.0,0.0,0.0,0.0,0.0,0.0,0.0,0.0,0.0,0.0,0.0,0.0,0.0,0.0,0.0,0.0,0.0,0.0,0.0,0.0,0.0,0.0,0.0,0.0,0.0,0.0,0.0,0.0,0.0,0.0,0.0,0.0,0.0,0.0,0.0,0.0,0.0,0.0,0.0,0.0,0.0,0.0,0.0,0.0,0.0,0.0,0.0,0.0,0.0,0.0,0.0,0.0,0.0,0.0,0.0,0.0,0.0,0.0,0.0,0.0,0.0,0.0,0.0,0.0,0.0,0.0,0.0,0.0,0.0,0.0,0.0,0.0,0.0,0.0,0.0,0.0,0.0,0.0,0.0,0.0,0.0,0.0,0.0,0.0,0.0,0.0,0.0,0.0,0.0,0.0,0.0,0.0,0.0,0.0,0.0,0.0,0.0,0.0,0.0,0.0,0.0,0.0,0.0,0.0,0.0,0.0,0.0,0.0,0.0,0.0,0.0,0.0,0.0,0.0,0.0,0.0,0.0,0.0,0.0,0.0,0.0,0.0,0.0,0.0,0.0,0.0,0.0,0.0,0.0,0.0,0.0,0.0,0.0,0.0,0.0,0.0,0.0,0.0,0.0,0.0,0.0,0.0,0.0,0.0,0.0,0.0,0.0,0.0,0.0,0.0,0.0,0.0,0.0,0.0,0.0,0.0,0.0,0.0,0.0,0.0,0.0,0.0,0.0,0.0,0.0,0.0,0.0,0.0,0.0,0.0,0.0,0.0,0.0,0.0,0.0,0.0,0.0,0.0,0.0,0.0,0.0,0.0,0.0,0.0,0.0,0.0,0.0,0.0,0.0,0.0,0.0,0.0,0.0,0.0,0.0,0.0,0.0,0.0,0.0,0.0,0.0,0.0,0.0,0.0,0.0,0.0,0.0,0.0,0.0,0.0,0.0,0.0,0.0,0.0,0.0,0.0,0.0,0.0,0.0,0.0,0.0,0.0,0.0,0.0,0.0,0.0,0.0,0.0,0.0,0.0,0.0,0.0,0.0,0.0,0.0,0.0,0.0,0.0,0.0,0.0,0.0,0.0,0.0,0.0,0.0,0.0,0.0,0.0,0.0,0.0,0.0,0.0,0.0,0.0,0.0,0.0,0.0,0.0,0.0,0.0,0.0,0.0,0.0,0.0,0.0,0.0,0.0,0.0,0.0,0.0,0.0,0.0,0.0,0.0,0.0,0.0,0.0,0.0,0.0,0.0,0.0,0.0,0.0,0.0,0.0,0.0,0.0,0.0,0.0,0.0,0.0,0.0,0.0,0.0,0.0,0.0,0.0,0.0,0.0,0.0,0.0,0.0,0.0,0.0,0.0,0.0,0.0,0.0,0.0,0.0,0.0,0.0,0.0,0.0,0.0,0.0,0.0,0.0,0.0,0.0,0.0,0.0,0.0,0.0,0.0,0.0,0.0,0.0,0.0,0.0,0.0,0.0,0.0,0.0,0.0,0.0,0.0,0.0,0.0,0.0,0.0,0.0,0.0,0.0,0.0,0.0,0.0,0.0,0.0,0.0,0.0,0.0,0.0,0.0,0.0,0.0,0.0,0.0,0.0,0.0,0.0,0.0,0.0,0.0,0.0,0.0,0.0,0.0,0.0,0.0,0.0,0.0,0.0,0.0,0.0,0.0,0.0,0.0,0.0,0.0,0.0,0.0,0.0,0.0,0.0,0.0,0.0,0.0,0.0,0.0,0.0,0.0,0.0,0.0,0.0,0.0,0.0,0.0,0.0,0.0,0.0,0.0,0.0,0.0,0.0,0.0,0.0,0.0,0.0,0.0,0.0,0.0,0.0,0.0,0.0,0.0,0.0,0.0,0.0,0.0,0.0,0.0,0.0,0.0,0.0,0.0,0.0,0.0,0.0,0.0,0.0,0.0,0.0,0.0,0.0,0.0,0.0,0.0,0.0,0.0,0.0,0.0,0.0,0.0,0.0,0.0,0.0,0.0,0.0,0.0,0.0,0.0,0.0,0.0,0.0,0.0,0.0,0.0,0.0,0.0,0.0,0.0,0.0,0.0,0.0,0.0,0.0,0.0,0.0,0.0,0.0,0.0,0.0,0.0,0.0,0.0,0.0,0.0,0.0,0.0,0.0,0.0,0.0,0.0,0.0,0.0,0.0,0.0,0.0,0.0,0.0,0.0,0.0,0.0,0.0,0.0,0.0,0.0,0.0,0.0,0.0,0.0,0.0,0.0,0.0,0.0,0.0,0.0,0.0,0.0,0.0,0.0,0.0,0.0,0.0,0.0,0.0,0.0,0.0,0.0,0.0,0.0,0.0,0.0,0.0,0.0,0.0,0.0,0.0,0.0,0.0,0.0,0.0,0.0,0.0,0.0,0.0,0.0,0.0,0.0,0.0,0.0,0.0,0.0,0.0,0.0,0.0,0.0,0.0,0.0,0.0,0.0,0.0,0.0,0.0,0.0,0.0,0.0,0.0,0.0,0.0,0.0,0.0,0.0,0.0,0.0,0.0,0.0,0.0,0.0,0.0,0.0,0.0,0.0,0.0,0.0,0.0,0.0,0.0,0.0,0.0,0.0,0.0,0.0,0.0,0.0,0.0,0.0,0.0,0.0,0.0,0.0,0.0,0.0,0.0,0.0,0.0,0.0,0.0,0.0,0.0,0.0,0.0,0.0,0.0,0.0,0.0,0.0,0.0,0.0,0.0,0.0,0.0,0.0,0.0,0.0,0.0,0.0,0.0,0.0,0.0,0.0,0.0,0.0,0.0,0.0,0.0,0.0,0.0,0.0,0.0,0.0,0.0,0.0,0.0,0.0,0.0,0.0,0.0,0.0,0.0,0.0,0.0,0.0,0.0,0.0,0.0,0.0,0.0,0.0,0.0,0.0,0.0,0.0,0.0,0.0,0.0,0.0,0.0,0.0,0.0,0.0,0.0,0.0,0.0,0.0,0.0,0.0,0.0,0.0,0.0,0.0,0.0,0.0,0.0,0.0,0.0,0.0,0.0,0.0,0.0,0.0,0.0,0.0,0.0,0.0,0.0,0.0,0.0,0.0,0.0,0.0,0.0,0.0,0.0,0.0,0.0,0.0,0.0,0.0,0.0,0.0,0.0,0.0,0.0,0.0,0.0,0.0,0.0,0.0,0.0,0.0,0.0,0.0,0.0,0.0,0.0,0.0,0.0,0.0,0.0,0.0,0.0,0.0,0.0,0.0,0.0,0.0,0.0,0.0,0.0,0.0,0.0,0.0,0.0,0.0,0.0,0.0,0.0,0.0,0.0,0.0,0.0,0.0,0.0,0.0,0.0,0.0,0.0,0.0,0.0,0.0,0.0,0.0,0.0,0.0,0.0,0.0,0.0,0.0,0.0,0.0,0.0,0.0,0.0,0.0,0.0,0.0,0.0,0.0,0.0,0.0,0.0,0.0,0.0,0.0,0.0,0.0,0.0,0.0,0.0,0.0,0.0,0.0,0.0,0.0,0.0,0.0,0.0,0.0,0.0,0.0,0.0,0.0,0.0,0.0,0.0,0.0,0.0,0.0,0.0,0.0,0.0,0.0,0.0,0.0,0.0,0.0,0.0,0.0,0.0,0.0,0.0,0.0,0.0,0.0,0.0,0.0,0.0,0.0,0.0,0.0,0.0,0.0,0.0,0.0,0.0,0.0,0.0,0.0,0.0,0.0,0.0,0.0,0.0,0.0,0.0,0.0,0.0,0.0,0.0,0.0,0.0,0.0,0.0,0.0,0.0,0.0,0.0,0.0,0.0,0.0,0.0,0.0,0.0,0.0,0.0,0.0,0.0,0.0,0.0,0.0,0.0,0.0,0.0,0.0,0.0,0.0,0.0,0.0,0.0,0.0,0.0,0.0,0.0,0.0,0.0,0.0,0.0,0.0,0.0,0.0,0.0,0.0,0.0,0.0,0.0,0.0,0.0,0.0,0.0,0.0,0.0,0.0,0.0,0.0,0.0,0.0,0.0,0.0,0.0,0.0,0.0,0.0,0.0,0.0,0.0,0.0,0.0,0.0,0.0,0.0,0.0,0.0,0.0,0.0,0.0,0.0,0.0,0.0,0.0,0.0,0.0,0.0,0.0,0.0,0.0,0.0,0.0,0.0,0.0,0.0,0.0,0.0,0.0,0.0,0.0,0.0,0.0,0.0,0.0,0.2256,0.0,0.0,0.0,0.0,0.0,0.0,0.0,0.0,0.0,0.0,0.0,0.0,0.0,0.0,0.0,0.0,0.0,0.0,0.0,0.0,0.0,0.0,0.0,0.0,0.0,0.0,0.0,0.0,0.0,0.0,0.0,0.0,0.0,0.0,0.0,0.0,0.0,0.0,0.0,0.0,0.0,0.0,0.0,0.0,0.0,0.0,0.0,0.0,0.0,0.0,0.0,0.0,0.0,0.0,0.0,0.0,0.0,0.0,0.0,0.0,0.0,0.0,0.0,0.0,0.0,0.0,0.0,0.0,0.0,0.0,0.0,0.0,0.0,0.0,0.0,0.0,0.0,0.0,0.0,0.0,0.0,0.0,0.0,0.0,0.0,0.0,0.0,0.0,0.0,0.0,0.0,0.0,0.0,0.0,0.0,0.0,0.0,0.0,0.0,0.0,0.0,0.0,0.0,0.0,0.0,0.0,0.0,0.0,0.0,0.0,0.2454,0.2424,0.2282,0.2181,0.2192,0.0,0.0,0.0,0.0,0.0,0.0,0.0,0.0,0.0,0.0,0.0,0.0,0.0,0.0,0.0,0.0,0.0,0.0,0.0,0.0,0.0,0.0,0.0,0.0,0.0,0.0,0.0,0.0,0.0,0.0,0.0,0.0,0.0,0.0,0.0,0.0,0.0,0.0,0.0,0.0,0.0,0.0,0.0,0.0,0.0,0.0,0.0,0.0,0.0,0.0,0.0,0.0,0.0,0.0,0.0,0.0,0.0,0.0,0.0,0.0,0.0,0.0,0.0,0.0,0.0,0.0,0.0,0.0,0.0,0.0,0.0,0.0,0.0,0.0,0.0,0.0,0.0,0.0,0.0,0.0,0.0,0.0,0.0,0.0,0.0,0.0,0.0,0.0,0.0,0.0,0.0,0.0,0.0,0.0,0.0,0.0,0.0,0.0,0.0,0.0,0.0,0.0,0.0,0.0,0.0,0.0,0.0,0.0,0.0,0.0,0.0,0.0,0.2148,0.2115,0.2162,0.0,0.0,0.0,0.0,0.0,0.0,0.0,0.0,0.0,0.0,0.0,0.0,0.0,0.0,0.0,0.0,0.0,0.0,0.0,0.0,0.0,0.0,0.0,0.0,0.0,0.0,0.0,0.0,0.0,0.0,0.0,0.0,0.0,0.0,0.0,0.0,0.0,0.0,0.0,0.0,0.0,0.0,0.0,0.0,0.0,0.0,0.0,0.0,0.0,0.0,0.0,0.0,0.0,0.0,0.0,0.0,0.0,0.0,0.0,0.0,0.0,0.0,0.0,0.0,0.0,0.0,0.0,0.0,0.0,0.0,0.0,0.0,0.0,0.0,0.0,0.0,0.0,0.0,0.0,0.0,0.0,0.0,0.0,0.0,0.0,0.0,0.0,0.0,0.0,0.0,0.0,0.0,0.0,0.0,0.0,0.0,0.0,0.0,0.0,0.0,0.0,0.0,0.0,0.0,0.0,0.0,0.0,0.0,0.0,0.0,0.2055,0.2099,0.1929,0.0,0.1993,0.0,0.0,0.0,0.0,0.0,0.0,0.0,0.0,0.0,0.0,0.0,0.0,0.0,0.0,0.0,0.0,0.0,0.0,0.0,0.0,0.0,0.0,0.0,0.0,0.0,0.0,0.0,0.0,0.0,0.0,0.0,0.0,0.0,0.0,0.0,0.0,0.0,0.0,0.0,0.0,0.0,0.0,0.0,0.0,0.0,0.0,0.0,0.0,0.0,0.0,0.0,0.0,0.0,0.0,0.0,0.0,0.0,0.0,0.0,0.0,0.0,0.0,0.0,0.0,0.0,0.0,0.0,0.0,0.0,0.0,0.0,0.0,0.0,0.0,0.0,0.0,0.0,0.0,0.0,0.0,0.0,0.0,0.0,0.0,0.0,0.0,0.0,0.0,0.0,0.0,0.0,0.0,0.0,0.0,0.0,0.0,0.0,0.0,0.0,0.0,0.0,0.0,0.0,0.0,0.0,0.0,0.0,0.0,0.0,0.0,0.2017,0.1859,0.1768,0.177,0.0,0.0,0.0,0.0,0.0,0.0,0.0,0.0,0.0,0.0,0.0,0.0,0.0,0.0,0.0,0.0,0.0,0.0,0.0,0.0,0.0,0.0,0.0,0.0,0.0,0.0,0.0,0.0,0.0,0.0,0.0,0.0,0.0,0.0,0.0,0.0,0.0,0.0,0.0,0.0,0.0,0.0,0.0,0.0,0.0,0.0,0.0,0.0,0.0,0.0,0.0,0.0,0.0,0.0,0.0,0.0,0.0,0.0,0.0,0.0,0.0,0.0,0.0,0.0,0.0,0.0,0.0,0.0,0.0,0.0,0.0,0.0,0.0,0.0,0.0,0.0,0.0,0.0,0.0,0.0,0.0,0.0,0.0,0.0,0.0,0.0,0.0,0.0,0.0,0.0,0.0,0.0,0.0,0.0,0.0,0.0,0.0,0.0,0.0,0.0,0.0,0.0,0.0,0.0,0.0,0.0,0.0,0.0,0.0,0.0,0.1946,0.1797,0.1601,0.1601,0.1592,0.1604,0.0,0.0,0.0,0.0,0.0,0.0,0.0,0.0,0.0,0.0,0.0,0.0,0.0,0.0,0.0,0.0,0.0,0.0,0.0,0.0,0.0,0.0,0.0,0.0,0.0,0.0,0.0,0.0,0.0,0.0,0.0,0.0,0.0,0.0,0.0,0.0,0.0,0.0,0.0,0.0,0.0,0.0,0.0,0.0,0.0,0.0,0.0,0.0,0.0,0.0,0.0,0.0,0.0,0.0,0.0,0.0,0.0,0.0,0.0,0.0,0.0,0.0,0.0,0.0,0.0,0.0,0.0,0.0,0.0,0.0,0.0,0.0,0.0,0.0,0.0,0.0,0.0,0.0,0.0,0.0,0.0,0.0,0.0,0.0,0.0,0.0,0.0,0.0,0.0,0.0,0.0,0.0,0.0,0.0,0.0,0.0,0.0,0.0,0.0,0.0,0.0,0.0,0.0,0.0,0.0,0.0,0.0,0.0,0.2163,0.1681,0.1421,0.133,0.1292,0.134,0.0,0.0,0.0,0.0,0.0,0.0,0.0,0.0,0.0,0.0,0.0,0.0,0.0,0.0,0.0,0.0,0.0,0.0,0.0,0.0,0.0,0.0,0.0,0.0,0.0,0.0,0.0,0.0,0.0,0.0,0.0,0.0,0.0,0.0,0.0,0.0,0.0,0.0,0.0,0.0,0.0,0.0,0.0,0.0,0.0,0.0,0.0,0.0,0.0,0.0,0.0,0.0,0.0,0.0,0.0,0.0,0.0,0.0,0.0,0.0,0.0,0.0,0.0,0.0,0.0,0.0,0.0,0.0,0.0,0.0,0.0,0.0,0.0,0.0,0.0,0.0,0.0,0.0,0.0,0.0,0.0,0.0,0.0,0.0,0.0,0.0,0.0,0.0,0.0,0.0,0.0,0.0,0.0,0.0,0.0,0.0,0.0,0.0,0.0,0.0,0.0,0.0,0.0,0.0,0.0,0.0,0.0,0.0,0.0,0.1636,0.141,0.1291,0.1307,0.1241,0.1236,0.0,0.0,0.0,0.0,0.0,0.0,0.0,0.0,0.0,0.0,0.0,0.0,0.0,0.0,0.0,0.0,0.0,0.0,0.0,0.0,0.0,0.0,0.0,0.0,0.0,0.0,0.0,0.0,0.0,0.0,0.0,0.0,0.0,0.0,0.0,0.0,0.0,0.0,0.0,0.0,0.0,0.0,0.0,0.0,0.0,0.0,0.0,0.0,0.0,0.0,0.0,0.0,0.0,0.0,0.0,0.0,0.0,0.0,0.0,0.0,0.0,0.0,0.0,0.0,0.0,0.0,0.0,0.0,0.0,0.0,0.0,0.0,0.0,0.0,0.0,0.0,0.0,0.0,0.0,0.0,0.0,0.0,0.0,0.0,0.0,0.0,0.0,0.0,0.0,0.0,0.0,0.0,0.0,0.0,0.0,0.0,0.0,0.0,0.0,0.0,0.0,0.0,0.0,0.0,0.0,0.0,0.0,0.0,0.0,0.1329,0.0,0.1269,0.1284,0.1245,0.1224,0.0,0.0,0.0,0.0,0.0,0.0,0.0,0.0,0.0,0.0,0.0,0.0,0.0,0.0,0.0,0.0,0.0,0.0,0.0,0.0,0.0,0.0,0.0,0.0,0.0,0.0,0.0,0.0,0.0,0.0,0.0,0.0,0.0,0.0,0.0,0.0,0.0,0.0,0.0,0.0,0.0,0.0,0.0,0.0,0.0,0.0,0.0,0.0,0.0,0.0,0.0,0.0,0.0,0.0,0.0,0.0,0.0,0.0,0.0,0.0,0.0,0.0,0.0,0.0,0.0,0.0,0.0,0.0,0.0,0.0,0.0,0.0,0.0,0.0,0.0,0.0,0.0,0.0,0.0,0.0,0.0,0.0,0.0,0.0,0.0,0.0,0.0,0.0,0.0,0.0,0.0,0.0,0.0,0.0,0.0,0.0,0.0,0.0,0.0,0.0,0.0,0.0,0.0,0.0,0.0,0.0,0.0,0.0,0.1512,0.1292,0.1351,0.1354,0.1306,0.131,0.1237,0.0,0.0,0.0,0.0,0.0,0.0,0.0,0.0,0.0,0.0,0.0,0.0,0.0,0.0,0.0,0.0,0.0,0.0,0.0,0.0,0.0,0.0,0.0,0.0,0.0,0.0,0.0,0.0,0.0,0.0,0.0,0.0,0.0,0.0,0.0,0.0,0.0,0.0,0.0,0.0,0.0,0.0,0.0,0.0,0.0,0.0,0.0,0.0,0.0,0.0,0.0,0.0,0.0,0.0,0.0,0.0,0.0,0.0,0.0,0.0,0.0,0.0,0.0,0.0,0.0,0.0,0.0,0.0,0.0,0.0,0.0,0.0,0.0,0.0,0.0,0.0,0.0,0.0,0.0,0.0,0.0,0.0,0.0,0.0,0.0,0.0,0.0,0.0,0.0,0.0,0.0,0.0,0.0,0.0,0.0,0.0,0.0,0.0,0.0,0.0,0.0,0.0,0.0,0.0,0.0,0.0,0.0,0.0,0.0,0.1241,0.1317,0.1329,0.1386,0.1264,0.1234,0.0,0.0,0.0,0.0,0.0,0.0,0.0,0.0,0.0,0.0,0.0,0.0,0.0,0.0,0.0,0.0,0.0,0.0,0.0,0.0,0.0,0.0,0.0,0.0,0.0,0.0,0.0,0.0,0.0,0.0,0.0,0.0,0.0,0.0,0.0,0.0,0.0,0.0,0.0,0.0,0.0,0.0,0.0,0.0,0.0,0.0,0.0,0.0,0.0,0.0,0.0,0.0,0.0,0.0,0.0,0.0,0.0,0.0,0.0,0.0,0.0,0.0,0.0,0.0,0.0,0.0,0.0,0.0,0.0,0.0,0.0,0.0,0.0,0.0,0.0,0.0,0.0,0.0,0.0,0.0,0.0,0.0,0.0,0.0,0.0,0.0,0.0,0.0,0.0,0.0,0.0,0.0,0.0,0.0,0.0,0.0,0.0,0.0,0.0,0.0,0.0,0.0,0.0,0.0,0.0,0.0,0.0,0.0,0.0,0.1954,0.1638,0.1472,0.1422,0.1326,0.1279,0.126,0.0,0.0,0.0,0.0,0.0,0.0,0.0,0.0,0.0,0.0,0.0,0.0,0.0,0.0,0.0,0.0,0.0,0.0,0.0,0.0,0.0,0.0,0.0,0.0,0.0,0.0,0.0,0.0,0.0,0.0,0.0,0.0,0.0,0.0,0.0,0.0,0.0,0.0,0.0,0.0,0.0,0.0,0.0,0.0,0.0,0.0,0.0,0.0,0.0,0.0,0.0,0.0,0.0,0.0,0.0,0.0,0.0,0.0,0.0,0.0,0.0,0.0,0.0,0.0,0.0,0.0,0.0,0.0,0.0,0.0,0.0,0.0,0.0,0.0,0.0,0.0,0.0,0.0,0.0,0.0,0.0,0.0,0.0,0.0,0.0,0.0,0.0,0.0,0.0,0.0,0.0,0.0,0.0,0.0,0.0,0.0,0.0,0.0,0.0,0.0,0.0,0.0,0.0,0.0,0.0,0.0,0.0,0.0,0.3293,0.2333,0.1732,0.1542,0.1444,0.1325,0.0,0.0,0.0,0.0,0.0,0.0,0.0,0.0,0.0,0.0,0.0,0.0,0.0,0.0,0.0,0.0,0.0,0.0,0.0,0.0,0.0,0.0,0.0,0.0,0.0,0.0,0.0,0.0,0.0,0.0,0.0,0.0,0.0,0.0,0.0,0.0,0.0,0.0,0.0,0.0,0.0,0.0,0.0,0.0,0.0,0.0,0.0,0.0,0.0,0.0,0.0,0.0,0.0,0.0,0.0,0.0,0.0,0.0,0.0,0.0,0.0,0.0,0.0,0.0,0.0,0.0,0.0,0.0,0.0,0.0,0.0,0.0,0.0,0.0,0.0,0.0,0.0,0.0,0.0,0.0,0.0,0.0,0.0,0.0,0.0,0.0,0.0,0.0,0.0,0.0,0.0,0.0,0.0,0.0,0.0,0.0,0.0,0.0,0.0,0.0,0.0,0.0,0.0,0.0,0.0,0.0,0.0,0.0,0.0,0.3139,0.3233,0.2728,0.1743,0.1517,0.1395,0.0,0.0,0.0,0.0,0.0,0.0,0.0,0.0,0.0,0.0,0.0,0.0,0.0,0.0,0.0,0.0,0.0,0.0,0.0,0.0,0.0,0.0,0.0,0.0,0.0,0.0,0.0,0.0,0.0,0.0,0.0,0.0,0.0,0.0,0.0,0.0,0.0,0.0,0.0,0.0,0.0,0.0,0.0,0.0,0.0,0.0,0.0,0.0,0.0,0.0,0.0,0.0,0.0,0.0,0.0,0.0,0.0,0.0,0.0,0.0,0.0,0.0,0.0,0.0,0.0,0.0,0.0,0.0,0.0,0.0,0.0,0.0,0.0,0.0,0.0,0.0,0.0,0.0,0.0,0.0,0.0,0.0,0.0,0.0,0.0,0.0,0.0,0.0,0.0,0.0,0.0,0.0,0.0,0.0,0.0,0.0,0.0,0.0,0.0,0.0,0.0,0.0,0.0,0.0,0.0,0.0,0.0,0.0,0.432,0.4962,0.4857,0.4394,0.3532,0.2651,0.1948,0.0,0.0,0.0,0.0,0.0,0.0,0.0,0.0,0.0,0.0,0.0,0.0,0.0,0.0,0.0,0.0,0.0,0.0,0.0,0.0,0.0,0.0,0.0,0.0,0.0,0.0,0.0,0.0,0.0,0.0,0.0,0.0,0.0,0.0,0.0,0.0,0.0,0.0,0.0,0.0,0.0,0.0,0.0,0.0,0.0,0.0,0.0,0.0,0.0,0.0,0.0,0.0,0.0,0.0,0.0,0.0,0.0,0.0,0.0,0.0,0.0,0.0,0.0,0.0,0.0,0.0,0.0,0.0,0.0,0.0,0.0,0.0,0.0,0.0,0.0,0.0,0.0,0.0,0.0,0.0,0.0,0.0,0.0,0.0,0.0,0.0,0.0,0.0,0.0,0.0,0.0,0.0,0.0,0.0,0.0,0.0,0.0,0.0,0.0,0.0,0.0,0.0,0.0,0.0,0.0,0.0,0.0,0.0,0.585,0.7508,0.6717,0.6196,0.597,0.4392,0.2912,0.0,0.0,0.0,0.0,0.0,0.0,0.0,0.0,0.0,0.0,0.0,0.0,0.0,0.0,0.0,0.0,0.0,0.0,0.0,0.0,0.0,0.0,0.0,0.0,0.0,0.0,0.0,0.0,0.0,0.0,0.0,0.0,0.0,0.0,0.0,0.0,0.0,0.0,0.0,0.0,0.0,0.0,0.0,0.0,0.0,0.0,0.0,0.0,0.0,0.0,0.0,0.0,0.0,0.0,0.0,0.0,0.0,0.0,0.0,0.0,0.0,0.0,0.0,0.0,0.0,0.0,0.0,0.0,0.0,0.0,0.0,0.0,0.0,0.0,0.0,0.0,0.0,0.0,0.0,0.0,0.0,0.0,0.0,0.0,0.0,0.0,0.0,0.0,0.0,0.0,0.0,0.0,0.0,0.0,0.0,0.0,0.0,0.0,0.0,0.0,0.0,0.0,0.0,0.0,0.0,0.0,0.0,0.0,0.7131,0.7766,0.76,0.7178,0.6465,0.5446,0.4297,0.0,0.0,0.0,0.0,0.0,0.0,0.0,0.0,0.0,0.0,0.0,0.0,0.0,0.0,0.0,0.0,0.0,0.0,0.0,0.0,0.0,0.0,0.0,0.0,0.0,0.0,0.0,0.0,0.0,0.0,0.0,0.0,0.0,0.0,0.0,0.0,0.0,0.0,0.0,0.0,0.0,0.0,0.0,0.0,0.0,0.0,0.0,0.0,0.5204,0.0,0.0,0.0,0.0,0.0,0.0,0.0,0.0,0.0,0.0,0.0,0.0,0.0,0.0,0.0,0.0,0.0,0.0,0.0,0.0,0.0,0.0,0.0,0.0,0.0,0.0,0.0,0.0,0.0,0.0,0.0,0.0,0.0,0.0,0.0,0.0,0.0,0.0,0.0,0.0,0.0,0.0,0.0,0.0,0.0,0.0,0.0,0.0,0.0,0.0,0.0,0.0,0.0,0.0,0.0,0.0,0.0,0.0,0.0,0.8395,0.8993,0.8944,0.8688,0.8357,0.7704,0.6417,0.0,0.0,0.0,0.0,0.0,0.0,0.0,0.0,0.0,0.0,0.0,0.0,0.0,0.0,0.0,0.0,0.0,0.0,0.0,0.0,0.0,0.0,0.0,0.0,0.0,0.0,0.0,0.0,0.0,0.0,0.0,0.0,0.0,0.0,0.0,0.0,0.0,0.0,0.0,0.0,0.0,0.0,0.0,0.0,0.0,0.0,0.0,0.0,0.0,0.0,0.0,0.0,0.0,0.0,0.0,0.0,0.0,0.0,0.0,0.0,0.0,0.0,0.0,0.0,0.0,0.0,0.0,0.0,0.0,0.0,0.0,0.0,0.0,0.0,0.0,0.0,0.0,0.0,0.0,0.0,0.0,0.0,0.0,0.0,0.0,0.0,0.0,0.0,0.0,0.0,0.0,0.0,0.0,0.0,0.0,0.0,0.0,0.0,0.0,0.0,0.0,0.0,0.0,0.0,0.0,0.0,0.0,0.8897,0.9421,1.039,1.0254,1.0204,1.0458,0.9975,0.8622,0.6344,0.0,0.0,0.0,0.0,0.0,0.0,0.0,0.0,0.0,0.0,0.0,0.0,0.0,0.0,0.0,0.0,0.0,0.0,0.0,0.0,0.0,0.0,0.0,0.0,0.0,0.0,0.0,0.0,0.0,0.0,0.0,0.0,0.0,0.0,0.0,0.0,0.0,0.0,0.6664,0.6722,0.0,0.0,0.0,0.0,0.0,0.0,0.0,0.0,0.4891,0.0,0.0,0.0,0.0,0.0,0.0,0.0,0.0,0.0,0.0,0.0,0.0,0.0,0.0,0.0,0.0,0.0,0.0,0.0,0.0,0.0,0.0,0.0,0.0,0.0,0.0,0.0,0.0,0.0,0.0,0.0,0.0,0.0,0.0,0.0,0.0,0.0,0.0,0.0,0.0,0.0,0.0,0.0,0.0,0.0,0.0,0.0,0.0,0.0,0.0,0.0,0.0,0.0,0.0,0.0,0.0,0.969,0.9249,0.9777,1.1241,1.0921,1.0882,1.1279,1.0682,0.9876,0.8958,0.0,0.0,0.0,0.0,0.0,0.0,0.0,0.0,0.0,0.0,0.0,0.0,0.0,0.0,0.0,0.0,0.0,0.0,0.0,0.0,0.0,0.0,0.0,0.0,0.0,0.0,0.0,0.0,0.0,0.0,0.0,0.0,0.0,0.0,0.0,0.0,0.0,0.0,0.0,0.7004,0.702,0.0,0.0,0.0,0.0,0.0,0.0,0.0,0.0,0.4968,0.0,0.0,0.0,0.0,0.0,0.0,0.0,0.0,0.0,0.0,0.0,0.0,0.0,0.0,0.0,0.0,0.0,0.0,0.0,0.0,0.0,0.0,0.0,0.0,0.0,0.0,0.0,0.0,0.0,0.0,0.0,0.0,0.0,0.0,0.0,0.0,0.0,0.0,0.0,0.0,0.0,0.0,0.0,0.0,0.0,0.0,0.0,0.0,0.0,0.0,0.0,0.0,0.0,0.0,0.0,0.9437,0.9721,1.0333,1.1355,1.1012,1.0967,1.1193,1.0465,0.9855,0.0,0.0,0.0,0.0,0.0,0.0,0.0,0.0,0.0,0.0,0.0,0.0,0.0,0.0,0.0,0.0,0.0,0.0,0.0,0.0,0.0,0.0,0.0,0.0,0.0,0.0,0.0,0.0,0.0,0.0,0.0,0.0,0.0,0.0,0.0,0.0,0.0,0.0,0.0,0.0,0.7404,0.751,0.774,0.0,0.0,0.0,0.0,0.0,0.0,0.6006,0.5365,0.0,0.0,0.0,0.0,0.0,0.0,0.0,0.0,0.0,0.0,0.0,0.0,0.0,0.0,0.0,0.0,0.0,0.0,0.0,0.0,0.0,0.0,0.0,0.0,0.0,0.0,0.0,0.0,0.0,0.0,0.0,0.0,0.0,0.0,0.0,0.0,0.0,0.0,0.0,0.0,0.0,0.0,0.0,0.0,0.0,0.0,0.0,0.0,0.0,0.0,0.0,0.0,0.0,0.0,0.0,0.9104,1.0217,1.0996,1.1358,1.1156,1.1019,1.1079,1.028,0.9614,0.0,0.0,0.0,0.0,0.0,0.0,0.0,0.0,0.0,0.0,0.0,0.0,0.0,0.0,0.0,0.0,0.0,0.0,0.0,0.0,0.0,0.0,0.0,0.0,0.0,0.0,0.0,0.0,0.0,0.0,0.0,0.0,0.0,0.0,0.0,0.0,0.0,0.0,0.0,0.0,0.0,0.8008,0.8243,0.7691,0.0,0.0,0.0,0.0,0.6832,0.6439,0.0,0.0,0.0,0.0,0.0,0.0,0.0,0.0,0.0,0.0,0.0,0.0,0.0,0.0,0.0,0.0,0.0,0.0,0.0,0.0,0.0,0.0,0.0,0.0,0.0,0.0,0.0,0.0,0.0,0.0,0.0,0.0,0.0,0.0,0.0,0.0,0.0,0.0,0.0,0.0,0.0,0.0,0.0,0.0,0.0,0.0,0.0,0.0,0.0,0.0,0.0,0.0,0.0,0.0,0.0,0.0,0.9173,1.0851,1.1717,1.1771,1.1716,1.1627,1.1433,1.073,0.9938,0.0,0.0,0.0,0.0,0.0,0.0,0.0,0.0,0.0,0.0,0.0,0.0,0.0,0.0,0.0,0.0,0.0,0.0,0.0,0.0,0.0,0.0,0.0,0.0,0.0,0.0,0.0,0.0,0.0,0.0,0.0,0.0,0.0,0.0,0.0,0.0,0.0,0.0,0.0,0.0,0.0,0.8243,0.8284,0.7772,0.7367,0.0,0.0,0.7595,0.7569,0.7862,0.0,0.0,0.0,0.0,0.0,0.0,0.0,0.0,0.0,0.0,0.0,0.0,0.0,0.0,0.0,0.0,0.0,0.0,0.0,0.0,0.0,0.0,0.0,0.0,0.0,0.0,0.0,0.0,0.0,0.0,0.0,0.0,0.0,0.0,0.0,0.0,0.0,0.0,0.0,0.0,0.0,0.0,0.0,0.0,0.0,0.0,0.0,0.0,0.0,0.0,0.0,0.0,0.0,0.0,0.0,0.9794,0.9198,1.1162,1.2096,1.1804,1.1837,1.1638,1.1346,1.0926,1.0141,0.0,0.0,0.0,0.0,0.0,0.0,0.0,0.0,0.0,0.0,0.0,0.0,0.0,0.0,0.0,0.0,0.0,0.0,0.0,0.0,0.0,0.0,0.0,0.0,0.0,0.0,0.0,0.0,0.0,0.0,0.0,0.0,0.0,0.0,0.0,0.0,0.0,0.0,0.0,0.0,0.0,0.0,0.8648,0.856,0.0,0.0,0.0,0.7687,0.7518,0.0,0.0,0.0,0.0,0.0,0.0,0.0,0.0,0.0,0.0,0.0,0.0,0.0,0.0,0.0,0.0,0.0,0.0,0.0,0.0,0.0,0.0,0.0,0.0,0.0,0.0,0.0,0.0,0.0,0.0,0.0,0.0,0.0,0.0,0.0,0.0,0.0,0.0,0.0,0.0,0.0,0.0,0.0,0.0,0.0,0.0,0.0,0.0,0.0,0.0,0.0,0.0,0.0,0.0,0.0,0.0,0.0,0.991,1.233,1.3344,1.2866,1.2824,1.2722,1.2346,1.1978,0.0,0.0,0.0,0.0,0.0,0.0,0.0,0.0,0.0,0.0,0.0,0.0,0.0,0.0,0.0,0.0,0.0,0.0,0.0,0.0,0.0,0.0,0.0,0.0,0.0,0.0,0.0,0.7259,0.0,0.0,0.0,0.0,0.0,0.0,0.0,0.0,0.0,0.0,0.0,0.0,0.0,0.0,0.9794,0.958,0.966,0.9598,0.0,0.0,0.7874,0.767,0.8005,0.7926,0.0,0.0,0.0,0.0,0.0,0.0,0.0,0.0,0.0,0.0,0.0,0.0,0.0,0.0,0.0,0.0,0.0,0.0,0.0,0.0,0.0,0.0,0.0,0.0,0.0,0.0,0.0,0.0,0.0,0.0,0.0,0.0,0.0,0.0,0.0,0.0,0.0,0.0,0.0,0.0,0.0,0.0,0.0,0.0,0.0,0.0,0.0,0.0,0.0,0.0,0.0,0.0,0.0,0.0,1.23,1.1948,1.5032,1.6335,1.5769,1.5723,1.56,1.5401,1.447,1.321,0.0,0.0,0.0,0.0,0.0,0.0,0.0,0.0,0.0,0.0,0.0,0.0,0.0,0.0,0.0,0.0,0.0,0.0,0.0,0.0,0.0,0.0,0.0,0.0,0.0,0.0,0.0,0.0,0.0,0.0,0.0,0.0,0.0,0.0,0.0,0.0,0.0,0.0,0.0,0.0,0.0,1.0435,1.1462,1.0804,1.0464,0.0,0.9608,0.8422,0.8559,0.8903,0.8648,0.7258,0.0,0.0,0.0,0.0,0.0,0.0,0.0,0.0,0.0,0.0,0.0,0.0,0.0,0.0,0.0,0.0,0.0,0.0,0.0,0.0,0.0,0.0,0.0,0.0,0.0,0.0,0.0,0.0,0.0,0.0,0.0,0.0,0.0,0.0,0.0,0.0,0.0,0.0,0.0,0.0,0.0,0.0,0.0,0.0,0.0,0.0,0.0,0.0,0.0,0.0,0.0,0.0,0.0,1.2768,1.2248,1.5009,1.6199,1.5727,1.5694,1.5592,1.5465,1.5158,1.4064,0.0,0.0,0.0,0.0,0.0,0.0,0.0,0.0,0.0,0.0,0.0,0.0,0.0,0.0,0.0,0.0,0.0,0.0,0.0,0.0,0.0,0.0,0.0,0.0,0.0,0.0,0.0,0.0,0.9784,1.0079,1.0007,0.0,0.0,0.0,0.0,0.0,0.0,0.0,0.0,0.0,0.0,1.1742,1.2409,1.233,0.0,0.0,1.0263,0.9331,0.8904,0.8571,0.8077,0.7232,0.6544,0.0,0.0,0.0,0.0,0.0,0.0,0.0,0.0,0.0,0.0,0.0,0.0,0.0,0.0,0.0,0.0,0.0,0.0,0.0,0.0,0.0,0.0,0.0,0.0,0.0,0.0,0.0,0.0,0.0,0.0,0.0,0.0,0.0,0.0,0.0,0.0,0.0,0.0,0.0,0.0,0.0,0.0,0.0,0.0,0.0,0.0,0.0,0.0,0.0,0.0,0.0,0.0,1.3305,1.3182,1.5645,1.6871,1.6765,1.679,1.6759,1.6616,1.6472,1.5399,0.0,0.0,0.0,0.0,0.0,0.0,0.0,0.0,0.0,0.0,0.0,0.0,0.0,0.0,0.0,0.0,0.0,0.0,0.0,0.0,0.0,0.0,0.0,0.0,0.0,0.0,0.0,0.0,1.0711,1.0682,1.0331,0.0,0.0,0.0,0.0,0.0,0.0,0.0,0.0,0.0,0.0,1.2965,1.3661,1.3344,1.2675,1.1702,1.0423,0.9324,0.883,0.8225,0.7683,0.7218,0.0,0.0,0.0,0.0,0.0,0.0,0.0,0.0,0.0,0.0,0.0,0.0,0.0,0.0,0.0,0.0,0.0,0.0,0.0,0.0,0.0,0.0,0.0,0.0,0.0,0.0,0.0,1.6464,0.0,0.0,1.6394,0.0,0.0,0.0,0.0,0.0,0.0,0.0,0.0,0.0,0.0,0.0,0.0,0.0,0.0,0.0,0.0,0.0,0.0,0.0,0.0,0.0,0.0,1.405,1.5118,1.7457,1.8993,1.9633,1.9716,1.9594,1.9619,1.8753,1.7533,1.5977,0.0,0.0,0.0,0.0,0.0,0.0,0.0,0.0,0.0,0.0,0.0,0.0,0.0,0.0,0.0,0.0,0.0,0.0,0.0,0.0,0.0,0.0,0.0,0.0,0.0,0.0,1.058,1.0302,1.0009,0.0,0.0,0.0,0.0,0.0,0.0,0.0,0.0,0.0,1.1892,1.2841,1.3961,1.5472,1.3744,1.2389,1.2444,0.9994,0.8125,0.8396,0.8139,0.7756,0.0,0.0,0.0,0.0,0.0,0.0,0.0,0.0,0.0,0.0,0.0,0.0,0.0,0.0,0.0,0.0,0.0,0.0,0.0,0.0,0.0,0.0,0.0,0.0,0.0,0.0,0.0,1.9793,1.9426,0.0,0.0,0.0,0.0,0.0,0.0,0.0,0.0,0.0,0.0,0.0,1.9058,1.9524,0.0,0.0,0.0,0.0,0.0,0.0,0.0,0.0,0.0,0.0,0.0,0.0,1.4316,1.5384,1.7395,1.8774,1.9418,1.9485,1.933,1.9111,1.8584,1.7352,1.5342,0.0,0.0,0.0,0.0,0.0,0.0,0.0,0.0,0.0,0.0,0.0,0.0,0.0,0.0,0.0,0.0,0.0,0.0,0.0,0.0,0.0,0.0,0.0,0.0,0.0,1.058,0.0,0.0,0.0,0.0,0.0,0.0,0.0,0.0,0.0,0.0,0.0,1.2095,1.3402,1.375,1.4225,1.5018,1.4526,1.3837,0.0,0.0,0.0,0.0,0.0,0.0,0.0,0.0,0.0,0.0,0.0,0.0,0.0,0.0,0.7086,0.5953,0.5494,0.5259,0.5191,0.0,0.0,0.0,0.0,0.0,0.0,0.0,0.0,0.0,0.0,0.0,0.0,0.0,0.0,2.2758,2.2488,2.2488,0.0,0.0,0.0,0.0,0.0,0.0,0.0,0.0,2.1782,2.2263,2.1727,2.217,2.1888,0.0,2.0643,1.8844,0.0,0.0,0.0,0.0,0.0,0.0,0.0,0.0,1.4697,1.6061,1.751,1.8613,1.9228,1.9155,1.9045,1.8941,1.8508,1.7396,1.5747,1.482,1.3996,0.0,0.0,0.0,0.0,0.0,0.0,0.0,0.0,0.0,0.0,0.0,0.0,0.0,0.0,0.0,0.0,0.0,0.0,0.0,0.0,0.0,0.0,0.0,1.1597,0.0,0.0,0.0,0.0,0.0,0.0,0.0,0.0,0.0,1.2043,1.2618,1.344,1.4522,1.4572,1.4573,1.475,0.0,0.0,0.0,0.0,0.0,0.0,0.0,0.9788,0.9679,0.9068,0.8501,0.8172,0.8472,0.8521,0.7979,0.0,0.0,0.6746,0.6374,0.6224,0.6149,0.5808,0.5501,0.5421,0.517,0.4887,0.0,0.0,0.0,0.0,0.0,0.0,0.0,0.0,2.5646,2.5621,0.0,2.5608,0.0,0.0,0.0,0.0,2.0708,2.202,0.0,0.0,2.5527,2.5965,2.4717,2.4611,2.459,2.4549,2.4135,2.2818,2.0683,1.8334,0.0,0.0,0.0,0.0,0.0,0.0,1.5208,1.7365,1.813,1.8764,1.942,1.9154,1.9078,1.9255,1.8605,1.7903,1.7255,1.7033,1.6496,1.5413,1.4297,0.0,0.0,0.0,0.0,0.0,0.0,0.0,0.0,0.0,0.0,0.0,0.0,0.0,0.0,0.0,0.0,0.0,0.0,0.0,0.0,1.3447,0.0,0.0,0.0,0.0,0.0,0.0,0.0,0.0,0.0,0.0,1.2614,1.3404,1.4326,1.5206,0.0,0.0,0.0,0.0,1.299,1.2504,1.1303,1.0518,1.0539,1.0963,1.1166,1.0868,0.0,0.0,1.0124,1.0057,0.9749,0.8392,0.844,0.8407,0.7853,0.7374,0.7075,0.686,0.6641,0.6496,0.6373,0.6375,0.6373,3.0778,0.0,0.0,0.0,0.0,2.7071,2.848,3.0817,3.0458,2.9938,2.9276,2.9238,0.0,0.0,0.0,0.0,0.0,0.0,2.6039,2.6808,2.7608,2.8067,2.8329,2.7352,2.6786,2.6475,2.602,2.5166,2.39,2.3161,2.0099,1.4925,0.0,0.0,0.0,0.0,1.7866,1.9661,2.0576,2.1206,2.1627,2.1576,2.1273,2.0783,2.0348,1.9911,1.9521,1.8915,1.8246,1.7464,1.6086,0.0,0.0,0.0,0.0,0.0,0.0,0.0,0.0,0.0,0.0,0.0,0.0,0.0,0.0,0.0,0.0,0.0,0.0,0.0,1.2651,1.3756,1.3714,0.0,0.0,0.0,0.0,0.0,0.0,0.0,0.0,0.0,1.4174,1.4077,1.4039,0.0,0.0,1.4092,1.3341,1.3682,1.3936,1.3639,1.363,0.0,1.3926,1.3209,1.2695,1.2768,1.2575,1.2267,1.1815,1.1838,1.1552,1.0269,1.0147,0.9897,0.8898,0.8197,0.7738,0.7382,0.7346,0.7267,0.6962,0.7009,0.7114,3.5622,3.2796,3.081,3.026,3.0695,3.0728,3.2055,3.4186,3.3939,3.3469,3.2895,3.2895,3.1037,2.7817,2.681,0.0,0.0,0.0,2.902,3.0264,3.0134,3.0191,3.0284,2.9515,2.8625,2.7771,2.7431,2.678,2.5751,2.5354,2.3042,1.8918,0.0,0.0,1.727,1.8352,1.9743,2.1379,2.2021,2.2469,2.2585,2.2398,2.1984,2.1407,2.1293,2.1149,2.0959,2.0686,2.0157,1.942,1.8043,1.6861,0.0,0.0,0.0,0.0,0.0,0.0,0.0,0.0,0.0,0.0,0.0,1.1012,0.9978,0.0,0.0,0.0,1.3223,1.4241,1.4775,1.5278,0.0,0.0,0.0,0.0,0.0,0.0,0.0,1.4714,1.5173,1.55,1.566,1.5033,1.4608,1.4776,1.4801,1.4538,1.3719,0.0,1.4819,1.4482,1.4723,1.4976,1.5017,1.4533,1.4218,1.4465,1.4117,1.3649,1.3282,1.3264,1.2925,1.1895,1.1279,1.079,0.9982,0.9151,0.8475,0.8087,0.7891,0.7762,0.75,0.7489,0.7524,3.9311,3.8402,3.4425,3.296,3.346,3.4203,3.5141,3.6227,3.6253,3.6201,3.6175,3.6175,3.4606,3.1838,2.951,0.0,3.1489,3.1168,3.1904,3.3484,3.3066,3.2323,3.1417,3.1227,3.0285,2.8619,2.8576,2.7899,2.6713,2.5837,2.4966,2.4033,2.2452,2.1135,2.0272,2.0439,2.1304,2.2802,2.2962,2.2967,2.2835,2.2286,2.1844,2.1533,2.1773,2.1861,2.185,2.2193,2.2014,2.1172,1.9959,1.8813,1.7717,0.0,0.0,0.0,0.0,0.0,0.0,0.0,0.0,0.0,0.0,0.0,0.0,0.0,0.0,0.0,1.5795,0.0,1.8274,1.7436,0.0,0.0,0.0,1.5336,1.5785,1.6406,1.7009,1.7562,0.0,0.0,1.6926,1.6163,1.5815,1.6404,1.6183,1.5748,1.5161,1.5418,1.5522,1.5012,1.4982,1.4936,1.4834,1.5065,1.5392,1.5631,1.5832,1.5378,1.4615,1.4424,1.3992,1.3006,1.1999,1.121,1.0982,1.0036,0.9276,0.8824,0.8444,0.8145,0.8009,0.7866,0.7745,3.9886,3.9285,3.7782,3.6968,3.6748,3.6929,3.7175,3.7482,3.7482,3.722,3.6802,3.6776,3.6139,3.4977,3.4392,3.4401,3.49,3.5293,3.566,3.6058,3.5444,3.4962,3.4653,3.3338,3.1842,3.0404,3.0027,2.9092,2.7687,2.7476,2.6623,2.5227,2.4783,2.4011,2.3023,2.3323,2.419,2.5605,2.5289,2.4991,2.4561,2.4111,2.3674,2.3295,2.3338,2.3219,2.2835,2.2595,2.2227,2.1655,2.0675,1.9675,1.8775,1.6778,0.0,0.0,0.0,0.0,0.0,0.0,0.0,0.0,0.0,1.3809,1.2278,0.0,1.5085,0.0,1.7257,1.838,1.8067,1.8076,0.0,0.0,1.7139,1.7273,1.8438,1.8908,1.9051,1.8825,1.9046,1.8813,1.7701,1.7364,1.7195,1.7081,1.6228,1.5388,1.4951,1.5489,1.577,1.5387,1.5627,1.579,1.5544,1.5571,1.5738,1.5818,1.5832,1.5689,1.5486,1.5452,1.5105,1.4088,1.3076,1.2124,1.1347,1.0285,0.9592,0.9397,0.9068,0.8674,0.8363,0.8171,0.8101,4.083,4.0276,3.9934,3.928,3.8425,3.805,3.79,3.79,3.79,3.7717,3.7403,3.7403,3.722,3.6907,3.6907,3.6907,3.6933,3.7246,3.7403,3.7358,3.6975,3.6543,3.6046,3.5036,3.3768,3.2199,3.169,3.0787,2.9661,2.8929,2.815,2.73,2.6873,2.637,2.5711,2.4762,2.4633,2.5357,2.5316,2.5357,2.5502,2.4838,2.4219,2.3639,2.3577,2.3246,2.2584,2.2128,2.1673,2.1197,2.0307,1.9499,1.8828,1.7273,1.6195,0.0,0.0,0.0,0.0,0.0,0.0,0.0,0.0,0.0,0.0,0.0,1.6636,1.6862,1.8621,1.9493,1.9043,1.9444,1.9701,1.9625,1.9639,1.9989,2.0749,2.125,2.1449,2.1134,2.1024,2.0632,1.9747,1.9211,1.8828,1.8594,1.7594,1.6667,1.6066,1.6325,1.6435,1.6144,1.6332,1.6414,1.6021,1.5974,1.5927,1.5832,1.5832,1.5832,1.5832,1.5832,1.5581,1.5022,1.4136,1.327,1.263,1.1326,1.0355,1.0239,0.9739,0.9179,0.8775,0.8562,0.8402,4.1772,4.1319,4.1239,4.0505,3.9289,3.8451,3.8024,3.79,3.79,3.79,3.79,3.79,3.79,3.79,3.79,3.79,3.79,3.79,3.79,3.79,3.79,3.7413,3.6521,3.6521,3.5558,3.3861,3.3287,3.2598,3.1661,3.0354,2.9625,2.9444,2.862,2.8114,2.7736,2.5443,2.4305,2.4346,2.4469,2.4925,2.5674,2.4674,2.3743,2.2977,2.2915,2.2501,2.159,2.1217,2.0746,2.0265,1.9596,1.8973,1.8485,1.7335,1.6485,0.0,1.5241,0.0,0.0,0.0,0.0,0.0,0.0,0.0,0.0,1.7482,1.8237,1.8642,1.9893,2.0643,2.0643,2.1114,2.1549,2.1942,2.2397,2.2666,2.2708,2.3227,2.3572,2.3572,2.2804,2.2208,2.188,2.1051,2.0404,2.0042,1.9236,1.8302,1.7654,1.7314,1.7142,1.7026,1.6979,1.6697,1.6353,1.6272,1.6177,1.5927,1.5879,1.5832,1.5832,1.5832,1.5784,1.5689,1.4914,1.4244,1.4304,1.2689,1.1463,1.1365,1.0583,0.9698,0.9196,0.8894,0.8689,4.2012,4.1852,4.1399,4.1032,4.0739,3.9655,3.8688,3.79,3.79,3.79,3.79,3.79,3.79,3.79,3.79,3.79,3.79,3.79,3.79,3.79,3.79,3.7808,3.7598,3.7598,3.6499,3.4599,3.4404,3.3383,3.1632,3.1315,3.0707,2.9815,2.9621,2.8645,2.7004,0.0,0.0,0.0,2.5418,2.4724,2.4472,2.3057,2.2066,2.1528,2.1507,0.0,2.0259,2.041,2.0182,1.9396,1.9554,0.0,0.0,0.0,0.0,0.0,0.0,0.0,0.0,0.0,0.0,0.0,1.8843,1.8216,1.8082,1.9168,1.992,2.0023,2.13,2.2108,2.2108,2.2522,2.2832,2.2976,2.335,2.366,2.3639,2.3884,2.4084,2.4084,2.3714,2.3081,2.2246,2.1765,2.132,2.0484,1.9422,1.8796,1.8611,1.7824,1.7246,1.7026,1.6885,1.6683,1.6541,1.6541,1.64,1.6211,1.6116,1.6021,1.5879,1.5832,1.5832,1.5784,1.4962,1.4352,1.4352,1.327,1.2436,1.2387,1.1609,1.0587,0.9541,0.9203,0.9055,4.2484,4.2457,4.2162,4.1769,0.0,4.0442,3.9561,3.8662,3.8371,3.8148,3.8057,3.8057,3.7965,3.79,3.79,3.79,3.79,3.79,3.79,3.79,3.79,3.79,3.79,3.79,3.7332,3.6257,3.5667,3.4838,3.3815,3.281,3.2007,3.1424,3.0997,2.9961,2.8439,2.7962,2.7502,2.7022,2.5997,2.5422,2.5337,2.4366,2.34,2.2457,2.2206,0.0,0.0,0.0,0.0,0.0,0.0,0.0,0.0,0.0,0.0,1.9038,1.8892,1.9114,1.9649,1.9622,2.0143,2.15,2.1497,2.1057,2.0155,2.0928,2.1549,2.1797,2.2646,2.3224,2.3205,2.3577,2.3825,2.3867,2.4074,2.4219,2.4197,2.4277,2.4461,2.4602,2.4285,2.3894,2.38,2.3421,2.2993,2.2258,2.1336,2.0583,2.0093,1.8519,1.7293,1.7153,1.7044,1.6918,1.6824,1.6791,1.6683,1.6508,1.64,1.6319,1.6021,1.6021,1.5974,1.5832,1.5356,1.5057,1.4975,1.4184,1.3511,1.3366,1.2678,1.154,1.0281,0.9596,0.9171,4.29,4.29,4.29,4.2506,4.18,4.1207,4.0421,3.9566,0.0,0.0,0.0,3.8258,3.8167,3.8037,3.8037,3.7992,3.7946,3.7946,3.7946,3.79,3.79,3.79,3.79,3.79,3.7848,3.7691,3.675,3.6175,3.587,3.4246,3.3351,3.3164,3.2476,3.1621,3.0687,2.9761,2.8719,2.7588,2.6561,2.6192,2.6489,2.5828,2.4849,2.3719,2.3232,2.2632,2.1816,2.1133,2.0741,2.0655,2.0356,2.0206,2.0206,2.0185,2.0227,2.0313,2.0347,2.0732,2.1496,2.1617,2.2152,2.3374,2.3865,2.3557,2.2262,2.2577,2.2974,2.3348,2.3805,2.4033,2.3991,2.4302,2.4507,2.4507,2.4507,2.4528,2.4611,2.4611,2.4817,2.5168,2.4851,2.474,2.539,2.4901,2.4565,2.4247,2.3293,2.2462,2.1518,1.9288,1.7652,1.7652,1.7466,1.7185,1.7106,1.7073,1.6918,1.673,1.6683,1.6588,1.6366,1.6272,1.6177,1.5927,1.5879,1.5832,1.5737,1.5105,1.4567,1.447,1.3634,1.2581,1.1424,1.0491,0.9716,4.29,4.29,4.29,4.2846,4.2662,4.2093,4.1199,4.0069,3.9023,3.8602,3.8557,3.8557,3.8512,3.8512,3.8512,3.8376,3.8167,3.8167,3.8057,3.79,3.79,3.79,3.79,3.79,3.7639,3.7142,3.6933,3.6358,3.5495,3.5106,3.4725,3.4241,3.4079,3.3505,3.2624,3.1665,3.1107,3.0853,2.7852,2.6282,2.6303,2.4564,2.3481,2.3268,2.2862,2.235,2.1816,2.2051,2.2008,2.1624,2.1923,2.2115,2.2115,2.2093,2.2286,2.2691,2.2864,2.3101,2.3417,2.3638,2.3917,2.4294,2.495,2.4821,2.366,2.3939,2.4175,2.4115,2.4472,2.4639,2.4447,2.4487,2.4528,2.4528,2.4528,2.4652,2.5044,2.5086,2.5251,2.573,2.5751,2.5575,2.5644,2.5227,2.495,2.4836,2.3958,2.2719,2.1588,1.9803,1.8719,1.8473,1.7824,1.7372,1.7326,1.7279,1.72,1.6979,1.6932,1.6824,1.6588,1.6541,1.6447,1.6177,1.613,1.6069,1.5852,1.5737,1.5429,1.5211,1.4341,1.3496,1.3008,1.2314,1.1148,4.3634,4.3586,4.3115,4.29,4.2819,4.1924,4.1028,4.016,3.9339,3.889,3.8756,3.8756,3.8666,3.8602,3.8602,3.8557,3.8395,3.8421,3.8376,3.8311,3.8239,3.8194,3.8057,3.8057,3.788,3.7482,3.7142,3.6724,3.6201,3.56,3.5155,3.4826,3.4065,3.342,3.2993,3.2059,3.1577,3.1577,2.9986,2.9042,2.881,2.7552,2.6754,2.6542,2.5279,2.4553,2.4307,2.3831,2.3491,2.3275,2.347,2.3578,2.3578,2.3979,2.4336,2.4559,2.5097,2.557,2.5874,2.5876,2.5864,2.5965,2.5837,2.5565,2.4986,2.4867,2.4829,2.4724,2.4893,2.4976,2.5098,2.4966,2.4962,2.5233,2.5275,2.5357,2.5523,2.5585,2.5771,2.619,2.6086,2.6082,2.6439,2.611,2.5792,2.566,2.4629,2.3609,2.3055,2.1617,2.0286,1.9695,1.9147,1.8703,1.8241,1.8102,1.7839,1.7293,1.7153,1.7059,1.6871,1.6838,1.6697,1.6494,1.64,1.6284,1.6019,1.5885,1.5757,1.5583,1.5015,1.4396,1.3872,1.3009,1.1677,4.4638,4.4591,4.3871,4.3423,4.3074,4.1926,4.1041,4.035,3.9617,3.9203,3.8997,3.8997,3.8935,3.8782,3.8782,3.8737,3.8666,3.8692,3.8621,3.8602,3.8602,3.8512,3.8304,3.8304,3.8239,3.8031,3.761,3.7322,3.7085,3.6271,3.5693,3.5345,3.4067,3.3377,3.3377,3.2649,3.2234,3.2234,3.2234,3.1864,3.1086,3.0513,2.9941,2.9388,2.7898,2.6999,2.682,2.5905,2.539,2.5368,2.539,2.5368,2.5408,2.5975,2.6302,2.6341,2.6919,2.7468,2.7816,2.7615,2.7557,2.7673,2.7058,2.671,2.68,2.6417,2.5889,2.553,2.5338,2.54,2.5714,2.5687,2.5657,2.5989,2.601,2.5986,2.6065,2.6041,2.6206,2.6579,2.6438,2.6542,2.7019,2.6915,2.645,2.6018,2.5295,2.4775,2.446,2.331,2.2069,2.123,2.0584,1.9923,1.9239,1.9101,1.8703,1.7792,1.7652,1.7512,1.7246,1.7073,1.6979,1.673,1.6683,1.6565,1.6281,1.6044,1.5851,1.5696,1.5337,1.5012,1.4562,1.3577,1.2409,4.5644,4.5644,4.5508,4.5007,4.4032,4.2884,4.19,4.0958,3.9807,3.9319,3.9247,3.9247,3.9247,3.9203,3.923,3.9069,3.8863,3.8863,3.88,3.8647,3.8602,3.8602,3.8557,3.8557,3.8557,3.8485,3.8405,3.806,3.7608,3.7449,3.6934,3.5949,3.5088,3.459,3.4564,3.4272,3.4121,3.4121,3.4147,3.3267,3.1612,3.1067,3.0537,2.9941,2.9347,2.8778,2.8259,2.8108,2.8044,2.8044,2.7981,2.7981,2.7981,2.806,2.8139,2.8139,2.8218,2.8306,2.8354,2.8323,2.8546,2.9042,2.8968,2.9117,2.9582,2.9189,2.8101,2.6754,2.626,2.6302,2.6553,2.6572,2.6481,2.6406,2.634,2.6334,2.6505,2.6542,2.6729,2.7185,2.7123,2.7226,2.7226,2.6936,2.6455,2.6078,2.569,2.5308,2.4937,2.4142,2.3513,2.2994,2.1765,2.0421,2.015,2.0104,1.9695,1.8872,1.8657,1.8288,1.7746,1.7372,1.72,1.7012,1.6979,1.6842,1.656,1.6276,1.5955,1.5732,1.5617,1.5583,1.5521,1.4765,1.3685,4.6623,4.6579,4.6003,4.5553,4.5092,4.426,4.3154,4.189,4.1057,4.0167,3.9363,3.9319,3.9319,3.9319,3.9319,3.9247,3.9158,3.9158,3.9114,3.9007,3.9007,3.8935,3.88,3.8774,3.855,3.8123,3.8096,3.7963,3.7696,3.735,3.6737,3.6007,3.5337,3.4962,3.4962,3.488,3.4839,3.4812,3.4812,3.4413,3.3707,3.2911,3.2405,3.2019,3.0807,2.9979,2.9628,2.8897,2.8386,2.8386,2.8386,2.8386,2.8426,2.8861,2.9174,2.9199,2.9665,3.0087,3.0416,2.997,2.9955,3.0498,3.0073,2.9946,3.0157,2.9946,2.9529,2.9044,2.7818,2.7106,2.7273,2.7177,2.708,2.7268,2.7285,2.7277,2.7165,2.7207,2.7264,2.7336,2.7309,2.7309,2.7289,2.7143,2.6832,2.6397,2.6011,2.5657,2.5451,2.4655,2.4239,2.423,2.3213,2.2138,2.1454,2.1257,2.0764,2.0014,1.965,1.9285,1.8473,1.8195,1.8025,1.734,1.72,1.6979,1.6528,1.6245,1.5942,1.5743,1.5639,1.5662,1.5756,1.541,1.4952,4.7606,4.7448,4.6842,4.6403,4.6123,4.5551,4.4385,4.2918,4.2221,4.1237,4.0083,4.0012,4.0055,3.9996,3.9557,3.9319,3.9319,3.9319,3.9319,3.9319,3.9319,3.9203,3.8997,3.8997,3.872,3.8211,3.8006,3.7846,3.7615,3.723,3.6695,3.6174,3.5678,3.5342,3.5208,3.5127,3.5086,3.5086,3.5086,3.5086,3.4991,3.4401,3.3948,3.363,3.2272,3.1284,3.1018,2.9934,2.9244,2.9121,2.9096,2.9096,2.9135,2.9704,3.0126,3.0317,3.0841,3.147,3.2006,3.1498,3.1436,3.1879,3.1422,3.1207,3.1281,3.1232,3.1213,3.1266,2.9801,2.8853,2.8746,2.8382,2.8215,2.8448,2.8326,2.7998,2.7715,2.7736,2.762,2.7452,2.7404,2.7295,2.7123,2.6957,2.6646,2.6165,2.5978,2.5709,2.5544,2.4872,2.4579,2.4743,2.4303,2.36,2.2711,2.2492,2.1943,2.1141,2.0692,2.0376,1.9376,1.9055,1.875,1.7978,1.7606,1.7252,1.6883,1.65,1.6195,1.5978,1.5832,1.5838,1.6151,1.6017,1.6058,4.8521,4.8521,4.848,4.7904,4.7116,4.6531,4.5365,4.3878,4.3253,4.2544,4.1856,4.1769,4.184,4.1645,4.0142,3.9336,3.9363,3.938,3.9336,3.9319,3.9319,3.9319,3.9319,3.9319,3.922,3.8986,3.8509,3.8066,3.7551,3.747,3.716,3.6591,3.6302,3.5923,3.5479,3.5303,3.5127,3.5168,3.5168,3.5127,3.5127,3.5032,3.4725,3.4233,3.3671,3.296,3.2226,3.1836,3.1421,3.0887,3.0901,3.0875,3.0887,3.0924,3.1211,3.1654,3.1771,3.2045,3.2568,3.2607,3.2788,3.3349,3.329,3.358,3.3726,3.3442,3.3085,3.291,3.2154,3.1656,3.1316,3.0436,2.9806,2.9464,2.8885,2.8373,2.7998,2.7998,2.7857,2.762,2.7594,2.7374,2.675,2.6252,2.5937,2.5647,2.5668,2.5671,2.5088,2.4983,2.4939,2.4774,2.4586,2.4313,2.3797,2.3517,2.3038,2.2359,2.181,2.1543,2.0404,1.9513,1.9101,1.8611,1.801,1.7561,1.7316,1.7062,1.6753,1.649,1.6182,1.6178,1.6493,1.6607,1.6608,4.8965,4.8841,4.8841,4.8552,4.8084,4.7871,4.6924,4.5421,4.4768,4.3755,4.2669,4.2221,4.2005,4.1935,4.131,4.0674,4.0158,4.0114,3.9809,3.9336,3.9319,3.9319,3.9319,3.9319,3.9074,3.8749,3.8532,3.8082,3.7567,3.7512,3.7377,3.7133,3.6712,3.6346,3.6183,3.6074,3.5871,3.5521,3.5467,3.5467,3.5426,3.5345,3.5264,3.513,3.4393,3.382,3.3476,3.3065,3.2549,3.1993,3.2349,3.2337,3.2046,3.2349,3.2602,3.2788,3.2841,3.3001,3.3409,3.3448,3.3671,3.4031,3.411,3.4162,3.4319,3.4214,3.4064,3.385,3.3714,3.352,3.3131,3.2016,3.0576,2.9463,2.9417,2.9187,2.8513,2.8233,2.8139,2.7904,2.7715,2.751,2.7165,2.6739,2.6165,2.573,2.5544,2.544,2.542,2.5337,2.5272,2.5668,2.5585,2.5251,2.4766,2.4262,2.3841,2.3474,2.3038,2.2492,2.1587,2.1096,2.0737,1.9786,1.8964,1.8257,1.8056,1.7069,1.6891,1.6652,1.6358,1.6503,1.6854,1.6825,1.6771,4.921,4.9118,4.9118,4.9006,4.8841,4.8811,4.7958,4.6609,4.6082,4.5062,4.3796,4.3239,4.2991,4.2951,4.2951,4.2397,4.1462,4.1197,4.0717,4.0185,3.9881,3.9706,3.9662,3.9424,3.9102,3.8722,3.8477,3.8082,3.7567,3.7512,3.7377,3.716,3.6958,3.6795,3.6632,3.6605,3.6388,3.6035,3.5818,3.571,3.5669,3.5548,3.5548,3.5575,3.5049,3.4553,3.4313,3.3873,3.3393,3.2939,3.318,3.3206,3.2886,3.3153,3.3473,3.3633,3.366,3.3847,3.4191,3.4297,3.4374,3.4594,3.4564,3.4522,3.4548,3.4439,3.4397,3.4397,3.4397,3.4356,3.3869,3.3036,3.184,3.0486,3.0486,3.0351,2.9555,2.9463,2.9187,2.8656,2.7921,2.7598,2.7441,2.697,2.6417,2.5909,2.5636,2.5633,2.5399,2.5399,2.5354,2.5978,2.5751,2.5461,2.5145,2.4746,2.4308,2.3944,2.3754,2.3299,2.2824,2.2473,2.1906,2.0971,2.0172,1.9348,1.843,1.7385,1.6937,1.6758,1.6638,1.671,1.6899,1.6909,1.6947,4.93,4.9331,4.9331,4.9259,4.925,4.9219,4.8511,4.7418,4.7107,4.6307,4.5225,4.508,4.4761,4.4799,4.461,4.4197,4.323,4.2508,4.2017,4.1686,4.0944,4.0646,4.056,3.9924,3.9513,3.9316,3.8738,3.8152,3.7594,3.7594,3.7323,3.6931,3.7241,3.7229,3.6659,3.6687,3.6578,3.6415,3.6008,3.571,3.571,3.5669,3.5669,3.571,3.5615,3.5251,3.4606,3.4353,3.4019,3.3512,3.3485,3.3459,3.3551,3.3604,3.3686,3.4206,3.4246,3.454,3.4993,3.5047,3.4979,3.5003,3.4921,3.4797,3.4756,3.4605,3.4481,3.4481,3.4397,3.4121,3.3547,3.3784,3.3632,3.2993,3.1928,3.1533,3.14,3.1488,3.1134,2.992,2.8671,2.7522,2.7323,2.7198,2.6747,2.6138,2.5986,2.5855,2.524,2.5238,2.5233,2.5357,2.5609,2.5692,2.542,2.5148,2.4748,2.4393,2.4204,2.3927,2.3477,2.311,2.2669,2.1845,2.1121,2.0367,1.9426,1.8459,1.7705,1.7432,1.7219,1.7053,1.7016,1.7101,1.7191,4.9653,4.9533,4.9501,4.9452,4.93,4.9259,4.9019,4.8582,4.7668,4.6982,4.6483,4.5609,4.5167,4.5129,4.5092,4.4911,4.4572,4.4236,4.3457,4.2181,4.1728,4.1561,4.1519,4.1268,4.0802,4.026,4.0006,3.9274,3.832,3.8152,3.7973,3.7881,3.7567,3.7648,3.7745,3.7066,3.6605,3.6524,3.6008,3.571,3.571,3.571,3.571,3.571,3.571,3.5561,3.5345,3.5278,3.4968,3.4401,3.4752,3.4968,3.4941,3.5008,3.5049,3.5211,3.5197,3.5211,3.5277,3.5263,3.5249,3.5127,3.5044,3.5003,3.5003,3.4921,3.4853,3.4853,3.4756,3.4481,3.4356,3.4314,3.3784,3.2234,3.2321,3.2277,3.184,3.1665,3.1444,3.1134,3.0413,2.9782,2.9081,2.8521,2.7832,2.6943,2.6532,2.6039,2.6036,2.5824,2.5864,2.6096,2.613,2.6017,2.5745,2.5532,2.5275,2.4836,2.4543,2.4335,2.3973,2.3677,2.3259,2.2691,2.2006,2.1233,2.0355,1.9488,1.8666,1.818,1.8026,1.7749,1.7436,1.7512,1.7824,4.9852,4.9701,4.9733,4.9653,4.9533,4.9533,4.9345,4.9,4.7965,4.7307,4.6868,4.5927,4.5383,4.5315,4.5346,4.5241,4.5204,4.5204,4.4496,4.323,4.271,4.2589,4.2508,4.214,4.1769,4.1239,4.1113,4.0477,3.9286,3.8996,3.8742,3.8358,3.8043,3.7973,3.8342,3.7718,3.7284,3.7175,3.6469,3.6035,3.6008,3.5845,3.571,3.571,3.571,3.571,3.571,3.571,3.5547,3.5236,3.552,3.571,3.571,3.5683,3.571,3.571,3.571,3.5629,3.5507,3.5534,3.5467,3.5304,3.5249,3.5208,3.5208,3.5168,3.5086,3.5086,3.4962,3.488,3.488,3.4797,3.4037,3.2993,3.325,3.325,3.2692,3.2321,3.2147,3.2016,3.1597,3.1089,3.0504,3.0165,2.9417,2.8589,2.801,2.7477,2.7524,2.6932,2.6933,2.6865,2.6702,2.6462,2.6075,2.592,2.5784,2.5321,2.484,2.4567,2.4251,2.4127,2.3813,2.323,2.2559,2.1935,2.1047,2.0199,1.9424,1.915,1.9007,1.9085,1.9055,1.8918,1.8964,4.9892,4.99,4.9931,4.986,4.9892,4.9892,4.9576,4.8944,4.825,4.7587,4.6892,4.6318,4.5803,4.5599,4.5625,4.5551,4.5272,4.5278,4.5241,4.4799,4.4197,4.3702,4.3585,4.2911,4.2467,4.2181,4.214,4.1587,4.0675,4.0252,3.9424,3.8867,3.8785,3.8553,3.8667,3.851,3.8292,3.8156,3.7244,3.6659,3.6632,3.6198,3.5845,3.5845,3.5818,3.5791,3.571,3.571,3.571,3.571,3.5683,3.571,3.571,3.571,3.571,3.571,3.571,3.571,3.571,3.5669,3.5669,3.5629,3.5507,3.5386,3.5386,3.5371,3.541,3.5342,3.5381,3.5313,3.5287,3.5299,3.5092,3.4929,3.446,3.423,3.4272,3.3547,3.3164,3.295,3.2321,3.1709,3.1709,3.1573,3.1181,3.0565,3.0198,2.9762,2.9328,2.8537,2.7904,2.7762,2.7833,2.7679,2.7545,2.7525,2.737,2.6495,2.5892,2.5333,2.4655,2.4361,2.4155,2.3613,2.3177,2.2523,2.1983,2.1236,2.0765,2.0545,2.0606,2.0801,2.0504,2.0048,1.9827,4.99,4.99,4.99,4.99,4.99,4.99,4.9805,4.9552,4.8889,4.8193,4.7656,4.7435,4.6703,4.5877,4.6255,4.6187,4.5798,4.5672,4.5677,4.5604,4.521,4.4911,4.4799,4.4496,4.3966,4.3467,4.3349,4.2892,4.2024,4.1767,4.134,4.0745,4.0264,4.0111,3.9968,3.8933,3.8528,3.869,3.7845,3.7284,3.7298,3.7121,3.6822,3.6388,3.6402,3.6144,3.5791,3.571,3.571,3.571,3.571,3.571,3.571,3.571,3.571,3.571,3.571,3.5737,3.5737,3.5737,3.5737,3.571,3.5764,3.5629,3.5656,3.6021,3.6142,3.6236,3.6449,3.6431,3.6163,3.6224,3.6353,3.6199,3.5294,3.4544,3.445,3.423,3.4037,3.3995,3.3742,3.3292,3.2796,3.2581,3.2315,3.1574,3.1202,3.0936,3.0646,3.0073,2.9437,2.9555,2.9531,2.9312,2.9183,2.9262,2.8847,2.7876,2.713,2.6454,2.5442,2.4445,2.4198,2.3742,2.3617,2.3135,2.302,2.273,2.2385,2.1876,2.1379,2.1153,2.0775,2.0377,2.0472,4.99,4.99,4.99,4.99,4.99,4.99,4.99,4.9773,4.9205,4.8699,4.832,4.7972,4.7466,4.6771,4.7087,4.7056,4.6676,4.636,4.6234,4.6134,4.5803,4.5457,4.5241,4.5167,4.4942,4.4503,4.4465,4.3935,4.3249,4.3061,4.2691,4.1995,4.1622,4.1476,4.1376,4.0321,3.9788,3.9915,3.9075,3.846,3.846,3.8227,3.7924,3.7593,3.7538,3.7222,3.6469,3.5967,3.571,3.571,3.571,3.571,3.571,3.571,3.571,3.571,3.571,3.5818,3.6035,3.609,3.6184,3.6374,3.6497,3.6497,3.651,3.6822,3.6985,3.6997,3.7238,3.7142,3.6964,3.6956,3.6989,3.6866,3.6061,3.5321,3.511,3.4846,3.4673,3.4605,3.4522,3.4356,3.3658,3.359,3.3335,3.2918,3.2742,3.2574,3.2381,3.1638,3.109,3.1129,3.0882,3.0476,3.0305,3.0276,3.0339,2.9424,2.8557,2.781,2.6368,2.5039,2.4387,2.4138,2.4013,2.3846,2.3737,2.3586,2.3317,2.2709,2.2035,2.1722,2.1526,2.141,2.1408,4.99,4.99,4.99,4.99,4.99,4.99,4.99,4.9805,4.9331,4.8983,4.8762,4.832,4.8067,4.7909,4.7877,4.794,4.7782,4.6992,4.6676,4.6424,4.6039,4.5573,4.5352,4.5315,4.5278,4.5167,4.5241,4.4836,4.432,4.4167,4.3603,4.3031,4.2802,4.2672,4.25,4.1966,4.1765,4.1497,4.0656,4.0054,3.9886,3.9534,3.9183,3.8822,3.8639,3.8252,3.7466,3.6728,3.6211,3.6089,3.5859,3.571,3.571,3.5737,3.5845,3.5927,3.6035,3.628,3.6578,3.6714,3.6904,3.7241,3.7377,3.7512,3.7377,3.7501,3.7594,3.7594,3.7691,3.7783,3.7687,3.7477,3.7391,3.7429,3.722,3.6706,3.6262,3.5607,3.5124,3.488,3.4839,3.4714,3.4564,3.4481,3.4439,3.3995,3.3866,3.3714,3.3527,3.302,3.2608,3.2525,3.2105,3.1486,3.1376,3.1314,3.1342,3.1017,3.0111,2.9086,2.7435,2.6131,2.5084,2.4535,2.4493,2.4326,2.4011,2.3927,2.3804,2.3617,2.3008,2.2975,2.3042,2.2862,2.2824,4.99,4.99,4.99,4.99,4.99,4.99,4.99,4.99,4.9742,4.9363,4.9078,4.9268,4.8857,4.7972,4.8446,4.8415,4.7972,4.7245,4.655,4.6013,4.5918,4.5787,4.5677,4.5641,4.5677,4.5646,4.5646,4.5536,4.5358,4.5173,4.503,4.4365,4.4174,4.4059,4.3554,4.313,4.2852,4.2742,4.2192,4.1645,4.1315,4.1089,4.0608,3.9882,3.9319,3.8927,3.8624,3.8333,3.8209,3.7851,3.6768,3.6047,3.6021,3.628,3.647,3.662,3.6891,3.7148,3.7284,3.738,3.735,3.7567,3.7648,3.7512,3.754,3.8016,3.8206,3.8315,3.864,3.8776,3.8678,3.7973,3.8011,3.8293,3.7952,3.7531,3.7558,3.6646,3.5687,3.5299,3.5098,3.5003,3.4989,3.4921,3.4921,3.4921,3.4839,3.4714,3.4444,3.4131,3.3887,3.3576,3.3299,3.2786,3.2743,3.2591,3.2504,3.2395,3.1687,3.0955,2.9246,2.7757,2.6961,2.5973,2.5104,2.4851,2.4493,2.4137,2.3971,2.3971,2.3909,2.366,2.3515,2.3742,2.3679,5.0995,5.0957,5.0608,5.0486,5.0409,5.0058,4.99,4.99,4.99,4.971,4.9489,4.9805,4.9489,4.8889,4.9205,4.9173,4.8762,4.8098,4.7435,4.6866,4.6518,4.6297,4.6171,4.595,4.5823,4.5823,4.5823,4.5823,4.5823,4.5787,4.5573,4.5321,4.5247,4.5098,4.473,4.4243,4.3982,4.3866,4.3437,4.3001,4.2721,4.2651,4.2511,4.1668,4.0964,4.0506,4.0546,3.9989,3.9823,3.9423,3.8439,3.7501,3.7246,3.7482,3.7648,3.7758,3.7924,3.8198,3.8209,3.8261,3.8285,3.8315,3.8342,3.8369,3.8396,3.8695,3.8803,3.8884,3.9102,3.9292,3.9264,3.8884,3.883,3.8966,3.8749,3.8423,3.8217,3.7369,3.658,3.6121,3.5892,3.5716,3.5568,3.5381,3.5127,3.5044,3.5044,3.4921,3.488,3.4568,3.4511,3.4334,3.4277,3.4152,3.4152,3.4001,3.3766,3.3581,3.32,3.2651,3.1738,3.035,2.9056,2.7771,2.6334,2.5443,2.5062,2.4619,2.4305,2.4138,2.4054,2.3846,2.3681,2.3639,2.3557,5.2175,5.2139,5.1516,5.129,5.1177,5.057,5.0253,5.0097,5.0058,5.0058,4.99,4.99,4.9837,4.9868,4.9837,4.9868,4.9521,4.911,4.8288,4.7656,4.7182,4.6866,4.6676,4.6297,4.595,4.5855,4.5823,4.5823,4.5823,4.5823,4.5755,4.5787,4.5787,4.5646,4.5573,4.5284,4.4918,4.4812,4.4465,4.409,4.3935,4.3897,4.3827,4.3404,4.2848,4.2402,4.2204,4.1751,4.1317,4.1228,4.0715,4.0231,3.975,3.9231,3.9191,3.915,3.9319,3.9493,3.9536,3.9421,3.9357,3.9469,3.9397,3.9282,3.9282,3.9404,3.9536,3.9519,3.9645,3.9513,3.9363,3.9183,3.921,3.9292,3.9292,3.9074,3.8613,3.807,3.7698,3.7111,3.6692,3.6407,3.6055,3.5814,3.5463,3.5208,3.5168,3.5127,3.5086,3.5003,3.488,3.4839,3.4729,3.4688,3.4688,3.4522,3.4397,3.4288,3.4111,3.3861,3.3483,3.2387,3.0785,2.8928,2.7611,2.6735,2.6012,2.563,2.5227,2.4659,2.4346,2.4326,2.3991,2.3555,2.3617,5.2175,5.2175,5.2065,5.2029,5.1993,5.1849,5.1443,5.0984,5.0876,5.0525,4.9979,4.99,4.9939,4.99,4.99,4.9615,4.9268,4.9015,4.8636,4.813,4.7782,4.7498,4.7024,4.6645,4.6329,4.5918,4.5823,4.5823,4.5823,4.5823,4.5823,4.5823,4.5823,4.5823,4.5787,4.5682,4.5536,4.5505,4.5352,4.5098,4.4768,4.4624,4.4503,4.4159,4.383,4.3692,4.3645,4.3507,4.337,4.34,4.3253,4.3106,4.2505,4.1328,4.0672,4.0608,4.0937,4.1114,4.1037,4.0718,4.029,3.9996,3.9996,3.9777,3.9706,3.9984,4.0389,4.0432,4.0346,4.0158,3.938,3.9601,3.9424,3.938,3.9513,3.9458,3.9278,3.9104,3.8765,3.8179,3.7697,3.713,3.6776,3.6356,3.5979,3.5669,3.5466,3.5399,3.5304,3.5208,3.5086,3.5044,3.5044,3.5044,3.5044,3.4839,3.4714,3.4605,3.4496,3.433,3.4016,3.3688,3.2408,3.0819,2.9367,2.8339,2.7635,2.6873,2.6565,2.6296,2.5683,2.5019,2.5035,2.5044,2.4638,5.3382,5.3348,5.3009,5.2837,5.2735,5.2385,5.2029,5.17,5.1663,5.122,5.0685,5.0525,5.0253,4.9979,4.99,4.971,4.9489,4.9394,4.9205,4.892,4.8573,4.8288,4.7688,4.7214,4.6676,4.6297,4.6013,4.5823,4.5823,4.5823,4.5823,4.5823,4.5823,4.5823,4.5823,4.5787,4.5823,4.5823,4.5787,4.5646,4.5358,4.5321,4.5098,4.4986,4.4874,4.4874,4.4874,4.4874,4.488,4.4805,4.451,4.4396,4.4044,4.3546,4.2652,4.2436,4.2583,4.2611,4.2449,4.2111,4.1794,4.1378,4.1253,4.1211,4.1085,4.135,4.1558,4.1558,4.1558,4.1433,4.1085,4.0817,4.0817,4.0774,4.0717,4.0631,4.0631,4.0659,4.0196,3.9452,3.8723,3.8136,3.7594,3.7133,3.6578,3.6157,3.5846,3.5697,3.567,3.5426,3.529,3.5249,3.5249,3.5208,3.5208,3.5086,3.4962,3.4921,3.4797,3.4673,3.447,3.414,3.3871,3.2992,3.1646,2.9959,2.8872,2.8023,2.7975,2.7867,2.7116,2.6584,2.6666,2.6543,2.6049,5.4494,5.4431,5.3881,5.3616,5.3516,5.2975,5.2596,5.2455,5.2455,5.1993,5.1401,5.129,5.0989,5.0493,5.0214,5.0097,4.9939,4.9829,4.9837,4.971,4.9331,4.9047,4.8541,4.7877,4.7119,4.6645,4.636,4.595,4.5823,4.5823,4.5823,4.5823,4.5823,4.5823,4.5823,4.5823,4.5823,4.5823,4.5823,4.5823,4.5823,4.5823,4.5823,4.5823,4.5823,4.5719,4.5646,4.5609,4.5646,4.5536,4.5284,4.503,4.4993,4.4993,4.4768,4.4351,4.4159,4.3858,4.3633,4.3279,4.2931,4.246,4.2581,4.2541,4.25,4.242,4.2742,4.2782,4.2782,4.2581,4.2257,4.2257,4.2176,4.2123,4.2029,4.2058,4.1906,4.1823,4.1699,4.0897,3.9886,3.9367,3.9131,3.8755,3.8348,3.7331,3.6987,3.6307,3.6144,3.567,3.5494,3.5426,3.5386,3.5304,3.5263,3.5249,3.5168,3.5168,3.5003,3.488,3.4756,3.4594,3.435,3.4027,3.289,3.1291,3.017,2.9448,2.9511,2.9245,2.8546,2.8122,2.8011,2.7626,2.7058,5.4494,5.4463,5.4399,5.4367,5.4335,5.4205,5.3848,5.3315,5.3281,5.2837,5.2137,5.2068,5.2029,5.174,5.1182,5.057,5.0214,5.0143,5.0221,5.0229,4.9985,4.9628,4.9061,4.8825,4.7884,4.7251,4.6834,4.6329,4.6076,4.595,4.5823,4.5823,4.5823,4.5823,4.5823,4.5823,4.5823,4.5823,4.5823,4.5823,4.5823,4.5823,4.5823,4.5823,4.5823,4.5823,4.5823,4.5823,4.5823,4.5787,4.5719,4.5646,4.5682,4.5682,4.5682,4.5395,4.5067,4.4662,4.451,4.4205,4.3819,4.3446,4.3289,4.2931,4.3101,4.3485,4.3789,4.375,4.375,4.3524,4.3061,4.2662,4.2541,4.2662,4.2812,4.2691,4.2621,4.3001,4.2881,4.268,4.182,4.1395,4.1036,4.0672,4.0182,3.9045,3.8081,3.7438,3.6891,3.6616,3.6151,3.6203,3.5924,3.5831,3.5629,3.5548,3.5453,3.5413,3.5249,3.5086,3.5003,3.488,3.4797,3.4301,3.3361,3.2979,3.2408,3.1833,3.1345,3.0698,3.0059,2.9594,2.9184,2.8712,2.8378,5.4776,5.4776,5.4776,5.4776,5.4776,5.4776,5.4586,5.4365,5.4301,5.3878,5.3281,5.3146,5.2908,5.2492,5.2068,5.1816,5.1525,5.1414,5.1451,5.1299,5.1112,5.0758,5.0241,4.9585,4.8688,4.8193,4.7593,4.7372,4.6834,4.6207,4.5823,4.5886,4.5823,4.5823,4.5855,4.5823,4.5823,4.5823,4.5823,4.5823,4.5823,4.5823,4.5823,4.5823,4.5823,4.5823,4.5823,4.5823,4.5823,4.5823,4.5823,4.5823,4.5823,4.5787,4.5787,4.5755,4.5573,4.5358,4.5321,4.5098,4.4805,4.473,4.4624,4.4624,4.4479,4.4624,4.4918,4.4955,4.4955,4.4699,4.4365,4.4251,4.4213,4.4136,4.3866,4.3866,4.3866,4.3944,4.4051,4.3935,4.378,4.3244,4.2623,4.1873,4.1349,4.0521,3.9682,3.9082,3.8677,3.8403,3.7831,3.7271,3.6844,3.6441,3.6203,3.6031,3.5845,3.5764,3.5602,3.5439,3.5249,3.5127,3.5141,3.5044,3.4495,3.4281,3.4281,3.3445,3.2315,3.1923,3.1675,3.121,3.0773,3.0925,3.0458,5.5083,5.5113,5.5022,5.4992,5.4992,5.4992,5.4992,5.4992,5.4961,5.4679,5.4299,5.4136,5.3713,5.3146,5.2976,5.2805,5.2632,5.2701,5.2701,5.2562,5.2316,5.1924,5.1438,5.0676,5.0159,4.9588,4.9341,4.8917,4.8321,4.759,4.6933,4.6334,4.6266,4.6139,4.6044,4.5918,4.5823,4.5823,4.5823,4.5823,4.5823,4.5823,4.5823,4.5823,4.5823,4.5823,4.5823,4.5823,4.5823,4.5823,4.5823,4.5823,4.5823,4.5823,4.5823,4.5823,4.5682,4.5719,4.5719,4.5646,4.5823,4.5823,4.5823,4.5536,4.5609,4.5823,4.5787,4.5646,4.5646,4.5682,4.5719,4.5536,4.5358,4.5247,4.521,4.5315,4.5278,4.4986,4.4836,4.4761,4.4685,4.4761,4.4067,4.3072,4.2356,4.1804,4.1223,4.0715,4.0256,3.9867,3.9315,3.863,3.8351,3.7951,3.7766,3.7338,3.6856,3.6411,3.629,3.6193,3.6313,3.5978,3.5683,3.5548,3.5413,3.5006,3.4682,3.3897,3.3171,3.2906,3.2682,3.2618,3.2514,3.2618,3.2289,5.5324,5.5448,5.5113,5.5022,5.5022,5.4992,5.5022,5.5053,5.5022,5.4992,5.49,5.4869,5.4457,5.4008,5.3811,5.3481,5.2806,5.2736,5.2976,5.2942,5.2633,5.2701,5.2462,5.2259,5.1956,5.1421,5.1048,5.072,5.0425,4.9737,4.8767,4.7882,4.7389,4.6945,4.656,4.6294,4.6004,4.5972,4.5972,4.5936,4.5932,4.5932,4.59,4.5864,4.5859,4.5823,4.5823,4.59,4.5936,4.5936,4.5972,4.5936,4.6008,4.59,4.59,4.59,4.5823,4.5823,4.5823,4.5823,4.5823,4.5823,4.5823,4.5823,4.5823,4.5823,4.5823,4.5823,4.5823,4.5823,4.5792,4.5755,4.575,4.5714,4.5677,4.5641,4.5568,4.5463,4.5352,4.5389,4.542,4.5352,4.5278,4.4226,4.3708,4.3171,4.2805,4.2286,4.1385,4.0876,4.0557,4.0158,4.0003,3.9838,3.9867,3.938,3.8563,3.8285,3.815,3.8033,3.794,3.743,3.6754,3.6432,3.6328,3.5683,3.51,3.4619,3.4179,3.3911,3.3685,3.3499,3.3288,3.3115,3.2958,5.5413,5.5478,5.5359,5.5329,5.5294,5.5329,5.5329,5.5329,5.5329,5.5329,5.5299,5.5299,5.5144,5.4926,5.4896,5.4738,5.4422,5.4422,5.4359,5.4264,5.4168,5.3811,5.358,5.3213,5.2774,5.2471,5.2335,5.2268,5.1897,5.1629,5.1453,5.052,4.9163,4.8059,4.7505,4.6988,4.6635,4.6471,4.6471,4.6439,4.6474,4.6474,4.6474,4.6474,4.6506,4.6506,4.6474,4.6474,4.6474,4.6439,4.6439,4.6404,4.6333,4.6227,4.612,4.6084,4.5972,4.5864,4.5859,4.5859,4.5823,4.5823,4.5823,4.5823,4.5823,4.5823,4.5823,4.5823,4.5823,4.5823,4.5823,4.5823,4.5787,4.5823,4.5823,4.5823,4.5787,4.5677,4.5677,4.5604,4.5641,4.5641,4.5536,4.5358,4.4955,4.4624,4.4226,4.373,4.2864,4.2236,4.1994,4.1713,4.1569,4.1258,4.1258,4.0733,4.0208,4.01,3.9993,3.9748,3.9501,3.8841,3.8235,3.7792,3.7271,3.6742,3.6208,3.5602,3.5089,3.4645,3.4415,3.4237,3.3998,3.368,3.3497,5.5964,5.6139,5.5929,5.5718,5.5543,5.5507,5.5507,5.5507,5.5478,5.5507,5.5507,5.5507,5.5507,5.5507,5.5478,5.5448,5.5359,5.5359,5.5419,5.5264,5.4987,5.4738,5.4454,5.4232,5.3973,5.3547,5.3514,5.3578,5.3575,5.3381,5.3179,5.2573,5.1525,5.0347,4.9173,4.828,4.7722,4.7492,4.7253,4.7056,4.6957,4.6892,4.6858,4.6858,4.6823,4.6823,4.6823,4.6789,4.6823,4.6823,4.6858,4.6892,4.6823,4.6652,4.6512,4.6439,4.6298,4.6152,4.608,4.5864,4.5859,4.5823,4.5823,4.5823,4.5823,4.5823,4.5823,4.5823,4.5823,4.5823,4.5823,4.5823,4.5823,4.5823,4.5823,4.5823,4.5823,4.575,4.5787,4.5787,4.5787,4.575,4.5714,4.5641,4.5352,4.5092,4.4818,4.4558,4.426,4.3833,4.3778,4.3438,4.3098,4.2788,4.2485,4.2311,4.2179,4.1828,4.1678,4.1346,4.0934,4.0288,3.9853,3.9565,3.8948,3.8072,3.754,3.7254,3.6303,3.5304,3.5047,3.4762,3.4598,3.4319,3.4237,5.7017,5.7614,5.6912,5.621,5.5683,5.5507,5.5507,5.5507,5.5507,5.5507,5.5507,5.5507,5.5507,5.5507,5.5507,5.5507,5.5507,5.5507,5.5507,5.5448,5.5419,5.5389,5.5359,5.5174,5.4957,5.5359,5.5113,5.4957,5.5139,5.4645,5.452,5.4425,5.3569,5.2637,5.1598,5.0388,4.9487,4.8825,4.835,4.7954,4.7662,4.7532,4.7501,4.7501,4.7268,4.727,4.727,4.7134,4.7167,4.7132,4.7098,4.7132,4.7168,4.7066,4.703,4.7059,4.6959,4.6858,4.6856,4.6219,4.6,4.5932,4.59,4.5864,4.5823,4.5823,4.5823,4.5823,4.5823,4.5823,4.5823,4.5823,4.5823,4.5823,4.5823,4.5823,4.5823,4.5823,4.5823,4.5823,4.5823,4.5823,4.5823,4.575,4.5568,4.5352,4.5241,4.5142,4.5085,4.4986,4.483,4.4588,4.418,4.4068,4.382,4.4195,4.4089,4.3697,4.324,4.2856,4.2432,4.1806,4.1468,4.1324,4.0503,3.9488,3.9228,3.9035,3.7855,3.6626,3.5602,3.5237,3.5059,3.4895,3.4733,5.7544,5.779,5.7509,5.7263,5.6912,5.5899,5.5543,5.5507,5.5507,5.5543,5.5507,5.5507,5.5507,5.5507,5.5507,5.5507,5.5507,5.5507,5.5507,5.5507,5.5507,5.5478,5.5507,5.5507,5.5507,5.5507,5.5507,5.5507,5.5419,5.5269,5.5204,5.5144,5.4861,5.4008,5.262,5.1522,5.0913,5.0745,5.0549,5.0318,5.0016,4.9549,4.9249,4.9217,4.856,4.8164,4.8066,4.7902,4.7737,4.7671,4.7671,4.777,4.7902,4.7869,4.7968,4.8067,4.7967,4.7464,4.755,4.7291,4.6888,4.6522,4.6156,4.608,4.5864,4.5823,4.5823,4.5823,4.5828,4.5828,4.5823,4.5823,4.5823,4.5823,4.5823,4.5823,4.5823,4.5823,4.5823,4.5823,4.5823,4.5936,4.5972,4.5864,4.5719,4.5682,4.5609,4.5536,4.551,4.54,4.5264,4.519,4.5048,4.5036,4.5055,4.4942,4.4867,4.4421,4.4253,4.4209,4.3721,4.3142,4.2945,4.2704,4.1783,4.0931,4.0647,4.0229,3.917,3.804,3.7242,3.6047,3.5386,3.5208,3.5018,5.8532,5.8562,5.8316,5.8211,5.8035,5.6842,5.628,5.6245,5.6034,5.5894,5.5859,5.5683,5.5507,5.5507,5.5507,5.5507,5.5507,5.5507,5.5507,5.5507,5.5507,5.5507,5.5507,5.5507,5.5507,5.5507,5.5507,5.5507,5.5507,5.5507,5.5478,5.5448,5.5478,5.4839,5.3791,5.3191,5.2592,5.2358,5.203,5.1702,5.1393,5.1117,5.0878,5.0649,5.0221,4.9661,4.9396,4.9072,4.8718,4.8617,4.8515,4.8642,4.8796,4.8863,4.8976,4.9149,4.9187,4.8794,4.8895,4.8961,4.853,4.7898,4.7091,4.6439,4.6259,4.6294,4.6152,4.608,4.6044,4.5936,4.5936,4.5936,4.5936,4.5972,4.5936,4.5936,4.5936,4.5936,4.6116,4.608,4.6255,4.6291,4.6429,4.6008,4.5864,4.59,4.5941,4.5936,4.5896,4.5714,4.5604,4.5531,4.5457,4.5352,4.5241,4.5167,4.5092,4.5017,4.498,4.4911,4.4818,4.4205,4.4143,4.4044,4.3318,4.2675,4.207,4.1378,4.0575,3.9891,3.9286,3.7844,3.6141,3.5791,3.5832,5.9946,6.0027,5.9362,5.9143,5.8972,5.833,5.7886,5.7684,5.6947,5.6631,5.6596,5.5999,5.5859,5.5718,5.5683,5.5788,5.5859,5.5823,5.5753,5.5683,5.5753,5.5648,5.5543,5.5507,5.5507,5.5507,5.5507,5.5507,5.5507,5.5507,5.5507,5.5507,5.5507,5.5254,5.4934,5.4578,5.4079,5.3675,5.3383,5.3019,5.2674,5.2138,5.2062,5.1898,5.1569,5.11,5.0769,5.0475,5.0036,4.9695,4.9419,4.9411,4.9436,4.9402,4.9945,5.0291,5.0397,5.0723,5.0456,5.043,5.0469,4.9786,4.8398,4.7497,4.7257,4.7454,4.7385,4.7117,4.6982,4.6503,4.6191,4.6227,4.6227,4.6227,4.6191,4.6156,4.612,4.6227,4.6442,4.6649,4.6955,4.7192,4.7628,4.7355,4.6799,4.6843,4.6913,4.6737,4.6564,4.5896,4.5787,4.5714,4.5609,4.5536,4.5463,4.542,4.5315,4.5241,4.5204,4.5167,4.5136,4.5098,4.48,4.4663,4.4787,4.4353,4.3462,4.2823,4.2254,4.1603,4.0972,3.9653,3.7958,3.7366,3.7139,6.132,6.1358,6.1142,6.107,6.0949,6.0327,5.9239,5.7855,5.7544,5.7474,5.7438,5.7263,5.6982,5.7158,5.7158,5.7087,5.7087,5.7052,5.6701,5.6526,5.628,5.5964,5.5718,5.5578,5.5543,5.5507,5.5507,5.5507,5.5507,5.5507,5.5543,5.5507,5.5543,5.5543,5.5448,5.5324,5.5089,5.486,5.457,5.4335,5.4022,5.3674,5.3535,5.3331,5.2745,5.2339,5.2037,5.1627,5.1123,5.0484,5.0317,5.0206,4.9902,4.9902,5.0178,5.043,5.1527,5.2582,5.1722,5.1859,5.2064,5.1828,5.0811,5.0154,4.9759,4.9427,4.9161,4.8596,4.833,4.8062,4.7696,4.7564,4.7496,4.7494,4.746,4.7425,4.7458,4.7458,4.7664,4.7899,4.8199,4.8663,4.9061,4.8628,4.8155,4.8062,4.7964,4.7792,4.7251,4.6561,4.6235,4.6167,4.5913,4.5835,4.5745,4.5709,4.5568,4.5463,4.5426,4.5352,4.5278,4.5241,4.5167,4.5129,4.5092,4.4955,4.462,4.3976,4.334,4.3021,4.2369,4.1121,3.9973,3.9315,3.8742,6.2112,6.1924,6.1897,6.1897,6.1842,6.1508,6.0532,5.9396,5.8633,5.8281,5.8246,5.7895,5.779,5.7754,5.7719,5.7719,5.7719,5.7614,5.7438,5.7228,5.7083,5.6596,5.621,5.5894,5.5753,5.5648,5.5543,5.5507,5.5578,5.5578,5.5578,5.5964,5.5753,5.5543,5.5478,5.5478,5.5478,5.5443,5.5413,5.5507,5.5297,5.5016,5.4875,5.4607,5.3852,5.3584,5.3177,5.2814,5.2339,5.1751,5.1647,5.1557,5.1464,5.1603,5.1812,5.2207,5.2894,5.3467,5.3017,5.3125,5.3341,5.338,5.3241,5.3053,5.2198,5.1609,5.0847,5.0152,5.0051,4.995,4.9518,4.9187,4.9155,4.9091,4.9059,4.9026,4.9027,4.8994,4.9158,4.9389,4.9753,5.0253,5.0255,4.9792,4.9526,4.956,4.9393,4.9058,4.8289,4.7281,4.703,4.702,4.6525,4.6197,4.6181,4.6262,4.6117,4.5976,4.5609,4.5536,4.5457,4.5389,4.5426,4.5352,4.5235,4.5098,4.4962,4.4769,4.4291,4.3963,4.3729,4.2985,4.1918,4.0982,4.0509,6.253,6.2086,6.2032,6.2139,6.2032,6.2005,6.1879,6.177,6.003,5.9276,5.9162,5.8532,5.8446,5.8738,5.8738,5.8673,5.8804,5.8804,5.8692,5.8048,5.8074,5.7681,5.7087,5.6696,5.649,5.5999,5.5823,5.6174,5.5829,5.5999,5.635,5.6631,5.6174,5.6034,5.6104,5.5823,5.5823,5.5788,5.5648,5.5507,5.5507,5.5472,5.5507,5.5472,5.5238,5.5062,5.4566,5.425,5.4033,5.3541,5.3232,5.3169,5.3134,5.3519,5.3835,5.4016,5.4174,5.418,5.408,5.4185,5.4314,5.4589,5.5022,5.4879,5.407,5.3345,5.2554,5.1919,5.1782,5.1511,5.111,5.0912,5.085,5.0788,5.0691,5.0694,5.0631,5.0634,5.0864,5.1125,5.1461,5.193,5.2201,5.1811,5.1314,5.1216,5.085,5.0457,4.9893,4.8726,4.8251,4.8241,4.7858,4.7541,4.7377,4.7348,4.6897,4.6589,4.6262,4.5787,4.5677,4.5677,4.5682,4.5573,4.5457,4.5315,4.521,4.5048,4.4949,4.4769,4.4595,4.4713,4.3966,4.2766,4.2311,6.3312,6.3194,6.3194,6.3194,6.311,6.2707,6.2519,6.2442,6.1634,6.1191,6.1155,6.0947,6.0775,6.0583,6.0518,6.0547,6.0647,6.0289,6.0444,5.9895,5.9523,5.8928,5.8236,5.786,5.7515,5.7333,5.7263,5.7203,5.7298,5.7279,5.7258,5.7504,5.7122,5.7017,5.6982,5.6666,5.635,5.6315,5.5859,5.5683,5.5648,5.5578,5.5507,5.5507,5.5437,5.5437,5.5156,5.5156,5.47,5.4208,5.4068,5.3752,5.326,5.3963,5.3963,5.3787,5.4595,5.4735,5.47,5.484,5.5051,5.5156,5.5402,5.5472,5.5214,5.4815,5.4346,5.3803,5.3361,5.3028,5.279,5.2627,5.2528,5.2433,5.2343,5.2283,5.2222,5.2421,5.2589,5.2827,5.3195,5.3467,5.381,5.3679,5.3214,5.2774,5.2295,5.1977,5.1941,5.1219,5.0359,5.0125,4.9619,4.928,4.8842,4.86,4.8288,4.7887,4.759,4.6881,4.6131,4.629,4.6489,4.5954,4.5714,4.5662,4.562,4.5426,4.5352,4.5204,4.5129,4.5055,4.5055,4.4154,4.3997,6.3602,6.3602,6.3602,6.3602,6.3534,6.3228,6.311,6.3025,6.2793,6.2668,6.253,6.2166,6.1924,6.1924,6.1897,6.1951,6.1951,6.1833,6.1462,6.1118,6.081,6.0284,5.9709,5.9195,5.8859,5.8716,5.8616,5.8638,5.8857,5.8367,5.8202,5.8502,5.8346,5.7921,5.782,5.7399,5.7153,5.7122,5.6415,5.6069,5.5929,5.5753,5.5543,5.5507,5.5507,5.5507,5.5507,5.5507,5.5262,5.4946,5.4875,5.4735,5.4454,5.47,5.4665,5.463,5.4981,5.5267,5.5121,5.5191,5.5507,5.5507,5.5507,5.5507,5.5507,5.5114,5.5079,5.4635,5.46,5.4331,5.4296,5.4196,5.4161,5.4102,5.4102,5.4072,5.4042,5.4077,5.4117,5.4126,5.433,5.437,5.4578,5.4452,5.4117,5.4083,5.3658,5.3484,5.3483,5.3263,5.2516,5.1893,5.1362,5.0492,4.9719,4.9715,4.9877,4.9444,4.8946,4.8364,4.778,4.7465,4.7257,4.6952,4.6575,4.6224,4.6118,4.6097,4.563,4.5383,4.5346,4.5278,4.5309,4.5303,4.4924,6.3602,6.3602,6.3602,6.3602,6.3602,6.3579,6.3579,6.3579,6.3579,6.3557,6.3382,6.2556,6.2166,6.2112,6.2112,6.2112,6.2192,6.2402,6.2198,6.2146,6.1977,6.1451,6.1108,6.0774,6.0323,6.0043,5.9899,6.0251,6.0621,5.9957,5.9602,5.9701,5.9159,5.8381,5.828,5.8083,5.8109,5.7933,5.7414,5.6872,5.642,5.5964,5.5648,5.5507,5.5507,5.5507,5.5507,5.5507,5.5507,5.5472,5.5367,5.5297,5.5262,5.5262,5.5297,5.5297,5.5297,5.5472,5.5437,5.5437,5.5507,5.5507,5.5507,5.5543,5.5543,5.5543,5.5507,5.5472,5.5472,5.5437,5.5402,5.5402,5.5367,5.5337,5.5337,5.5373,5.5373,5.5373,5.5284,5.5194,5.5164,5.5139,5.5144,5.5083,5.5053,5.5088,5.5022,5.5022,5.4857,5.4426,5.387,5.3418,5.2961,5.1963,5.1095,5.1095,5.1564,5.0826,5.0324,4.9846,4.9365,4.8863,4.8482,4.8248,4.7869,4.7581,4.7176,4.7044,4.6507,4.5992,4.585,4.5908,4.5745,4.5677,4.5378,6.3602,6.3602,6.3602,6.3602,6.3602,6.3602,6.3602,6.3602,6.3602,6.3602,6.3534,6.3488,6.3265,6.3265,6.3289,6.3218,6.299,6.3062,6.3218,6.3265,6.2732,6.246,6.2237,6.1839,6.1606,6.1451,6.1349,6.1543,6.1719,6.1371,6.1262,6.1307,6.1315,6.0904,6.0775,6.0325,5.9384,5.9112,5.8425,5.7786,5.7274,5.6645,5.5683,5.5507,5.5507,5.5507,5.5507,5.5507,5.5507,5.5507,5.5507,5.5507,5.5507,5.5507,5.5507,5.5507,5.5507,5.5507,5.5507,5.5507,5.5507,5.5543,5.5578,5.5648,5.5648,5.5648,5.5613,5.5613,5.5548,5.5507,5.5472,5.5472,5.5472,5.5472,5.5443,5.5443,5.5443,5.5443,5.5413,5.5419,5.5489,5.5459,5.5494,5.5469,5.5474,5.5409,5.5274,5.5244,5.5288,5.5157,5.5092,5.4672,5.4284,5.429,5.3761,5.3229,5.3265,5.2465,5.1731,5.1329,5.0791,5.002,4.9678,4.9613,4.9485,4.9232,4.8825,4.8236,4.7837,4.7426,4.6845,4.6571,4.6408,4.6239,4.6065]}]]